     2.10           OBSERVATION DATA    G (GPS)             RINEX VERSION / TYPE
teqc 2000Jul20 Karen Wendt 20040726 21:09:41UTC             PGM / RUN BY / DATE
Linux 2.0.36|Pentium II|gcc -static|Linux|486/DX+           COMMENT
teqc 2000Jul20 Karen Wendt 20040726 21:09:40UTC             COMMENT
BIT 2 OF LLI FLAGS DATA COLLECTED UNDER A/S CONDITION       COMMENT
h217 HPGN_STA_0217_1991_CalTrans                            MARKER NAME
CHS USGS                                                    OBSERVER / AGENCY
LP019992809 ASHTECH Z-XII3 CD00                             REC # / TYPE / VERS
CR619992801 ASH701945B_M NONE                               ANT # / TYPE
 -2635314.0000 -4067050.0000  4133499.0000                  APPROX POSITION XYZ
        1.4530        0.0000        0.0000                  ANTENNA: DELTA H/E/N
     1     1                                                WAVELENGTH FACT L1/2
     5    C1    L1    L2    P1    P2                        # / TYPES OF OBSERV
    30.0000                                                 INTERVAL
                                                            COMMENT
National Earthquake Hazard Reduction Program                COMMENT
Crustal Strain Project                                      COMMENT
345 Middlefield Road, MS/977                                COMMENT
U.S. Geological Survey, Menlo Park, California 94025        COMMENT
Contact: kwendt@usgs.gov (Ph: 650-329-4866)                 COMMENT
Antenna height is vertical to base of antenna               COMMENT
                                                            COMMENT
SNR is mapped to RINEX snr flag value [1-9]                 COMMENT
L1: 1 -> 1; 90 -> 5; 210 -> 9                               COMMENT
L2: 1 -> 1; 150 -> 5; 250 -> 9                              COMMENT
  2004     7    22    16     0   30.0000000     GPS         TIME OF FIRST OBS
                                                            END OF HEADER
 04  7 22 16  0 30.0000000  0  7G22G18G21G19G15G 3G14
                      6975.22349      5473.49343
                    119759.02649     84433.46843
  22200710.314      154746.80049    111118.40346  22200709.029    22200715.010
  23087379.271     -172191.47849   -124053.40546  23087377.921    23087382.627
  20073137.148      -26056.03549    -18211.49148  20073136.267    20073142.190
  21617470.092       12779.43249      9136.51347  21617469.987    21617475.961
  21720309.170     -204751.74949   -146131.76747  21720308.003    21720313.423
 04  7 22 16  1  0.0000000  0  8G22G18G21G19G15G 3G14G 9
                     10768.13049        28.17343
                    172378.25049    125440.73943
  22213894.128      224029.51249    165104.84346  22213893.001    22213899.019
  23072944.844     -248035.31949   -183152.47546  23072944.973    23072949.980
  20071146.838      -36515.70549    -26361.88448  20071145.915    20071151.774
  21618740.668       19460.33549     14342.38747  21618741.197    21618747.357
  21703270.614     -294283.64049   -215896.84347  21703270.778    21703276.091
  23692430.590     -120908.61549    -89046.64245  23692429.233    23692438.839
 04  7 22 16  1 30.0000000  0  8G22G18G21G19G15G 3G14G 9
  20465783.764     -490732.19949   -390751.65347  20465783.573
  20465786.422     -280401.26949   -357925.60347                  21497160.429
  22130921.867     -211986.32049   -174647.83346  22130922.081    22130927.867
  22962383.432     -829042.71849   -635885.49246  22962382.903    22962387.819
  19973023.901     -552156.18049   -428159.66448  19973022.874    19973028.672
  21523910.217     -478883.97049   -373977.88447  21523909.517    21523915.616
  21590097.271     -889012.36749   -679321.80947  21590097.656    21590102.919
  23588291.021     -668164.04449   -515479.40945  23588291.655    23588300.163
 04  7 22 16  2  0.0000000  0  8G22G18G21G19G15G 3G14G 9
  20467777.695     -480253.99049   -382586.82548  20467777.283    20467780.293
  21508401.202     -221309.11749   -311879.80547  21508400.494    21508405.112
  22145376.423     -136030.33449   -115461.44746  22145376.155    22145381.930
  22949274.076     -897937.26549   -689569.53546  22949272.909    22949277.676
  19972348.677     -555703.54149   -430923.85248  19972347.801    19972353.643
  21526555.751     -464981.82549   -363145.07947  21526555.066    21526561.174
  21574370.282     -971661.19549   -743723.46347  21574370.104    21574375.385
  23581622.640     -703212.52449   -542789.87845  23581622.343    23581630.818
 04  7 22 16  2 30.0000000  0  8G22G18G21G19G15G 3G14G 9
  20469829.010     -469474.25949   -374187.04448  20469828.622    20469831.618
  21519683.170     -162021.91449   -265682.03047  21519682.364    21519687.114
  22159887.114      -59778.41849    -56044.44846  22159886.520    22159892.361
  22936247.335     -966393.53849   -742912.06646  22936246.267    22936250.896
  19971753.099     -558833.04749   -433362.43948  19971752.284    19971758.175
  21529309.801     -450509.88949   -351868.27447  21529309.089    21529315.175
  21558719.931    -1053905.09949   -807809.58447  21558719.609    21558724.928
  23575054.207     -737728.45149   -569685.33145  23575053.950    23575062.356
 04  7 22 16  3  0.0000000  0  8G22G18G21G19G15G 3G14G 9
  20471937.456     -458394.79349   -365553.70648  20471937.053    20471939.994
  21531001.854     -102541.73149   -219333.86547  21531001.078    21531005.894
  22174453.594       16767.96449      3601.98346  22174452.946    22174458.683
  22923304.191    -1034410.07349   -795911.95746  22923303.198    22923307.970
  19971237.166     -561544.55949   -435475.31748  19971236.301    19971242.171
  21532171.912     -435469.73149   -340148.71547  21532171.198    21532177.234
  21543146.819    -1135742.90649   -871579.28147  21543146.400    21543151.699
  23568587.129     -771710.34949   -596164.71845  23568587.067    23568595.526
 04  7 22 16  3 30.0000000  0  8G22G18G21G19G15G 3G14G 9
  20474102.526     -447017.30249   -356688.14748  20474102.124    20474105.109
  21542356.988      -42870.20049   -172836.61447  21542356.207    21542361.163
  22189075.704       93607.65849     63476.98246  22189075.003    22189080.835
  22910445.185    -1101985.23949   -848567.91546  22910444.090    22910448.945
  19970800.781     -563837.69749   -437262.18748  19970799.933    19970805.830
  21535141.852     -419862.73549   -327987.44347  21535141.182    21535147.167
  21527651.273    -1217173.13449   -935031.39247  21527650.748    21527656.050
  23562222.626     -805157.02449   -622226.98545  23562222.482    23562230.712
 04  7 22 16  4  0.0000000  0  8G22G18G21G19G15G 3G14G 9
  20476323.936     -435343.76349   -347591.89748  20476323.576    20476326.527
  21553748.104       16990.64749   -126191.84647  21553747.371    21553752.397
  22203753.363      170738.79149    123579.06246  22203752.781    22203758.634
  22897670.203    -1169117.80249   -900878.95246  22897669.154    22897674.182
  19970443.978     -565712.73249   -438723.26948  19970443.120    19970449.058
  21538219.383     -403690.64049   -315385.85247  21538218.671    21538224.692
  21512233.365    -1298194.59049   -998164.98347  21512232.891    21512238.198
  23555960.461     -838067.10449   -647871.18145  23555960.068    23555968.148
 04  7 22 16  4 30.0000000  0  8G22G18G21G19G15G 3G14G 9
  20478601.723     -423374.34449   -338265.10048  20478601.349    20478604.274
  21565175.201       77040.15349    -79400.05947  21565174.460    21565179.456
  22218486.604      248161.19949    183908.11846  22218485.863    22218491.777
  22884980.068    -1235804.99249   -952843.00246  22884979.049    22884983.942
  19970167.111     -567167.80149   -439857.09548  19970166.242    19970172.197
  21541404.327     -386953.73949   -302344.14647  21541403.696    21541409.714
  21496893.895    -1378804.56149  -1060977.91147  21496893.330    21496898.652
  23549800.424     -870438.09049   -673095.30345  23549800.082    23549808.352
 04  7 22 16  5  0.0000000  0  8G22G18G21G19G15G 3G14G 9
  20480935.545     -411110.19049   -328708.63548  20480935.144    20480938.118
  21576637.870      137276.61549    -32462.59747  21576637.135    21576642.122
  22233274.747      325874.08649    244463.51746  22233274.174    22233280.062
  22872375.213    -1302044.73949  -1004458.38946  22872374.045    22872378.957
  19969970.326     -568202.27649   -440663.20148  19969969.448    19969975.431
  21544696.608     -369652.97049   -288863.06147  21544695.957    21544701.992
  21481633.033    -1459001.16849  -1123468.75347  21481632.435    21481637.771
  23543743.205     -902268.08649   -697897.84045  23543742.738    23543751.001
 04  7 22 16  5 30.0000000  0  8G22G18G21G19G15G 3G14G 9
  20483325.380     -398551.70249   -318922.81548  20483324.959    20483327.983
  21588136.003      197699.79249     14620.36547  21588135.335    21588140.305
  22248118.447      403877.19649    305245.08546  22248117.908    22248123.553
  22859855.889    -1367834.27149  -1055722.94946  22859854.801    22859859.694
  19969853.903     -568814.56749   -441140.32548  19969852.998    19969858.974
  21548096.098     -351788.73949   -274942.90847  21548095.484    21548101.532
  21466451.254    -1538781.74049  -1185635.40547  21466450.685    21466456.030
  23537789.384     -933554.36849   -722276.73145  23537788.977    23537797.120
 04  7 22 16  6  0.0000000  0  8G22G18G21G19G15G 3G14G 9
  20485770.891     -385701.01349   -308909.31548  20485770.466    20485773.413
  21599669.262      258307.36149     61847.00047  21599668.641    21599673.635
  22263016.979      482168.91849    366251.50646  22263016.355    22263022.124
  22847422.469    -1433172.68849  -1106636.01046  22847421.309    22847426.122
  19969817.726     -569004.93249   -441288.68548  19969816.823    19969822.785
  21551602.459     -333363.10849   -260585.31447  21551601.797    21551607.891
  21451348.887    -1618145.66049  -1247477.40947  21451348.270    21451353.548
  23531939.932     -964296.16849   -746231.35945  23531939.306    23531947.083
 04  7 22 16  6 30.0000000  0  8G22G18G21G19G15G 3G14G 9
  20488271.844     -372558.87149   -298668.70048  20488271.395    20488274.302
  21611237.474      319098.53149    109216.69647  21611236.812    21611241.919
  22277970.314      560748.83849    427482.51546  22277969.742    22277975.544
  22835075.429    -1498057.31649  -1157195.46046  22835074.287    22835078.886
  19969862.190     -568771.86949   -441107.09148  19969861.253    19969867.216
  21555215.521     -314376.61449   -245790.66747  21555214.865    21555220.966
  21436326.268    -1697090.31949  -1308992.69947  21436325.611    21436330.885
  23526194.038     -994491.06949   -769759.82045  23526193.525    23526201.458
 04  7 22 16  7  0.0000000  0  8G22G18G21G19G15G 3G14G 9
  20490828.166     -359125.22349   -288200.94148  20490827.725    20490830.699
  21622840.570      380073.00349    156729.23247  21622839.909    21622845.075
  22292978.800      639617.12249    488938.23546  22292978.082    22292983.840
  22822815.242    -1562485.09049  -1207398.91546  22822814.045    22822818.628
  19969987.494     -568113.55449   -440594.13548  19969986.596    19969992.529
  21558935.345     -294829.12549   -230558.90047  21558934.680    21558940.760
  21421383.941    -1775612.76449  -1370178.99747  21421383.285    21421388.615
  23520552.354    -1024136.26149   -792859.92945  23520551.991    23520560.316
 04  7 22 16  7 30.0000000  0  8G22G18G21G19G15G 3G14G 9
  20493439.940     -345400.72449   -277506.54248  20493439.497    20493442.423
  21634478.486      441230.16749    204384.11547  21634477.802    21634482.945
  22308041.660      718773.22949    550618.20146  22308040.965    22308046.824
  22810642.409    -1626453.57849  -1257244.46646  22810641.222    22810645.891
  19970193.917     -567029.05049   -439749.08748  19970193.013    19970198.933
  21562761.715     -274721.40349   -214890.57447  21562761.081    21562767.133
  21406522.408    -1853710.90949  -1431034.67747  21406521.743    21406527.032
  23515015.866    -1053229.91549   -815530.27245  23515015.594    23515023.962
 04  7 22 16  8  0.0000000  0  8G22G18G21G19G15G 3G14G 9
  20496106.954     -331385.76949   -266585.81948  20496106.491    20496109.405
  21646151.065      502569.31649    252180.81047  21646150.382    21646155.453
  22323159.322      798217.01949    612522.37346  22323158.709    22323164.514
  22798557.711    -1689960.15649  -1306730.09246  22798556.278    22798561.073
  19970481.818     -565516.56349   -438570.54048  19970480.903    19970486.821
  21566694.776     -254053.76149   -198785.95847  21566694.098    21566700.143
  21391742.054    -1931382.01849  -1491557.60147  21391741.426    21391746.705
  23509585.070    -1081769.45649   -837768.88245  23509584.762    23509592.870
 04  7 22 16  8 30.0000000  0  8G22G18G21G19G15G 3G14G 9
  20498828.678     -317083.02349   -255440.83648  20498828.227    20498831.192
  21657857.707      564087.44449    300116.97147  21657856.977    21657862.012
  22338331.433      877945.92449    674648.69546  22338330.696    22338336.465
  22786560.650    -1753004.43549  -1355855.50846  22786559.343    22786564.232
  19970850.935     -563577.00649   -437059.22248  19970850.048    19970855.970
  21570733.786     -232829.22849   -182247.39647  21570733.142    21570739.072
  21377042.981    -2008626.12949  -1551747.78847  21377042.331    21377047.602
  23504259.935    -1109754.43649   -859575.36145  23504259.430    23504267.485
 04  7 22 16  9  0.0000000  0  8G22G18G21G19G15G 3G14G 9
  20501604.596     -302495.62449   -244074.04948  20501604.185    20501607.126
  21669597.562      625781.20849    348189.98547  21669596.860    21669601.963
  22353557.054      957957.04449    736994.90046  22353556.355    22353562.303
  22774651.839    -1815586.53549  -1404620.75146  22774650.428    22774655.261
  19971301.073     -561211.80549   -435216.22348  19971300.166    19971306.084
  21574877.992     -211050.78049   -165277.21547  21574877.453    21574883.425
  21362425.128    -2085443.15849  -1611605.19747  21362424.581    21362429.786
  23499040.071    -1137185.27049   -880949.95745  23499039.584    23499047.599
 04  7 22 16  9 30.0000000  0  8G22G18G21G19G15G 3G14G 9
  20504434.993     -287622.13349   -232484.33448  20504434.565    20504437.494
  21681371.159      687652.09949    396401.02047  21681370.530    21681375.731
  22368836.875     1038251.99649    799562.29046  22368836.157    22368842.021
  22762831.642    -1877701.89249  -1453022.32646  22762830.251    22762835.048
  19971832.847     -558417.70149   -433039.02448  19971831.888    19971837.816
  21579127.957     -188717.24649   -147874.49647  21579127.421    21579133.489
  21347889.519    -2161828.98049  -1671126.60047  21347888.874    21347894.088
  23493926.098    -1164057.69449   -901889.51145  23493925.713    23493934.182
 04  7 22 16 10  0.0000000  0  8G22G18G21G19G15G 3G14G 9
  20507319.344     -272464.46249   -220673.17848  20507318.948    20507321.907
  21693178.323      749698.53949    444748.85047  21693177.675    21693182.897
  22384170.306     1118829.28849    862349.69646  22384169.482    22384175.435
  22751100.643    -1939349.28249  -1501059.22846  22751099.282    22751104.112
  19972446.226     -555194.39349   -430527.37548  19972445.314    19972451.248
  21583483.258     -165830.22349   -130040.48747  21583482.656    21583488.809
  21333436.022    -2237782.58249  -1730311.20047  21333435.380    21333440.628
  23488919.251    -1190370.77349   -922393.20945  23488918.720    23488927.174
 04  7 22 16 10 30.0000000  0  8G22G18G21G19G15G 3G14G 9
  20510258.134     -257021.32949   -208639.58448  20510257.724    20510260.679
  21705018.915      811921.04649    493233.87947  21705018.308    21705023.501
  22399557.860     1199690.42849    925358.28446  22399557.019    22399563.028
  22739459.350    -2000524.42549  -1548728.15446  22739458.011    22739462.864
  19973141.835     -551539.04549   -427679.06948  19973140.922    19973146.842
  21587944.095     -142388.65849   -111774.38647  21587943.477    21587949.653
  21319065.622    -2313299.56549  -1789155.57847  21319064.968    21319070.207
  23484019.475    -1216120.57049   -942457.95545  23484018.772    23484026.910
 04  7 22 16 11  0.0000000  0  8G22G18G21G19G15G 3G14G 9
  20513251.815     -241289.78749   -196381.26048  20513251.392    20513254.333
  21716893.683      874322.43149    541858.28247  21716892.998    21716898.229
  22414999.674     1280838.04749    988590.07646  22414998.919    22415005.042
  22727909.135    -2061221.56449  -1596024.60646  22727907.777    22727912.543
  19973920.595     -547446.90249   -424490.40748  19973919.653    19973925.571
  21592511.018     -118389.81449    -93074.02547  21592510.416    21592516.564
  21304779.414    -2388374.56049  -1847655.55447  21304778.709    21304783.906
  23479227.731    -1241301.79049   -962079.70345  23479227.030    23479235.050
 04  7 22 16 11 30.0000000  0  8G22G18G21G19G15G 3G14G 9
  20516298.409     -225279.83949   -183905.99048  20516297.972    20516300.987
  21728800.395      936892.68149    590614.27447  21728799.715    21728804.950
  22430494.423     1362262.40749   1052037.52846  22430493.601    22430499.714
  22716448.475    -2121447.53749  -1642953.90646  22716447.201    22716451.834
  19974780.865     -542926.05149   -420967.68048  19974779.948    19974785.884
  21597182.045      -93843.74749    -73947.27247  21597181.442    21597187.546
  21290575.872    -2463014.34549  -1905816.41047  21290575.241    21290580.432
  23474542.484    -1265921.57049   -981263.92745  23474541.993    23474549.920
 04  7 22 16 12  0.0000000  0  8G22G18G21G19G15G 3G14G 9
  20519398.607     -208988.14349   -171211.18048  20519398.206    20519401.227
  21740739.836      999634.96349    639504.31747  21740739.160    21740744.394
  22446042.401     1443966.80249   1115703.18446  22446041.588    22446047.695
  22705078.695    -2181195.82449  -1689510.98646  22705077.452    22705082.034
  19975723.678     -537971.32049   -417106.87348  19975722.805    19975728.749
  21601957.650      -68747.40149    -54391.71547  21601957.116    21601963.273
  21276456.355    -2537212.95649  -1963633.47947  21276455.676    21276460.926
  23469965.235    -1289973.60849  -1000005.76045  23469964.951    23469973.050
 04  7 22 16 12 30.0000000  0  8G22G18G21G19G15G 3G14G 9
  20522552.352     -192415.68549   -158297.60048  20522551.923    20522554.884
  21752711.806     1062548.52149    688527.81047  21752711.241    21752716.515
  22461643.642     1525951.20049   1179587.01546  22461642.838    22461649.005
  22693800.289    -2240464.31049  -1735694.21346  22693799.020    22693803.602
  19976749.267     -532581.85949   -412907.31348  19976748.425    19976754.387
  21606837.885      -43102.02049    -34408.35047  21606837.358    21606843.498
  21262421.192    -2610968.39549  -2021105.23547  21262420.543    21262425.780
  23465496.992    -1313456.32149  -1018303.98045  23465496.555    23465504.678
 04  7 22 16 13  0.0000000  0  8G22G18G21G19G15G 3G14G 9
  20525759.716     -175561.08849   -145164.16148  20525759.253    20525762.256
  21764716.839     1125634.02649    737685.29147  21764716.130    21764721.401
  22477298.319     1608216.55749   1243689.78746  22477297.590    22477303.651
  22682613.893    -2299249.26049  -1781500.64846  22682612.604    22682617.284
  19977858.095     -526754.95349   -408366.88148  19977857.247    19977863.220
  21611822.728      -16906.78349    -13996.50847  21611822.227    21611828.403
  21248471.119    -2684276.59149  -2078228.48447  21248470.430    21248475.664
  23461137.790    -1336365.89949  -1036155.60745  23461137.183    23461145.209
 04  7 22 16 13 30.0000000  0  8G22G18G21G19G15G 3G14G 9
  20529019.955     -158428.27649   -131813.93448  20529019.545    20529022.566
  21776753.607     1188887.66049    786973.78347  21776752.987    21776758.222
  22493005.754     1690759.21149   1308008.62646  22493004.957    22493011.117
  22671519.273    -2357551.45549  -1826930.89746  22671517.945    22671522.771
  19979049.867     -520492.52149   -403487.08548  19979049.002    19979054.969
  21616911.378        9834.48949      6840.80147  21616910.934    21616917.092
  21234605.858    -2757138.78649  -2135004.19847  21234605.189    21234610.451
  23456886.992    -1358703.78049  -1053561.71945  23456886.425    23456894.444
 04  7 22 16 14  0.0000000  0  8G22G18G21G19G15G 3G14G 9
  20532333.657     -141015.45449   -118245.52248  20532333.201    20532336.179
  21788822.928     1252311.47449    836394.88147  21788822.272    21788827.507
  22508766.041     1773580.62849   1372544.69746  22508765.406    22508771.686
  22660517.470    -2415366.23849  -1871981.35046  22660516.191    22660520.979
  19980325.181     -513791.04849   -398265.17848  19980324.279    19980330.253
  21622104.331       37123.08649     28104.60747  21622103.819    21622109.967
  21220826.276    -2829550.51549  -2191428.90247  21220825.658    21220830.987
  23452745.521    -1380465.60649  -1070519.01545  23452745.034    23452753.069
 04  7 22 16 14 30.0000000  0  8G22G18G21G19G15G 3G14G 9
  20535699.886     -123325.96949   -104461.52848  20535699.431    20535702.402
  21800923.817     1315901.61449    885945.57547  21800923.105    21800928.482
  22524578.897     1856678.01249   1437295.80346  22524578.419    22524584.631
  22649608.331    -2472694.00449  -1916652.32846  22649607.063    22649611.930
  19981683.736     -506651.98649   -392702.29248  19981682.809    19981688.802
  21627400.689       64955.42949     49792.09747  21627400.252    21627406.293
  21207132.434    -2901512.33149  -2247503.02247  21207131.798    21207137.094
  23448713.759    -1401652.00349  -1087027.92245  23448713.373    23448721.158
 04  7 22 16 15  0.0000000  0  8G22G18G21G19G15G 3G14G 9
  20539118.811     -105359.46649    -90461.66848  20539118.354    20539121.379
  21813056.267     1379658.66749    935626.34047  21813055.636    21813061.096
  22540444.612     1940051.65549   1502262.17846  22540444.005    22540450.177
  22638792.419    -2529531.29349  -1960941.10846  22638791.301    22638796.111
  19983125.888     -499073.22549   -386796.78048  19983125.020    19983131.051
  21632800.730       93331.93449     71903.61747  21632800.194    21632806.226
  21193524.748    -2973020.89549  -2303223.96847  21193524.149    21193529.421
  23444792.299    -1422260.08349  -1103086.16245  23444791.838    23444799.693
 04  7 22 16 15 30.0000000  0  8G22G18G21G19G15G 3G14G 9
  20542590.029      -87118.63149    -76248.05048  20542589.541    20542592.552
  21825220.093     1443579.50549    985434.73747  21825219.435    21825224.852
  22556362.559     2023698.83149   1567441.68746  22556361.726    22556367.829
  22628070.140    -2585878.13449  -2004847.71646  22628068.914    22628073.707
  19984651.551     -491055.88649   -380549.52748  19984650.704    19984656.734
  21638303.486      122249.05349     94436.39247  21638302.994    21638309.014
  21180003.294    -3044076.41549  -2358591.88747  21180002.749    21180008.029
  23440980.588    -1442290.24449  -1118694.09245  23440980.306    23440988.255
 04  7 22 16 16  0.0000000  0  8G22G18G21G19G15G 3G14G 9
  20546113.384      -68603.60149    -61820.77248  20546112.842    20546115.876
  21837415.018     1507664.01949   1035370.66047  21837414.353    21837419.671
  22572332.012     2107619.80249   1632834.55246  22572331.300    22572337.542
  22617441.605    -2641731.60149  -2048369.89246  22617440.392    22617445.117
  19986260.972     -482598.43049   -373959.31948  19986260.110    19986266.125
  21643909.093      151706.38249    117390.10447  21643908.574    21643914.620
  21166568.716    -3114676.14049  -2413604.63947  21166568.110    21166573.390
  23437279.569    -1461739.94149  -1133849.70845  23437279.290    23437287.257
 04  7 22 16 16 30.0000000  0  8G22G18G21G19G15G 3G14G 9
  20549688.577      -49815.65049    -47180.82848  20549688.097    20549691.172
  21849640.922     1571910.77249   1085433.00247  21849640.239    21849645.448
  22588353.542     2191813.31349   1698439.78646  22588352.918    22588359.198
  22606907.342    -2697090.27049  -2091506.49546  22606906.075    22606910.727
  19987954.247     -473700.30849   -367025.73848  19987953.398    19987959.413
  21649617.128      181702.12149    140763.35547  21649616.612    21649622.723
  21153220.974    -3184818.97849  -2468261.37247  21153220.380    21153225.714
  23433688.688    -1480608.01049  -1148552.12145  23433688.545    23433696.935
 04  7 22 16 17  0.0000000  0  8G22G18G21G19G15G 3G14G 9
  20553315.666      -30755.02349    -32328.40948  20553315.236    20553318.311
  21861897.743     1636319.51249   1135621.56247  21861896.974    21861902.165
  22604426.924     2276278.91149   1764257.02746  22604426.232    22604432.579
  22596467.564    -2751951.54349  -2134255.52146  22596466.371    22596470.940
  19989731.615     -464360.38949   -359747.90348  19989730.757    19989736.767
  21655427.605      212235.69349    164555.70247  21655427.000    21655433.200
  21139960.565    -3254502.42349  -2522560.14547  21139960.010    21139965.399
  23430209.321    -1498892.53849  -1162799.83945  23430209.133    23430217.475
 04  7 22 16 17 30.0000000  0  8G22G18G21G19G15G 3G14G 9
  20556994.410      -11423.41949    -17264.84448  20556993.969    20556997.030
  21874184.882     1700888.66249   1185935.12847  21874184.117    21874189.339
  22620551.899     2361014.97149   1830285.04646  22620551.197    22620557.348
  22586122.688    -2806314.27449  -2176616.08246  22586121.494    22586126.074
  19991593.181     -454578.40249   -352125.59648  19991592.259    19991598.260
  21661340.056      243305.10949    188765.58547  21661339.387    21661345.570
  21126787.947    -3323725.30949  -2576500.04047  21126787.359    21126792.675
  23426841.412    -1516592.80649  -1176592.26945  23426841.005    23426849.057
 04  7 22 16 18  0.0000000  0  8G22G18G21G19G15G 3G14G 9
  20560724.487        8178.38149     -1990.72848  20560724.067    20560727.166
  21886502.393     1765617.28549   1236372.96047  21886501.610    21886506.957
  22636728.373     2446020.95649   1896523.37246  22636727.439    22636733.641
  22575872.776    -2860176.28949  -2218586.48446  22575871.829    22575876.493
  19993538.958     -444353.37249   -344158.06448  19993538.042    19993544.079
  21667354.144      274909.22649    213392.12947  21667353.483    21667359.682
  21113703.420    -3392485.81049  -2630079.63747  21113702.728    21113707.974
  23423585.000    -1533706.98149  -1189928.04945  23423584.329    23423592.256
 04  7 22 16 18 30.0000000  0  8G22G18G21G19G15G 3G14G 9
  20564505.969       28049.98649     13493.61548  20564505.549    20564508.631
  21898849.926     1830504.89149   1286934.66247  21898849.272    21898854.754
  22652955.610     2531296.43549   1962971.67746  22652954.795    22652961.284
  22565718.867    -2913535.41049  -2260165.02446  22565717.818    22565722.488
  19995569.290     -433684.03349   -335844.32148  19995568.396    19995574.416
  21673469.804      307047.12449    238434.59247  21673469.169    21673475.403
  21100707.194    -3460781.78449  -2683297.27147  21100706.495    21100711.686
  23420440.358    -1550233.38349  -1202805.76945  23420439.578    23420447.429
 04  7 22 16 19  0.0000000  0  8G22G18G21G19G15G 3G14G 9
  20568338.834       48191.51749     29188.29148  20568338.415    20568341.467
  21911227.904     1895551.35649   1337620.15947  21911227.213    21911232.788
  22669234.456     2616841.36049   2029629.98246  22669233.596    22669239.965
  22555661.248    -2966388.85449  -2301349.50646  22555660.202    22555664.853
  19997684.455     -422568.94349   -327183.23748  19997683.562    19997689.604
  21679686.797      339718.07349    263892.41747  21679686.245    21679692.546
  21087799.786    -3528610.76149  -2736150.99747  21087799.070    21087804.299
  23417407.355    -1566169.62649  -1215223.63745  23417406.787    23417415.209
 04  7 22 16 19 30.0000000  0  8G22G18G21G19G15G 3G14G 9
  20572222.553       68600.89249     45091.67848  20572222.187    20572225.274
  21923635.796     1960754.76649   1388427.93447  21923635.103    21923640.686
  22685564.008     2702653.97049   2096496.83746  22685563.151    22685569.702
  22545699.902    -3018735.67449  -2342139.24046  22545698.897    22545703.714
  19999884.443     -411008.20349   -318174.89748  19999883.539    19999889.554
  21686004.912      372919.69349    289763.76647  21686004.382    21686010.621
  21074981.329    -3595971.99849  -2788640.26047  21074980.645    21074985.852
  23414487.057    -1581515.40649  -1227181.40145  23414486.608    23414495.164
 04  7 22 16 20  0.0000000  0  8G22G18G21G19G15G 3G14G 9
  20576157.155       89277.24749     61203.10848  20576156.793    20576159.876
  21936073.490     2026113.71349   1439356.91447  21936072.743    21936078.089
  22701944.457     2788733.12049   2163571.41346  22701943.661    22701950.084
  22535835.583    -3070574.18849  -2382532.87447  22535834.436    22535839.235
  20002169.336     -399001.09149   -308818.72948  20002168.447    20002174.482
  21692423.777      406650.41349    316047.39447  21692423.218    21692429.493
  21062252.273    -3662863.76849  -2840763.70547  21062251.606    21062256.761
  23411679.490    -1596269.48349  -1238678.10545  23411679.052    23411687.461
 04  7 22 16 20 30.0000000  0  8G22G18G21G19G15G 3G14G 9
  20580142.323      110219.13349     77521.43748  20580141.964    20580144.990
  21948540.476     2091627.42549   1490406.48847  21948539.692    21948544.942
  22718375.263     2875077.68549   2230852.80246  22718374.427    22718380.804
  22526068.132    -3121903.20649  -2422529.52047  22526066.978    22526071.675
  20004539.234     -386547.48749   -299114.65248  20004538.326    20004544.358
  21698942.952      440908.35949    342741.85547  21698942.345    21698948.595
  21049612.769    -3729285.05749  -2892520.54147  21049612.037    21049617.230
  23408984.723    -1610431.07349  -1249713.12145  23408984.307    23408992.503
 04  7 22 16 21  0.0000000  0  8G22G18G21G19G15G 3G14G 9
  20584178.045      131426.60849     94046.71548  20584177.660    20584180.671
  21961036.760     2157295.68049   1541576.47847  21961035.971    21961041.268
  22734856.498     2961687.39849   2298340.78746  22734855.876    22734862.399
  22516398.162    -3172719.73249  -2462126.82647  22516396.903    22516401.565
  20006994.435     -373645.80849   -289061.42148  20006993.506    20006999.540
  21705562.230      475692.90349    369846.63747  21705561.622    21705567.912
  21037063.163    -3795233.13249  -2943908.63447  21037062.525    21037067.767
  23406403.405    -1623997.79549  -1260284.61545  23406402.844    23406410.675
 04  7 22 16 21 30.0000000  0  8G22G18G21G19G15G 3G14G 9
  20588264.021      152898.56849    110778.09348  20588263.642    20588266.740
  21973562.115     2223117.19749   1592865.89646  21973561.350    21973566.743
  22751388.162     3048561.25449   2366034.59646  22751387.462    22751394.057
  22506825.865    -3223022.37949  -2501323.68247  22506824.660    22506829.312
  20009534.873     -360295.62349   -278658.70748  20009533.998    20009540.060
  21712281.455      511002.30149    397360.40847  21712280.861    21712287.132
  21024604.055    -3860706.84949  -2994927.10947  21024603.350    21024608.468
  23403935.051    -1636968.68349  -1270391.81645  23403934.514    23403942.358
 04  7 22 16 22  0.0000000  0  8G22G18G21G19G15G 3G14G 9
  20592400.233      174633.97549    127714.75448  20592399.808    20592402.860
  21986116.489     2289091.00349   1644274.00146  21986115.779    21986121.232
  22767969.656     3135698.29649   2433933.50346  22767969.182    22767975.786
  22497351.646    -3272809.38349  -2540118.75446  22497350.468    22497355.118
  20012160.793     -346496.46149   -267906.13948  20012159.920    20012165.994
  21719100.239      546834.92849    425281.88947  21719099.610    21719106.001
  21012235.356    -3925704.62249  -3045574.71147  21012234.683    21012239.795
  23401580.129    -1649342.66849  -1280033.87345  23401579.704    23401587.759
 04  7 22 16 22 30.0000000  0  8G22G18G21G19G15G 3G14G 9
  20596586.474      196632.77349    144856.65048  20596586.040    20596589.098
  21998699.761     2355216.90949   1695800.62046  21998699.147    21998704.713
  22784601.653     3223098.30249   2502037.30446  22784600.959    22784607.604
  22487976.099    -3322078.41349  -2578510.21546  22487974.859    22487979.445
  20014872.468     -332246.99049   -256802.67948  20014871.573    20014877.644
  21726018.408      583189.91549    453610.38847  21726017.751    21726024.239
  20999957.639    -3990224.15349  -3095849.65747  20999956.982    20999962.122
  23399339.231    -1661117.89049  -1289209.35845  23399338.975    23399347.141
 04  7 22 16 23  0.0000000  0  8G22G18G21G19G15G 3G14G 9
  20600822.560      218893.42449    162202.59248  20600822.138    20600825.220
  22011311.755     2421493.17449   1747444.38846  22011311.186    22011316.824
  22801282.915     3310759.29149   2570344.46446  22801282.370    22801288.994
  22478699.142    -3370828.43849  -2616497.24146  22478698.061    22478702.617
  20017669.888     -317547.02849   -245348.19448  20017668.946    20017675.012
  21733035.558      620065.08249    482344.23247  21733034.963    21733041.379
  20987771.171    -4054264.52049  -3145751.23047  20987770.519    20987775.624
  23397212.689    -1672293.71749  -1297917.81745  23397212.417    23397220.744
 04  7 22 16 23 30.0000000  0  8G22G18G21G19G15G 3G14G 9
  20605108.129      241414.07349    179751.12848  20605107.721    20605110.762
  22023952.251     2487918.10649   1799203.99946  22023951.575    22023957.166
  22818014.000     3398679.75849   2638853.83246  22818013.318    22818019.832
  22469521.242    -3419058.48049  -2654079.09647  22469520.185    22469524.840
  20020552.993     -302396.82749   -233542.87248  20020552.020    20020558.050
  21740151.218      657457.79649    511481.35247  21740150.637    21740157.060
  20975675.970    -4117825.11649  -3195278.95947  20975675.342    20975680.442
  23395200.456    -1682869.82449  -1306158.92545  23395200.001    23395208.309
 04  7 22 16 24  0.0000000  0  8G22G18G21G19G15G 3G14G 9
  20609443.220      264194.71449    197502.25248  20609442.799    20609445.846
  22036620.985     2554491.84049   1851079.56346  22036620.255    22036625.840
  22834793.851     3486859.73949   2707565.40646  22834793.351    22834800.013
  22460443.029    -3466765.75149  -2691253.58647  22460441.880    22460446.320
  20023521.994     -286794.74049   -221385.42248  20023521.035    20023527.072
  21747365.283      695367.64649    541021.42947  21747364.683    21747371.140
  20963672.535    -4180903.46149  -3244430.90447  20963671.902    20963677.025
  23393302.420    -1692844.13549  -1313931.12845  23393301.894    23393310.150
 04  7 22 16 24 30.0000000  0  8G22G18G21G19G15G 3G14G 9
  20613827.479      287233.97349    215454.90048  20613826.994    20613830.071
  22049317.789     2621212.88849   1903069.90846  22049317.005    22049322.489
  22851623.140     3575297.12849   2776477.56546  22851622.501    22851629.251
  22451464.283    -3513949.56349  -2728020.18946  22451463.046    22451467.532
  20026576.917     -270741.11749   -208876.12848  20026575.980    20026582.020
  21754677.164      733792.13849    570962.54547  21754676.621    21754683.126
  20951761.092    -4243498.68649  -3293206.39347  20951760.458    20951765.515
  23391518.961    -1702216.39049  -1321234.20645  23391518.539    23391526.440
 04  7 22 16 25  0.0000000  0  8G22G18G21G19G15G 3G14G 9
  20618260.811      310531.05949    233608.44948  20618260.365    20618263.393
  22062042.322     2688080.31449   1955174.33446  22062041.616    22062046.918
  22868501.405     3663991.79649   2845590.16646  22868500.576    22868507.406
  22442585.559    -3560607.96449  -2764377.39147  22442584.342    22442588.789
  20029717.908     -254234.98849   -196014.23548  20029717.015    20029723.097
  21762086.829      772729.74749    601303.47647  21762086.281    21762092.722
  20939941.880    -4305609.16749  -3341604.15847  20939941.220    20939946.299
  23389850.384    -1710985.25349  -1328067.05045  23389849.794    23389857.527
 04  7 22 16 25 30.0000000  0  8G22G18G21G19G15G 3G14G 9
  20622743.131      334085.64949    251962.65648  20622742.692    20622745.726
  22074794.601     2755093.57849   2007392.38846  22074793.788    22074799.156
  22885428.439     3752942.99949   2914902.69546  22885427.578    22885434.479
  22433807.187    -3606738.84049  -2800323.50247  22433805.949    22433810.414
  20032945.211     -237275.49649   -182799.06848  20032944.341    20032950.451
  21769593.815      812179.32849    632043.36047  21769593.314    21769599.808
  20928215.355    -4367232.86249  -3389622.60647  20928214.629    20928219.713
  23388296.674    -1719149.24049  -1334428.58545  23388296.130    23388304.135
 04  7 22 16 26  0.0000000  0  8G22G18G21G19G15G 3G14G 9
  20627274.403      357897.57049    270517.38248  20627273.955    20627277.055
  22087574.481     2822252.92849   2059724.26446  22087573.701    22087579.222
  22902404.018     3842150.21349   2984414.68246  22902403.196    22902410.191
  22425129.567    -3652339.81249  -2835856.72947  22425128.356    22425132.917
  20036259.135     -219861.10249   -169229.43748  20036258.227    20036264.330
  21777198.119      852140.02549    663181.50647  21777197.640    21777204.124
  20916581.771    -4428367.63349  -3437260.07647  20916581.052    20916586.154
  23386858.305    -1726706.49749  -1340317.35945  23386857.935    23386866.044
 04  7 22 16 26 30.0000000  0  8G22G18G21G19G15G 3G14G 9
  20631854.119      381964.20649    289270.58948  20631853.685    20631856.823
  22100381.624     2889555.60549   2112167.84346  22100380.995    22100386.611
  22919428.098     3931611.01149   3054124.29346  22919427.180    22919434.209
  22416552.880    -3697411.16949  -2870977.25747  22416551.674    22416556.241
  20039659.370     -201993.10149   -155306.34248  20039658.433    20039664.540
  21784899.034      892608.37049    694715.23547  21784898.598    21784905.010
  20905041.266    -4489013.86949  -3484516.87547  20905040.521    20905045.525
  23385535.735    -1733657.96949  -1345734.08345  23385535.240    23385543.486
 04  7 22 16 27  0.0000000  0  8G22G18G21G19G15G 3G14G 9
  20636482.324      406285.13849    308221.93348  20636481.861    20636484.967
  22113216.181     2957001.21449   2164722.78746  22113215.559    22113221.263
  22936500.048     4021324.74349   3124030.95946  22936499.122    22936506.325
  22408077.164    -3741950.84549  -2905683.48447  22408075.982    22408080.650
  20043146.091     -183670.38049   -141028.92248  20043145.129    20043151.280
  21792696.380      933582.98249    726643.44447  21792695.860    21792702.281
  20893594.018    -4549169.64749  -3531391.50247  20893593.266    20893598.277
  23384328.689    -1740002.31349  -1350677.71445  23384328.007    23384336.454
 04  7 22 16 27 30.0000000  0  8G22G18G21G19G15G 3G14G 9
  20641158.848      430860.23949    327371.34148  20641158.383    20641161.518
  22126077.945     3024589.70449   2217389.06746  22126077.315    22126083.091
  22953620.200     4111291.46449   3194134.78646  22953619.449    22953626.478
  22399703.109    -3785956.19349  -2939973.35647  22399702.019    22399706.685
  20046719.583     -164891.43549   -126395.99548  20046718.626    20046724.807
  21800589.933      975062.96749    758965.45247  21800589.306    21800595.817
  20882240.556    -4608832.47449  -3577881.99647  20882239.776    20882244.852
  23383237.314    -1745737.42849  -1355146.61945  23383236.652    23383245.257
 04  7 22 16 28  0.0000000  0  8G22G18G21G19G15G 3G14G 9
  20645883.340      455688.01549    346717.63548  20645882.933    20645886.131
  22138966.539     3092319.19449   2270165.22246  22138965.912    22138971.642
  22970788.189     4201508.87649   3264433.93245  22970787.344    22970794.345
  22391430.941    -3829426.39849  -2973846.23847  22391429.816    22391434.623
  20050379.808     -145656.80549   -111407.99548  20050378.862    20050385.054
  21808578.897     1017045.59749    791679.14447  21808578.335    21808584.925
  20870980.960    -4668002.14849  -3623988.22947  20870980.171    20870985.229
  23382261.892    -1750863.47149  -1359140.93745  23382261.198    23382269.837
 04  7 22 16 28 30.0000000  0  8G22G18G21G19G15G 3G14G 9
  20650655.781      480767.24449    366259.87348  20650655.389    20650658.580
  22151881.976     3160189.14649   2323050.84246  22151881.311    22151886.949
  22988003.651     4291976.12849   3334927.79345  22988002.896    22988009.759
  22383260.894    -3872360.29149  -3007301.21547  22383259.822    22383264.558
  20054126.768     -125966.02549    -96064.54848  20054125.848    20054132.072
  21816663.162     1059528.82249    824782.89347  21816662.649    21816669.300
  20859815.392    -4726677.17749  -3669709.01347  20859814.661    20859819.745
  23381402.323    -1755379.44849  -1362659.84845  23381401.713    23381410.165
 04  7 22 16 29  0.0000000  0  8G22G18G21G19G15G 3G14G 9
  20655476.157      506097.88049    385998.00648  20655475.722    20655478.852
  22164824.067     3228199.21949   2376045.63546  22164823.362    22164829.016
  23005266.836     4382692.80249   3405615.95945  23005265.867    23005272.662
  22375193.299    -3914755.78449  -3040336.66347  22375192.197    22375196.955
  20057960.792     -105817.97149    -80364.78448  20057959.913    20057966.115
  21824842.620     1102511.80749    858276.07547  21824842.136    21824848.690
  20848744.391    -4784855.77949  -3715042.97647  20848743.625    20848748.742
  23380659.152    -1759284.03449  -1365702.36445  23380658.557    23380667.018
 04  7 22 16 29 30.0000000  0  8G22G18G21G19G15G 3G14G 9
  20660344.075      531678.78149    405931.15448  20660343.582    20660346.763
  22177792.513     3296348.25149   2429148.70346  22177791.714    22177797.424
  23022576.886     4473657.65049   3476497.52646  23022576.081    23022582.776
  22367228.515    -3956611.53949  -3072951.53847  22367227.381    22367232.158
  20061881.983      -85212.32749    -64308.45948  20061881.089    20061887.262
  21833116.821     1145992.45649    892157.04847  21833116.318    21833122.929
  20837767.965    -4842536.59949  -3759989.05447  20837767.344    20837772.477
  23380032.747    -1762576.71349  -1368268.09345  23380032.031    23380040.177
 04  7 22 16 30  0.0000000  0  8G22G18G21G19G15G 3G14G 9
  20665259.215      557508.23049    426057.97648  20665258.799    20665261.977
  22190786.866     3364634.30649   2482358.54846  22190786.089    22190791.882
  23039934.158     4564868.69449   3547570.92245  23039933.037    23039939.768
  22359366.466    -3997927.05349  -3105145.44847  22359365.284    22359370.094
  20065890.112      -64149.51849    -47895.89748  20065889.204    20065895.361
  21841485.068     1189967.91949    926423.58347  21841484.615    21841491.222
  20826886.462    -4899719.53049  -3804547.16947  20826885.767    20826890.876
  23379522.799    -1765257.66649  -1370357.16145  23379521.894    23379529.792
 04  7 22 16 30 30.0000000  0  8G22G18G21G19G15G 3G14G 9
  20670221.818      583586.77749    446378.89148  20670221.423    20670224.625
  22203807.539     3433058.25949   2535675.85146  22203806.745    22203812.511
  23057337.707     4656326.22649   3618836.40545  23057336.788    23057343.772
  22351607.773    -4038699.39249  -3136916.10547  22351606.614    22351611.364
  20069985.574      -42627.80249    -31125.74148  20069984.699    20069990.815
  21849947.492     1234437.65049    961075.26747  21849946.986    21849953.584
  20816100.123    -4956401.82049  -3848715.17147  20816099.454    20816104.600
  23379129.618    -1767324.58549  -1371967.73445  23379128.746    23379136.610
 04  7 22 16 31  0.0000000  0  8G22G18G21G19G15G 3G14G 9
  20675231.600      609913.07949    466892.87448  20675231.166    20675234.337
  22216853.927     3501618.73949   2589099.53246  22216853.253    22216859.097
  23074788.104     4748028.45749   3690292.55045  23074787.238    23074794.330
  22343952.577    -4078927.65349  -3168262.80747  22343951.355    22343956.163
  20074168.466      -20647.29549    -13998.09348  20074167.543    20074173.621
  21858503.497     1279399.36749    996110.32047  21858503.003    21858509.529
  20805409.353    -5012582.41949  -3892492.25447  20805408.675    20805413.777
  23378853.167    -1768777.23249  -1373099.64445  23378852.288    23378860.285
 04  7 22 16 31 30.0000000  0  8G22G18G21G19G15G 3G14G 9
  20680288.474      636487.21549    487599.96948  20680288.074    20680291.260
  22229926.445     3570315.46849   2642629.39046  22229925.862    22229931.704
  23092285.003     4839975.46749   3761939.41845  23092284.174    23092291.420
  22336401.343    -4118609.78149  -3199183.94947  22336400.122    22336404.866
  20078438.801        1793.46549      3488.19848  20078437.907    20078443.988
  21867152.918     1324852.05249   1031527.93547  21867152.415    21867158.938
  20794814.336    -5068259.53149  -3935877.00347  20794813.680    20794818.768
  23378693.649    -1769614.21249  -1373751.81345  23378693.128    23378701.216
 04  7 22 16 32  0.0000000  0  8G22G18G21G19G15G 3G14G 9
  20685392.137      663306.71449    508498.25348  20685391.701    20685394.883
  22243024.564     3639146.37949   2696263.79446  22243023.995    22243029.829
  23109828.439     4932164.71549   3833775.05746  23109827.429    23109834.758
  22328954.018    -4157745.44949  -3229679.27747  22328952.858    22328957.607
  20082796.571       24693.28349     21332.19448  20082795.680    20082801.754
  21875895.240     1370792.48249   1067325.61047  21875894.643    21875901.138
  20784315.211    -5123433.42149  -3978869.63047  20784314.478    20784319.539
  23378651.291    -1769836.25449  -1373924.81845  23378650.757    23378659.084
 04  7 22 16 32 30.0000000  0  8G22G18G21G19G15G 3G14G 9
  20690542.514      690371.74849    529587.86548  20690542.066    20690545.265
  22256148.361     3708111.53749   2750002.82146  22256147.839    22256153.518
  23127417.586     5024596.16649   3905799.40945  23127416.602    23127424.001
  22321611.104    -4196332.63549  -3259747.23447  22321609.921    22321614.673
  20087241.951       48053.76949     39535.15848  20087241.042    20087247.147
  21884729.915     1417219.58549   1103502.52847  21884729.447    21884736.035
  20773912.137    -5178101.73849  -4021468.30147  20773911.420    20773916.484
  23378726.215    -1769441.85249  -1373617.45145  23378725.725    23378734.275
 04  7 22 16 33  0.0000000  0  8G22G18G21G19G15G 3G14G 9
  20695739.173      717680.43049    550867.33148  20695738.718    20695741.936
  22269297.419     3777209.17849   2803845.06746  22269296.746    22269302.334
  23145052.638     5117267.40649   3978010.64545  23145051.515    23145058.765
  22314372.562    -4234371.08549  -3289387.59347  22314371.452    22314376.042
  20091774.894       71874.23449     58096.54348  20091773.934    20091780.105
  21893656.627     1464129.92149   1140055.98247  21893656.217    21893662.811
  20763605.340    -5232264.52549  -4063673.05947  20763604.586    20763609.643
  23378918.279    -1768431.26149  -1372829.97445  23378917.882    23378926.518
 04  7 22 16 33 30.0000000  0  8G22G18G21G19G15G 3G14G 9
  20700982.245      745232.72549    572336.63748  20700981.789    20700985.004
  22282471.591     3846439.20549   2857790.47946  22282470.926    22282476.524
  23162732.826     5210178.34449   4050408.62645  23162731.954    23162739.225
  22307238.985    -4271858.67849  -3318598.71647  22307237.890    22307242.557
  20096395.423       96155.55449     77017.04248  20096394.466    20096400.719
  21902675.260     1511522.72249   1176985.38047  21902674.824    21902681.426
  20753395.054    -5285919.54549  -4105482.14347  20753394.344    20753399.469
  23379228.335    -1766803.20149  -1371561.36445  23379227.867    23379236.318
 04  7 22 16 34  0.0000000  0  8G22G18G21G19G15G 3G14G 9
  20706271.341      773026.90149    593994.41248  20706270.897    20706274.090
  22295670.635     3915800.06749   2911837.85146  22295669.998    22295675.508
  23180458.558     5303326.71849   4122991.63845  23180457.583    23180464.859
  22300210.316    -4308794.86249  -3347380.16347  22300209.156    22300213.784
  20101103.533      120897.32049     96296.32248  20101102.646    20101108.968
  21911785.183     1559394.98249   1214288.39247  21911784.707    21911791.303
  20743281.497    -5339066.61149  -4146895.42647  20743280.776    20743285.944
  23379655.751    -1764557.99749  -1369811.87945  23379655.161    23379663.328
 04  7 22 16 34 30.0000000  0  8G22G18G21G19G15G 3G14G 9
  20711606.287      801062.41549    615840.24548  20711605.864    20711609.108
  22308894.672     3985291.17049   2965986.68946  22308893.874    22308899.429
  23198229.222     5396711.66249   4195759.00945  23198228.341    23198235.615
  22293286.835    -4345178.12149  -3375730.76247  22293285.729    22293290.313
  20105899.445      146100.27749    115934.97248  20105898.586    20105904.973
  21920985.918     1607744.97649   1251963.65247  21920985.398    21920992.051
  20733264.836    -5391704.42549  -4187911.88647  20733264.130    20733269.276
  23380200.647    -1761694.72549  -1367580.76645  23380200.244    23380207.973
 04  7 22 16 35  0.0000000  0  8G22G18G21G19G15G 3G14G 9
  20716987.114      829338.80949    637873.77948  20716986.678    20716989.971
  22322143.103     4054912.14949   3020236.75846  22322142.352    22322148.015
  23216045.124     5490333.00549   4268710.53145  23216044.046    23216051.194
  22286468.856    -4381006.80249  -3403649.21947  22286467.679    22286472.349
  20110783.335      171765.26549    135933.65048  20110782.515    20110788.858
  21930277.329     1656570.97749   1290009.83547  21930276.765    21930283.429
  20723345.392    -5443831.32249  -4228530.23647  20723344.727    20723349.813
  23380863.252    -1758212.71349  -1364867.53945  23380862.786    23380870.439
 04  7 22 16 35 30.0000000  0  8G22G18G21G19G15G 3G14G 9
  20722413.780      857855.78949    660094.77548  20722413.372    20722416.596
  22335416.067     4124662.64949   3074587.73846  22335415.374    22335421.255
  23233905.381     5584189.46349   4341845.33845  23233904.542    23233911.519
  22279756.827    -4416279.16449  -3431134.17747  22279755.646    22279760.244
  20115755.345      197892.94049    156292.86648  20115754.453    20115760.734
  21939659.017     1705871.38649   1328425.69147  21939658.381    21939665.013
  20713523.490    -5495445.80349  -4268749.28647  20713522.797    20713527.915
  23381643.876    -1754111.15449  -1361671.48445  23381643.326    23381650.876
 04  7 22 16 36  0.0000000  0  8G22G18G21G19G15G 3G14G 9
  20727886.007      886612.45849    682502.54448  20727885.583    20727888.835
  22348713.579     4194541.98349   3129039.10446  22348712.958    22348718.928
  23251810.338     5678280.44349   4415162.82445  23251809.427    23251816.734
  22273150.833    -4450993.88749  -3458184.60547  22273149.629    22273154.326
  20120815.528      224483.73849    177012.95448  20120814.590    20120820.803
  21949130.416     1755644.27749   1367209.70847  21949129.794    21949136.509
  20703799.254    -5546546.86449  -4308568.27747  20703798.588    20703803.733
  23382542.240    -1749389.28049  -1357992.11545  23382541.733    23382549.512
 04  7 22 16 36 30.0000000  0  8G22G18G21G19G15G 3G14G 9
  20733403.693      915608.03449    705096.47648  20733403.264    20733406.542
  22362035.445     4264549.37549   3183590.26646  22362034.865    22362040.940
  23269759.710     5772604.29849   4488661.78245  23269758.731    23269766.197
  22266651.134    -4485149.81349  -3484799.61647  22266649.939    22266654.723
  20125963.721      251537.76349    198094.00348  20125962.836    20125968.985
  21958691.346     1805887.48349   1406360.20447  21958690.825    21958697.572
  20694172.961    -5597133.32349  -4347986.28448  20694172.342    20694177.435
  23383558.809    -1744046.83449  -1353829.16245  23383558.350    23383566.328
 04  7 22 16 37  0.0000000  0  8G22G18G21G19G15G 3G14G 9
  20738966.598      944841.09949    727875.46248  20738966.152    20738969.483
  22375381.609     4334683.56649   3238240.22946  22375380.926    22375386.999
  23287753.127     5867159.56249   4562341.08245  23287752.274    23287759.609
  22260257.806    -4518746.58949  -3510978.93247  22260256.675    22260261.383
  20131200.104      279054.83449    219535.85448  20131199.201    20131205.354
  21968341.362     1856598.33249   1445875.09047  21968340.824    21968347.628
  20684644.774    -5647204.64449  -4387002.88148  20684644.079    20684649.172
  23384693.439    -1738084.14849  -1349182.90545  23384693.004    23384701.144
 04  7 22 16 37 30.0000000  0  8G22G18G21G19G15G 3G14G 9
  20744574.592      974310.80249    750838.84348  20744574.120    20744577.360
  22388751.728     4404943.75749   3292988.38846  22388751.010    22388757.017
  23305790.481     5961944.99149   4636199.70545  23305789.428    23305796.756
  22253971.199    -4551783.09249  -3536721.65947  22253970.077    22253974.796
  20136524.534      307035.19149    241338.71548  20136523.655    20136529.904
  21978079.931     1907774.83049   1485752.83447  21978079.412    21978086.260
  20675214.718    -5696760.05149  -4425617.46448  20675214.017    20675219.071
  23385946.124    -1731500.62249  -1344052.89845  23385945.857    23385954.229
 04  7 22 16 38  0.0000000  0  8G22G18G21G19G15G 3G14G 9
  20750227.391     1004016.21249    773985.88748  20750226.887    20750230.177
  22402145.609     4475329.02149   3347833.98746  22402144.908    22402150.923
  23323871.155     6056959.17549   4710236.57145  23323870.051    23323877.543
  22247791.501    -4584258.14949  -3562026.90847  22247790.276    22247794.921
  20141937.151      335479.05049    263502.74148  20141936.298    20141942.593
  21987906.780     1959414.65649   1525991.60747  21987906.209    21987913.069
  20665882.959    -5745798.74449  -4463829.41548  20665882.247    20665887.280
  23387317.019    -1724296.12349  -1338439.01145  23387316.797    23387325.416
 04  7 22 16 38 30.0000000  0  8G22G18G21G19G15G 3G14G 9
  20755924.773     1033956.63049    797316.05248  20755924.352    20755927.672
  22415563.198     4545838.64749   3402776.49946  22415562.529    22415568.434
  23341995.196     6152201.17049   4784450.96545  23341994.123    23342001.715
  22241718.698    -4616170.60549  -3586893.75247  22241717.489    22241722.194
  20147438.121      364386.58149    286028.07748  20147437.259    20147443.590
  21997821.325     2011515.35849   1566589.50947  21997820.685    21997827.561
  20656649.749    -5794319.64349  -4501637.88748  20656649.040    20656654.050
  23388806.399    -1716470.24549  -1332340.91845  23388806.166    23388814.629
 04  7 22 16 39  0.0000000  0  8G22G18G21G19G15G 3G14G 9
  20761667.042     1064131.70749    820829.07948  20761666.557    20761669.861
  22429004.569     4616472.07949   3457815.46946  22429003.744    22429009.541
  23360162.033     6247669.95049   4858842.06945  23360161.356    23360168.933
  22235753.320    -4647518.99949  -3611321.08047  22235752.199    22235756.746
  20153027.341      393758.32249    308915.12848  20153026.500    20153032.862
  22007823.280     2064075.28649   1607545.24747  22007822.611    22007829.538
  20647515.314    -5842321.26649  -4539041.73148  20647514.613    20647519.583
  23390414.219    -1708022.51949  -1325758.31445  23390413.783    23390422.142
 04  7 22 16 39 30.0000000  0  8G22G18G21G19G15G 3G14G 9
  20767453.605     1094540.30349    844524.05848  20767453.141    20767456.443
  22442469.077     4687228.39549   3512950.20346  22442468.272    22442474.054
  23378372.041     6343364.19249   4933408.88145  23378371.439    23378379.012
  22229895.494    -4678302.69649  -3635308.38147  22229894.304    22229898.830
  20158704.996      423594.51049    332164.08348  20158704.189    20158710.538
  22017912.039     2117092.37949   1648857.20247  22017911.387    22017918.348
  20638479.802    -5889803.09449  -4576040.54148  20638479.138    20638484.092
  23392140.179    -1698952.92049  -1318691.09445  23392139.729    23392147.982
 04  7 22 16 40  0.0000000  0  8G22G18G21G19G15G 3G14G 9
  20773284.399     1125181.56249    868400.34148  20773283.965    20773287.270
  22455957.052     4758107.49349   3568180.61646  22455956.294    22455961.949
  23396625.235     6439282.90549   5008150.60145  23396624.343    23396631.875
  22224145.202    -4708520.12949  -3658854.44147  22224144.105    22224148.669
  20164471.235      453895.41649    355775.15748  20164470.387    20164476.634
  22028087.416     2170564.62449   1690523.84147  22028086.833    22028093.808
  20629543.505    -5936763.93449  -4612633.38248  20629542.805    20629547.761
  23393984.665    -1689261.09249  -1311139.05145  23393984.132    23393992.179
 04  7 22 16 40 30.0000000  0  8G22G18G21G19G15G 3G14G 9
  20779159.373     1156054.77349    892457.35248  20779158.957    20779162.289
  22469468.055     4829107.98749   3623505.63346  22469467.291    22469472.896
  23414920.392     6535424.80749   5083066.22045  23414919.559    23414927.297
  22218502.884    -4738170.80049  -3681958.86247  22218501.771    22218506.344
  20170325.788      484660.88849    379748.22948  20170324.914    20170331.117
  22038348.970     2224489.32749   1732543.03747  22038348.399    22038355.402
  20620706.456    -5983202.85549  -4648819.54148  20620705.752    20620710.725
  23395947.384    -1678946.91649  -1303102.06045  23395946.852    23395954.621
 04  7 22 16 41  0.0000000  0  8G22G18G21G19G15G 3G14G 9
  20785078.402     1187159.28249    916694.61448  20785078.000    20785081.332
  22483002.084     4900229.43949   3678924.90146  22483001.292    22483006.900
  23433257.832     6631788.23049   5158154.47445  23433256.983    23433264.684
  22212968.610    -4767253.26549  -3704620.52247  22212967.602    22212972.187
  20176268.734      515891.31949    404083.59848  20176267.851    20176274.094
  22048696.225     2278864.52749   1774913.26947  22048695.685    22048702.684
  20611968.914    -6029118.99849  -4684598.32948  20611968.191    20611973.125
  23398028.527    -1668010.32749  -1294580.05345  23398028.003    23398035.672
 04  7 22 16 41 30.0000000  0  8G22G18G21G19G15G 3G14G 9
  20791041.334     1218494.32449    941111.50148  20791040.922    20791044.264
  22496559.058     4971471.34949   3734438.03646  22496558.217    22496563.894
  23451637.512     6728372.80249   5233415.02745  23451636.560    23451644.205
  22207542.784    -4795766.82349  -3726838.88247  22207541.699    22207546.271
  20182300.177      547586.90649    428781.42848  20182299.285    20182305.555
  22059128.969     2333688.00049   1817632.80247  22059128.323    22059135.324
  20603330.943    -6074511.60749  -4719969.17948  20603330.251    20603335.160
  23400227.850    -1656451.01249  -1285572.78645  23400227.471    23400235.237
 04  7 22 16 42  0.0000000  0  8G22G18G21G19G15G 3G14G 9
  20797047.924     1250059.39749    965707.63148  20797047.543    20797050.919
  22510138.618     5042833.04049   3790044.51246  22510137.896    22510143.605
  23470058.630     6825177.40749   5308847.03445  23470057.926    23470065.783
  22202225.411    -4823710.18749  -3748612.92947  22202224.290    22202228.783
  20188420.249      579748.07649    453842.05448  20188419.378    20188425.695
  22069646.584     2388957.78149   1860700.11047  22069645.902    22069652.902
  20594792.938    -6119379.33449  -4754931.02448  20594792.202    20594797.117
  23402545.897    -1644268.59149  -1276080.00445  23402545.585    23402553.564
 04  7 22 16 42 30.0000000  0  8G22G18G21G19G15G 3G14G 9
  20803098.087     1281852.81949    990481.70048  20803097.695    20803101.011
  22523740.836     5114313.20549   3845743.30546  22523740.119    22523745.871
  23488521.607     6922200.03649   5384448.94845  23488520.945    23488528.775
  22197016.535    -4851083.03949  -3769942.40747  22197015.336    22197019.916
  20194628.840      612374.23549    479265.00948  20194627.960    20194634.289
  22080248.482     2444670.55049   1904112.60447  22080247.812    22080254.761
  20586354.719    -6163722.23649  -4789483.91348  20586354.044    20586358.960
  23404982.811    -1631463.77349  -1266102.25345  23404982.317    23404990.341
 04  7 22 16 43  0.0000000  0  8G22G18G21G19G15G 3G14G 9
  20809191.624     1313874.22849   1015433.41848  20809191.217    20809194.529
  22537365.342     5185910.98449   3901533.74746  22537364.717    22537370.602
  23507026.033     7019439.46949   5460219.80845  23507025.195    23507033.009
  22191916.529    -4877884.19149  -3790826.43547  22191915.226    22191919.783
  20200926.026      645465.75149    505050.58048  20200925.130    20200931.473
  22090934.301     2500824.51849   1947868.88447  22090933.615    22090940.494
  20578016.640    -6207539.25949  -4823627.03148  20578015.946    20578020.829
  23407537.926    -1618036.30949  -1255639.28345  23407537.331    23407545.520
 04  7 22 16 43 30.0000000  0  8G22G18G21G19G15G 3G14G 9
  20815328.374     1346123.17049   1040562.43148  20815327.988    20815331.377
  22551012.350     5257626.58549   3957415.98246  22551011.699    22551017.737
  23525571.149     7116894.93949   5536158.99745  23525570.316    23525578.181
  22186925.374    -4904112.58849  -3811264.13247  22186924.182    22186928.696
  20207311.827      679023.05349    531199.09948  20207310.930    20207317.262
  22101703.686     2557417.77949   1991967.46947  22101703.009    22101709.833
  20569778.804    -6250829.33649  -4857359.53848  20569778.089    20569783.017
  23410211.348    -1603985.86449  -1244690.91245  23410210.908    23410219.234
 04  7 22 16 44  0.0000000  0  8G22G18G21G19G15G 3G14G 9
  20821508.272     1378598.89649   1065868.15748  20821507.890    20821511.302
  22564681.812     5329459.13549   4013389.34546  22564681.106    22564687.265
  23544157.277     7214565.19649   5612265.52345  23544156.459    23544164.482
  22182043.563    -4929767.25649  -3831254.77547  22182042.272    22182046.867
  20213786.293      713046.12549    557710.54948  20213785.348    20213791.692
  22112556.197     2614448.16949   2036406.68047  22112555.556    22112562.422
  20561641.298    -6293591.60849  -4890680.77648  20561640.642    20561645.635
  23413003.664    -1589312.48349  -1233257.11045  23413003.095    23413011.609
 04  7 22 16 44 30.0000000  0  8G22G18G21G19G15G 3G14G 9
  20827730.970     1411299.28649   1091348.95448  20827730.622    20827734.034
  22578373.102     5401406.66249   4069452.31746  22578372.388    22578378.572
  23562783.910     7312447.56749   5688537.35945  23562782.985    23562791.099
  22177270.603    -4954848.66349  -3850798.72947  22177269.426    22177274.054
  20220349.086      747533.89949    584584.11548  20220348.114    20220354.470
  22123491.279     2671912.02149   2081183.66447  22123490.626    22123497.461
  20553604.327    -6335826.62349  -4923591.15148  20553603.626    20553608.612
  23415914.669    -1574017.55249  -1221339.00345  23415913.800    23415922.220
 04  7 22 16 45  0.0000000  0  8G22G18G21G19G15G 3G14G 9
  20833996.622     1444225.03349   1117005.34148  20833996.244    20833999.597
  22592086.167     5473469.76149   4125605.32946  22592085.505    22592091.764
  23581450.876     7410542.50349   5764974.81545  23581450.022    23581458.067
  22172607.342    -4979354.77149  -3869894.40547  22172606.094    22172610.796
  20227000.547      782487.83049    611820.90748  20226999.629    20227005.996
  22134508.514     2729808.24549   2126297.54646  22134507.899    22134514.807
  20545667.975    -6377532.35349  -4956089.11148  20545667.310    20545672.226
  23418944.084    -1558099.39449  -1208935.25545  23418943.043    23418951.622
 04  7 22 16 45 30.0000000  0  8G22G18G21G19G15G 3G14G 9
  20840304.918     1477374.90849   1142836.38648  20840304.487    20840307.857
  22605821.381     5545647.48949   4181847.69346  22605820.576    22605826.760
  23600157.852     7508848.10649   5841576.46245  23600157.091    23600165.164
  22168053.523    -5003284.90849  -3888541.26247  22168052.347    22168057.094
  20233740.815      817907.61049    639420.71548  20233739.853    20233746.179
  22145607.476     2788134.14949   2171746.24547  22145606.985    22145613.948
  20537832.512    -6418708.34949  -4988174.27748  20537831.735    20537836.675
  23422091.971    -1541558.68249  -1196046.38745  23422091.024    23422099.501
 04  7 22 16 46  0.0000000  0  8G22G18G21G19G15G 3G14G 9
  20846655.697     1510748.44349   1168841.70548  20846655.301    20846658.724
  22619578.054     5617939.23749   4238178.88046  22619577.252    22619583.561
  23618904.837     7607363.03549   5918341.17745  23618904.033    23618911.942
  22163609.424    -5026638.48449  -3906738.87147  22163608.234    22163613.135
  20240569.693      853793.20449    667383.48348  20240568.706    20240575.065
  22156787.889     2846887.37449   2217527.94047  22156787.445    22156794.436
  20530097.904    -6459354.00649  -5019846.20248  20530097.159    20530102.088
  23425358.161    -1524395.66849  -1182672.58845  23425357.192    23425365.480
 04  7 22 16 46 30.0000000  0  8G22G18G21G19G15G 3G14G 9
  20853048.945     1544344.90049   1195020.73247  20853048.515    20853051.952
  22633356.464     5690344.83849   4294598.79446  22633355.624    22633362.000
  23637691.386     7706086.30849   5995268.28745  23637690.557    23637698.519
  22159275.395    -5049414.38549  -3924486.32947  22159274.213    22159279.034
  20247487.259      890144.76949    695709.34848  20247486.237    20247492.566
  22168049.369     2906065.90249   2263641.03847  22168048.829    22168055.715
  20522464.380    -6499468.47849  -5051104.21448  20522463.624    20522468.560
  23428742.766    -1506610.22049  -1168813.77245  23428741.550    23428750.062
 04  7 22 16 47  0.0000000  0  8G22G18G21G19G15G 3G14G 9
  20859484.198     1578162.42449   1221372.01547  20859483.830    20859487.216
  22647156.288     5762862.41449   4351105.94746  22647155.411    22647161.789
  23656517.330     7805015.59549   6072355.89245  23656516.315    23656524.491
  22155051.213    -5071613.05549  -3941784.00947  22155049.988    22155054.819
  20254493.268      926961.50149    724397.67648  20254492.237    20254498.590
  22179391.003     2965666.34549   2310082.89647  22179390.407    22179397.389
  20514931.815    -6539052.12249  -5081948.59348  20514931.069    20514936.030
  23432245.461    -1488203.50749  -1154470.91045  23432244.375    23432252.694
 04  7 22 16 47 30.0000000  0  8G22G18G21G19G15G 3G14G 9
  20865961.597     1612201.15149   1247895.67347  20865961.186    20865964.587
  22660977.256     5835491.77649   4407700.21546  22660976.432    22660982.710
  23675382.087     7904150.65749   6149603.88144  23675381.106    23675389.404
  22150937.129    -5093233.00049  -3958630.71847  22150935.846    22150940.662
  20261587.801      964243.88949    753448.85048  20261586.825    20261593.242
  22190812.605     3025686.96249   2356852.15647  22190812.050    22190819.044
  20507500.477    -6578103.53449  -5112378.24448  20507499.783    20507504.725
  23435866.260    -1469175.10049  -1139643.53045  23435865.178    23435873.722
 04  7 22 16 48  0.0000000  0  8G22G18G21G19G15G 3G14G 9
  20872481.015     1646460.75849   1274591.42947  20872480.562    20872484.015
  22674819.542     5908232.82049   4464381.50346  22674818.680    22674824.963
  23694286.149     8003490.32548   6227011.19044                  23694279.021
  22146933.386    -5114273.08449  -3975025.59347  22146932.048    22146936.781
  20268771.032     1001992.39249    782863.23248  20268770.122    20268776.513
  22202313.718     3086125.55149   2403947.10547  22202313.148    22202320.181
  20500170.726    -6616621.83149  -5142392.48548  20500170.008    20500174.932
  23439605.370    -1449524.87049  -1124331.62645  23439604.420    23439612.859
 04  7 22 16 48 30.0000000  0  8G22G18G21G19G15G 3G14G 9
  20879042.474     1680941.33049   1301459.37547  20879042.060    20879045.510
  22688683.182     5981085.78749   4521150.01146  22688682.262    22688688.356
  23713227.676     8103034.19848   6304577.77244                  23713225.676
  22143040.119    -5134731.90549  -3990967.53847  22143038.893    22143043.535
  20276043.250     1040207.81249    812641.44648  20276042.338    20276048.704
  22213894.089     3146980.44749   2451366.44247  22213893.422    22213900.547
  20492942.612    -6654605.66349  -5171990.25748  20492941.891    20492946.835
  23443462.352    -1429252.45949  -1108534.94445  23443461.748    23443470.495
 04  7 22 16 49  0.0000000  0  8G22G18G21G19G15G 3G14G 9
  20885645.630     1715641.04649   1328498.09047  20885645.219    20885648.691
  22702567.613     6054049.17749   4578004.57646  22702566.780    22702572.800
  23732208.825     8202779.67149   6382301.35844  23732208.755    23732216.925
  22139257.471    -5154609.78649  -4006456.80347  22139256.282    22139260.929
  20283404.170     1078889.17849    842782.74548  20283403.212    20283409.571
  22225552.971     3208248.43849   2499107.68547  22225552.410    22225559.519
  20485816.177    -6692055.09549  -5201171.61148  20485815.485    20485820.424
  23447438.188    -1408358.94149  -1092254.23445  23447437.737    23447446.380
 04  7 22 16 49 30.0000000  0  8G22G18G21G19G15G 3G14G 9
  20892290.345     1750559.01649   1355706.86447  20892289.909    20892293.381
  22716472.862     6127121.98949   4634944.38946  22716472.044    22716478.144
  23751228.834     8302725.76448   6460181.26144  23751227.376    23751237.070
  22135585.433    -5173906.38649  -4021493.12647  22135584.234    22135588.881
  20290853.657     1118036.25249    873286.92548  20290852.695    20290859.063
  22237289.959     3269926.80049   2547168.68647  22237289.425    22237296.582
  20478791.530    -6728969.98649  -5229936.44348  20478790.838    20478795.762
  23451531.828    -1386844.80449  -1075489.93145  23451531.512    23451540.175
 04  7 22 16 50  0.0000000  0  8G22G18G21G19G15G 3G14G 9
  20898976.304     1785693.71549   1383084.52547  20898975.840    20898979.283
  22730398.905     6200302.67949   4691968.26246  22730398.002    22730403.964
  23770285.381     8402869.87749   6538215.51944                  23770283.666
  22132024.045    -5192622.09849  -4036076.80047  22132022.830    22132027.447
  20298391.429     1157648.01849    904153.20148  20298390.557    20298396.979
  22249104.331     3332012.04749   2595546.75847  22249103.866    22249111.108
  20471868.535    -6765350.68849  -5258285.02848  20471867.821    20471872.706
  23455743.505    -1364711.52049  -1058243.19945  23455743.317    23455751.644
 04  7 22 16 50 30.0000000  0  8G22G18G21G19G15G 3G14G 9
  20905703.601     1821045.60449   1410631.42747  20905703.103    20905706.604
  22744345.654     6273592.52349   4749077.19446  22744344.708    22744350.589
                   8503212.25048   6616404.25744
  22128573.475    -5210754.95449  -4050206.31047  22128572.318    22128576.958
  20306017.994     1197725.76349    935382.57848  20306017.107    20306023.604
  22260996.094     3394503.20049   2644241.11947  22260995.653    22261002.912
  20465047.417    -6801195.63349  -5286216.12848  20465046.733    20465051.641
  23460073.101    -1341958.02149  -1040513.19245  23460073.039    23460081.551
 04  7 22 16 51  0.0000000  0  8G22G18G21G19G15G 3G14G 9
  20912471.834     1856612.88849   1438346.16447  20912471.367    20912474.896
  22758312.668     6346989.10249   4806269.31246  22758311.699    22758317.465
                   8603749.59848   6694744.84143
  22125233.620    -5228305.84849  -4063882.34347  22125232.480    22125237.172
  20313732.925     1238267.92449    966973.83448  20313732.026    20313738.560
  22272964.515     3457396.51049   2693248.84546  22272963.928    22272971.168
  20458328.187    -6836505.40649  -5313730.21748  20458327.485    20458332.369
  23464520.692    -1318586.03549  -1022301.20045  23464520.620    23464528.950
 04  7 22 16 51 30.0000000  0  8G22G18G21G19G15G 3G14G 9
  20919281.145     1892396.08149   1466229.14447  20919280.693    20919284.205
  22772299.845     6420493.02449   4863545.04246  22772298.926    22772304.842
                   8704482.58448   6773237.62843
  22122004.872    -5245272.83449  -4077103.38447  22122003.746    22122008.441
  20321536.484     1279275.69649    998927.90948  20321535.623    20321542.089
  22285008.996     3520690.71649   2742568.96146  22285008.400    22285015.626
  20451711.077    -6871278.37149  -5340826.02048  20451710.415    20451715.259
  23469086.235    -1294594.64249  -1003606.56645  23469086.090    23469094.237
 04  7 22 16 52  0.0000000  0  7G22G18G19G15G 3G14G 9
  20926131.493     1928394.74949   1494280.03347  20926131.031    20926134.528
  22786307.599     6494104.03849   4920904.25746  22786306.678    22786312.574
  22118887.386    -5261655.26749  -4089868.92547  22118886.273    22118891.009
  20329428.645     1320749.11649   1031244.83048  20329427.770    20329434.191
  22297129.267     3584383.60949   2792199.73646  22297128.749    22297135.971
  20445196.224    -6905513.64249  -5367502.82948  20445195.606    20445200.483
  23473769.400    -1269984.28349   -984429.64045  23473769.337    23473777.320
 04  7 22 16 52 30.0000000  0  7G22G18G19G15G 3G14G 9
  20933023.037     1964609.61349   1522499.37947  20933022.540    20933026.040
  22800336.049     6567823.33249   4978347.83546  22800335.106    22800340.956
  22115881.675    -5277450.89549  -4102177.23047  22115880.485    22115885.141
  20337409.717     1362689.80749   1063925.85348  20337408.845    20337415.287
  22309325.432     3648474.14449   2842140.35346  22309324.845    22309332.101
  20438784.150    -6939209.36849  -5393759.21748  20438783.515    20438788.405
  23478570.862    -1244753.87849   -964769.55245  23478570.494    23478578.471
 04  7 22 16 53  0.0000000  0  7G22G18G19G15G 3G14G 9
  20939954.694     2001035.65049   1550883.28647  20939954.181    20939957.685
  22814384.306     6641645.98649   5035871.93546  22814383.201    22814388.969
  22112986.674    -5292663.85849  -4114031.49647  22112985.509    22112990.197
  20345478.816     1405093.23449   1096967.45248  20345477.949    20345484.420
  22321596.019     3712955.69749   2892385.66646  22321595.391    22321602.649
  20432474.027    -6972369.53849  -5419598.28748  20432473.363    20432478.228
  23483488.957    -1218908.07749   -944629.90845  23483488.589    23483496.711
 04  7 22 16 53 30.0000000  0  7G22G18G19G15G 3G14G 9
  20946926.662     2037673.70649   1579432.39647  20946926.195    20946929.721
  22828452.121     6715572.69949   5093477.14546  22828451.052    22828456.710
  22110203.027    -5307292.40849  -4125430.36947  22110201.846    22110206.408
  20353636.251     1447960.51749   1130370.49648  20353635.391    20353641.898
  22333940.625     3777826.72549   2942934.45246  22333940.015    22333947.293
  20426266.104    -7004992.46949  -5445018.73348  20426265.411    20426270.289
  23488524.666    -1192446.14449   -924010.24545  23488524.402    23488532.139
 04  7 22 16 54  0.0000000  0  7G22G18G19G15G 3G14G 9
  20953938.872     2074523.01649   1608146.12447  20953938.440    20953941.931
  22842539.475     6789602.87149   5151162.94046  22842538.569    22842544.194
  22107530.696    -5321336.05249  -4136373.48747  22107529.456    22107533.942
  20361881.939     1491291.36449   1164134.75848  20361881.063    20361887.534
  22346358.809     3843084.78249   2993784.83246  22346358.268    22346365.515
  20420160.466    -7037077.80549  -5470020.27548  20420159.758    20420164.638
  23493677.874    -1165368.61149   -902910.84945  23493677.196    23493684.976
 04  7 22 16 54 30.0000000  0  7G22G18G19G15G 3G14G 9
  20960991.208     2111583.10449   1637024.09247  20960990.738    20960994.278
  22856646.789     6863735.79449   5208928.82346  22856645.693    22856651.198
  22104969.589    -5334794.28849  -4146860.42447  22104968.379    22104972.960
  20370215.876     1535085.98349   1198260.40848  20370214.914    20370221.364
  22358850.216     3908727.67049   3044935.07746  22358849.700    22358856.987
  20414157.243    -7068624.78749  -5494602.31348  20414156.573    20414161.436
  23498947.942    -1137675.90449   -881332.08645  23498947.017    23498954.714
 04  7 22 16 55  0.0000000  0  7G22G18G19G15G 3G14G 9
  20968083.458     2148853.27449   1666065.76647  20968083.068    20968086.580
  22870773.447     6937970.94749   5266774.35746  22870772.264    22870777.681
  22102520.022    -5347666.76449  -4156890.94347  22102518.835    22102523.518
  20378637.820     1579343.90349   1232747.06948  20378636.903    20378643.383
  22371414.350     3974752.57449   3096382.99546  22371413.832    22371421.137
  20408256.545    -7099633.15549  -5518764.65448  20408255.849    20408260.714
  23504335.041    -1109368.77249   -859274.54145  23504333.858    23504341.373
 04  7 22 16 55 30.0000000  0  7G22G18G19G15G 3G14G 9
  20975215.696     2186333.57849   1695271.17747  20975215.311    20975218.830
  22884919.472     7012309.10049   5324700.17846  22884918.331    22884923.703
  22100182.127    -5359952.55949  -4166464.31047  22100180.913    22100185.634
  20387148.026     1624065.92849   1267595.36648  20387147.251    20387153.734
  22384050.827     4041157.82549   3148127.29646  22384050.364    22384057.580
  20402458.574    -7130101.91849  -5542506.53048  20402457.872    20402462.644
  23509838.860    -1080447.04449   -836738.08745  23509837.687    23509845.148
 04  7 22 16 56  0.0000000  0  7G22G18G19G15G 3G14G 9
  20982387.841     2224023.43349   1724639.87147  20982387.495    20982391.017
  22899084.927     7086749.38849   5382705.55546  22899083.874    22899089.237
  22097955.973    -5371651.16049  -4175580.12247  22097954.724    22097959.552
  20395746.756     1669251.66849   1302805.00248  20395745.879    20395752.354
  22396759.229     4107940.55849   3200165.75646  22396758.756    22396765.899
  20396763.208    -7160030.99049  -5565827.86248  20396762.555    20396767.323
  23515459.311    -1050911.57749   -813723.45045  23515458.248    23515465.258
 04  7 22 16 56 30.0000000  0  7G22G18G19G15G 3G14G 9
  20989599.730     2261921.92749   1754171.15747  20989599.353    20989602.882
  22913269.862     7161290.93349   5440789.86346  22913268.784    22913274.078
  22095841.486    -5382762.86349  -4184238.60347  22095840.238    22095845.033
  20404433.456     1714900.49649   1338375.49048  20404432.575    20404439.085
  22409539.004     4175098.25349   3252496.37446  22409538.459    22409545.637
  20391170.638    -7189420.13149  -5588728.46948  20391169.977    20391174.752
  23521196.268    -1020763.42849   -790231.37345  23521195.305    23521202.288
 04  7 22 16 57  0.0000000  0  7G22G18G19G15G 3G14G 9
  20996851.231     2300028.57249   1783864.63047  20996850.853    20996854.452
  22927473.938     7235933.61849   5498952.95046  22927472.871    22927478.322
  22093838.731    -5393286.74049  -4192439.05647  22093837.644    22093842.423
  20413208.329     1761012.34449   1374306.77148  20413207.401    20413213.916
  22422389.624     4242628.59549   3305117.35746  22422389.083    22422396.242
  20385680.890    -7218268.80749  -5611207.93448  20385680.227    20385685.022
  23527049.979     -990002.76449   -766262.02245  23527049.033    23527056.004
 04  7 22 16 57 30.0000000  0  7G22G18G19G15G 3G14G 9
  21004142.074     2338342.25849   1813719.43247  21004141.725    21004145.333
  22941696.966     7310676.16949   5557193.84846  22941695.864    22941701.452
  22091947.966    -5403223.51449  -4200182.00147  22091946.773    22091951.556
  20422071.081     1807586.38449   1410598.19948  20422070.155    20422076.711
  22435310.448     4310528.03449   3358025.95046  22435309.938    22435317.106
  20380293.909    -7246577.73249  -5633266.81748  20380293.237    20380297.991
  23533019.846     -958631.04849   -741816.53945  23533018.949    23533026.127
 04  7 22 16 58  0.0000000  0  7G22G18G19G15G 3G14G 9
  21011472.312     2376862.82149   1843735.44147  21011471.941    21011475.536
  22955938.946     7385518.29349   5615512.35846  22955937.944    22955943.516
  22090168.980    -5412572.53749  -4207466.97647  22090167.765    22090172.463
  20431021.761     1854622.68549   1447249.83648  20431020.898    20431027.469
  22448301.373     4378794.52049   3411220.56346  22448300.755    22448307.943
  20375009.750    -7274346.04549  -5654904.44048  20375009.085    20375013.855
  23539105.932     -926648.97249   -716895.46745  23539104.857    23539112.323
 04  7 22 16 58 30.0000000  0  7G22G18G19G15G 3G14G 9
  21018841.780     2415589.48549   1873912.04647  21018841.389    21018844.977
  22970199.883     7460459.90549   5673908.36946  22970198.862    22970204.370
  22088501.924    -5421333.49949  -4214293.70947  22088500.669    22088505.364
  20440060.437     1902120.96849   1484261.46248  20440059.551    20440066.121
  22461361.371     4447425.42249   3464699.14046  22461360.803    22461368.078
  20369828.489    -7301573.73249  -5676120.79348  20369827.792    20369832.602
  23545307.717     -894057.19949   -691499.25845  23545306.834    23545314.637
 04  7 22 16 59  0.0000000  0  7G22G18G19G15G 3G14G 9
  21026250.337     2454521.63649   1904248.77447  21026249.940    21026253.581
  22984479.641     7535500.14049   5732381.24546  22984478.467    22984484.159
  22086946.772    -5429506.30649  -4220662.14947  22086945.436    22086950.168
  20449186.940     1950081.03249   1521632.91347  20449186.083    20449192.660
  22474490.296     4516418.19549   3518459.68046  22474489.794    22474497.089
  20364750.104    -7328260.52949  -5696915.67648  20364749.457    20364754.246
  23551625.092     -860856.49149   -665628.58945  23551624.540    23551632.519
 04  7 22 16 59 30.0000000  0  7G22G18G19G15G 3G14G 9
  21033697.848     2493658.74149   1934745.20847  21033697.474    21033701.125
  22998777.973     7610639.07449   5790931.02146  22998776.858    22998782.743
  22085503.417    -5437090.68449  -4226572.06947  22085502.215    22085506.889
  20458401.192     1998502.47149   1559363.88347  20458400.364    20458406.961
  22487687.800     4585770.53449   3572500.40646  22487687.138    22487694.535
  20359774.915    -7354405.89049  -5717288.66948  20359774.172    20359778.918
  23558058.793     -827047.36249   -639283.81645  23558058.016    23558066.265
 04  7 22 17  0  0.0000000  0  7G22G18G19G15G 3G14G 9
  21041184.151     2532999.25749   1965400.13847  21041183.761    21041187.380
  23013094.715     7685874.82749   5849556.26646  23013093.667    23013099.770
  22084171.866    -5444087.64949  -4232024.26647  22084170.717    22084175.449
  20467703.072     2047384.03149   1597453.38547  20467702.245    20467708.844
  22500952.780     4655478.43449   3626818.18946  22500952.105    22500959.524
  20354902.403    -7380011.06249  -5737240.73248  20354901.685    20354906.409
  23564607.951     -792632.01849   -612466.61845  23564606.982    23564615.311
 04  7 22 17  0 30.0000000  0  7G22G18G19G15G 3G14G 9
  21048709.318     2572543.90449   1996214.13747  21048708.902    21048712.466
  23027430.087     7761208.32149   5908257.65146  23027429.113    23027435.213
  22082952.536    -5450495.84049  -4237017.69147  22082951.321    22082956.053
  20477092.739     2096726.59249   1635902.11447  20477091.864    20477098.417
  22514285.090     4725540.47349   3681411.93246  22514284.495    22514291.861
  20350132.980    -7405074.46649  -5756770.63748  20350132.247    20350136.992
  23571271.990     -757610.00149   -585176.73845  23571271.299    23571279.852
 04  7 22 17  1  0.0000000  0  7G22G18G19G15G 3G14G 9
  21056272.971     2612290.91049   2027185.81247  21056272.516    21056276.049
  23041783.866     7836637.96549   5967033.92945  23041782.935    23041788.965
  22081845.098    -5456316.25949  -4241553.10047  22081843.788    22081848.460
  20486569.846     2146528.94549   1674709.10847  20486568.924    20486575.534
  22527684.387     4795953.17349   3736278.91746  22527683.649    22527691.082
  20345466.426    -7429597.20849  -5775879.25248  20345465.727    20345470.447
  23578051.396     -721983.24549   -557415.62845  23578050.775    23578059.487
 04  7 22 17  1 30.0000000  0  7G22G18G19G15G 3G14G 9
  21063875.001     2652239.76849   2058314.78147  21063874.553    21063878.134
  23056155.811     7912163.46749   6025884.92245  23056154.916    23056161.069
  22080849.388    -5461548.72449  -4245630.37147  22080848.077    22080852.804
  20496134.315     2196790.51249   1713873.94547  20496133.422    20496140.047
  22541149.574     4866713.54849   3791416.82146  22541148.997    22541156.446
  20340902.814    -7453579.05349  -5794566.38548  20340902.117    20340906.857
  23584945.860     -685752.66049   -529184.02245  23584945.222    23584953.940
 04  7 22 17  2  0.0000000  0  7G22G18G19G15G 3G14G 9
  21071515.340     2692390.33449   2089600.92647  21071514.924    21071518.557
  23070545.714     7987784.61949   6084810.45945  23070544.965    23070551.443
  22079965.589    -5466192.91049  -4249249.23147  22079964.279    22079969.109
  20505786.147     2247511.10649   1753396.46347  20505785.260    20505791.851
  22554680.591     4937819.21549   3846823.78446  22554680.020    22554687.433
  20336442.151    -7477019.75649  -5812831.85048  20336441.485    20336446.207
  23591954.974     -648919.17049   -500482.60845  23591954.400    23591963.008
 04  7 22 17  2 30.0000000  0  7G22G18G19G15G 3G14G 9
  21079194.078     2732742.07349   2121043.82747  21079193.648    21079197.293
  23084953.814     8063501.21349   6143810.36145  23084953.140    23084959.909
  22079193.864    -5470248.59449  -4252409.53147  22079192.513    22079197.405
  20515525.322     2298690.45049   1793276.44347  20515524.408    20515531.010
  22568276.850     5009267.77449   3902497.93246  22568276.237    22568283.630
  20332084.601    -7499919.06849  -5830675.45348  20332083.901    20332088.632
  23599078.526     -611483.73749   -471312.12345  23599078.048    23599086.653
 04  7 22 17  3  0.0000000  0  7G22G18G19G15G 3G14G 9
  21086911.068     2773294.59149   2152643.18247  21086910.586    21086914.204
  23099380.114     8139312.70949   6202884.20145  23099379.493    23099386.356
  22078533.914    -5473715.95149  -4255111.39347  22078532.700    22078537.579
  20525351.745     2350328.41349   1833513.79047  20525350.805    20525357.418
  22581937.896     5081056.91749   3958437.46946  22581937.280    22581944.747
  20327830.088    -7522276.79749  -5848097.04648  20327829.367    20327834.075
  23606316.907     -573447.03349   -441673.18945  23606316.208    23606325.005
 04  7 22 17  3 30.0000000  0  7G22G18G19G15G 3G14G 9
  21094666.018     2814047.16149   2184398.41947  21094665.557    21094669.160
  23113824.218     8215218.65149   6262031.61045  23113823.853    23113830.900
  22077986.120    -5476594.95749  -4257354.79047  22077984.889    22077989.697
  20535265.279     2402424.59249   1874108.18847  20535264.362    20535271.035
  22595663.006     5153183.88049   4014640.23746  22595662.588    22595670.083
  20323678.615    -7544093.07549  -5865096.72548  20323677.851    20323682.545
  23613669.088     -534810.24049   -411566.65045  23613668.567    23613677.431
 04  7 22 17  4  0.0000000  0  7G22G18G19G15G 3G14G 9
  21102458.670     2854997.98849   2216308.14147  21102458.252    21102461.837
  23128286.193     8291217.14549   6321251.19245  23128285.871    23128293.072
  22077549.933    -5478887.02649  -4259140.82547  22077548.741    22077553.546
  20545265.696     2454976.93949   1915058.04047  20545264.769    20545271.445
  22609451.942     5225644.41949   4071102.92446  22609451.432    22609459.031
  20319629.905    -7565369.24449  -5881675.54448  20319629.154    20319633.791
  23621135.275     -495575.88149   -380994.44845  23621134.619    23621143.445
 04  7 22 17  4 30.0000000  0  7G22G18G19G15G 3G14G 9
  21110289.140     2896147.07549   2248372.35947  21110288.691    21110292.273
  23142765.574     8367308.41049   6380543.02745  23142765.427    23142772.902
  22077225.646    -5480591.77149  -4260469.23347  22077224.366    22077229.203
  20555352.982     2507985.77749   1956363.60747  20555352.066    20555358.704
  22623303.793     5298436.51349   4127823.98546  22623303.343    22623310.942
  20315684.057    -7586104.80649  -5897833.10848  20315683.295    20315687.942
  23628714.860     -455744.38949   -349956.92445  23628714.361    23628723.141
 04  7 22 17  5  0.0000000  0  7G22G18G19G15G 3G14G 9
  21118157.289     2937494.42249   2280591.06647  21118156.834    21118160.429
  23157262.884     8443492.78549   6439907.45145  23157262.811    23157270.353
  22077013.226    -5481708.66149  -4261339.55047  22077011.913    22077016.564
  20565527.117     2561451.30449   1998025.03347  20565526.213    20565532.838
  22637218.296     5371558.08249   4184801.77946  22637217.930    22637225.504
  20311841.165    -7606299.04249  -5913568.86148  20311840.446    20311845.099
  23636408.230     -415315.96749   -318454.27445  23636407.706    23636416.162
 04  7 22 17  5 30.0000000  0  7G22G18G19G15G 3G14G 9
  21126062.753     2979038.27149   2312962.89247  21126062.371    21126066.049
  23171777.778     8519768.46249   6499342.99345  23171777.651    23171785.143
  22076912.183    -5482239.35449  -4261753.08847  22076910.903    22076915.708
  20575787.752     2615371.38849   2040040.66347  20575786.879    20575793.498
  22651194.862     5445005.01049   4242033.09646  22651194.514    22651202.071
  20308101.026    -7625953.51249  -5928884.01648  20308100.325    20308104.950
  23644214.602     -374293.42349   -286488.68245  23644214.191    23644222.711
 04  7 22 17  6  0.0000000  0  7G22G18G19G15G 3G14G 9
  21134005.566     3020777.73749   2345487.14747  21134005.123    21134008.827
  23186310.059     8596134.54749   6558848.97145  23186309.811    23186317.140
  22076922.738    -5482184.17549  -4261710.11047  22076921.435    22076926.156
  20586134.842     2669745.28649   2082409.90247  20586133.926    20586140.557
  22665232.941     5518774.49649   4299515.75746  22665232.506    22665240.015
  20304463.517    -7645068.68749  -5943778.94848  20304462.833    20304467.455
  23652133.915     -332678.19149   -254061.20545  23652133.259    23652141.848
 04  7 22 17  6 30.0000000  0  7G22G18G19G15G 3G14G 9
  21141985.521     3062712.94149   2378163.92547  21141985.088    21141988.801
  23200859.586     8672591.36749   6618425.67245  23200859.168    23200866.353
  22077044.815    -5481542.66749  -4261210.25547  22077043.551    22077048.264
  20596568.301     2724573.06049   2125132.82847  20596567.353    20596573.980
  22679331.789     5592864.24249   4357247.99046  22679331.405    22679338.881
  20300928.792    -7663643.85849  -5958253.08848  20300928.070    20300932.733
  23660165.792     -290470.86149   -221172.41745  23660165.059    23660173.780
 04  7 22 17  7  0.0000000  0  7G22G18G19G15G 3G14G 9
  21150002.788     3104843.66849   2410993.06347  21150002.338    21150005.990
  23215426.148     8749138.87249   6678073.04245  23215425.825    23215432.920
  22077278.517    -5480314.85049  -4260253.52547  22077277.259    22077281.943
  20607088.106     2779854.45449   2168209.22447  20607087.070    20607093.732
  22693491.158     5667272.01449   4415228.02146  22693490.683    22693498.221
  20297496.867    -7681678.83349  -5972306.29248  20297496.136    20297500.773
  23668310.354     -247672.27549   -187822.88545  23668309.610    23668317.966
 04  7 22 17  7 30.0000000  0  7G22G18G19G15G 3G14G 9
  21158057.129     3147169.55849   2443974.27447  21158056.672    21158060.296
  23230010.353     8825776.97649   6737790.98345  23230009.858    23230016.621
  22077623.809    -5478500.66049  -4258839.88947  22077622.500    22077627.338
  20617694.066     2835589.32649   2211638.97047  20617693.068    20617699.757
  22707710.447     5741995.14749   4473453.78846  22707710.019    22707717.643
  20294167.671    -7699173.75449  -5985938.68448  20294166.980    20294171.569
  23676567.007     -204283.55249   -154013.52145  23676566.293    23676574.589
 04  7 22 17  8  0.0000000  0  7G22G18G19G15G 3G14G 9
  21166148.311     3189689.02749   2477106.32147  21166147.901    21166151.532
  23244611.501     8902503.95349   6797578.17745  23244610.840    23244617.237
  22078080.421    -5476101.51649  -4256970.44247  22078079.064    22078083.883
  20628386.080     2891775.89349   2255420.69247  20628385.076    20628391.693
  22721989.242     5817029.68849   4531922.18246  22721988.665    22721996.378
  20290941.089    -7716129.78849  -5999151.15948  20290940.354    20290944.910
  23684935.722     -160306.99149   -119746.07345  23684934.871    23684942.952
 04  7 22 17  8 30.0000000  0  7G22G18G19G15G 3G14G 9
  21174276.378     3232402.08749   2510389.21747  21174275.924    21174279.635
  23259229.570     8979320.21449   6857434.96445  23259228.750    23259234.845
  22078648.345    -5473117.10049  -4254644.94347  22078646.961    22078651.926
  20639164.036     2948414.02149   2299554.27847  20639162.955    20639169.584
  22736326.623     5892373.11849   4590631.27646  22736326.109    22736333.855
  20287817.066    -7732546.76649  -6011943.59348  20287816.317    20287820.839
  23693415.989     -115743.41749    -85021.26145  23693415.100    23693422.995
 04  7 22 17  9  0.0000000  0  7G22G18G19G15G 3G14G 9
  21182441.332     3275309.21049   2543823.33847  21182440.881    21182444.642
  23273864.562     9056226.04249   6917361.53345  23273863.669    23273869.527
  22079327.626    -5469546.98749  -4251863.04347  22079326.291    22079331.282
  20650027.922     3005504.22349   2344040.13147  20650026.864    20650033.570
  22750722.217     5968023.95149   4649579.92446  22750721.983    22750729.842
  20284795.791    -7748423.76849  -6024315.26448  20284795.049    20284799.573
  23702007.971      -70593.16349    -49839.26645  23702007.041    23702014.681
 04  7 22 17  9 30.0000000  0  7G22G18G19G15G 3G14G 9
  21190642.925     3318408.89549   2577407.50147  21190642.444    21190646.206
  23288516.381     9133220.41149   6977357.07545  23288515.267    23288521.085
  22080118.090    -5465392.34549  -4248625.68547  22080116.823    22080121.881
  20660977.639     3063045.08949   2388877.14847  20660976.553    20660983.270
  22765176.176     6043978.62249   4708765.31046  22765175.766    22765183.646
  20281876.998    -7763761.99749  -6036267.11848  20281876.249    20281880.771
  23710710.917      -24858.61349    -14201.98645  23710710.058    23710717.544
 04  7 22 17 10  0.0000000  0  7G22G18G19G15G 3G14G 9
  21198881.088     3361700.81949   2611141.46847  21198880.640    21198884.328
  23303184.574     9210302.85949   7037421.28945  23303183.502    23303189.422
  22081019.907    -5460653.65949  -4244933.21347  22081018.629    22081023.487
  20672012.771     3121035.81649   2434064.71747  20672011.814    20672018.538
  22779687.332     6120234.46049   4768185.41946  22779686.831    22779694.646
  20279060.724    -7778561.55249  -6047799.21948  20279059.939    20279064.453
  23719524.821       21458.91449     21889.61645  23719524.044    23719531.628
 04  7 22 17 10 30.0000000  0  7G22G18G19G15G 3G14G 9
  21207155.961     3405185.25949   2645025.44847  21207155.502    21207159.123
  23317869.522     9287473.66349   7097554.33745  23317868.545    23317874.540
  22082033.037    -5455330.59049  -4240785.37047  22082031.667    22082036.368
  20683133.633     3179476.29149   2479602.73647  20683132.695    20683139.413
  22794255.188     6196789.30749   4827838.49446  22794254.766    22794262.592
  20276347.022    -7792822.12849  -6058911.34148  20276346.248    20276350.796
  23728449.622       68358.72749     58434.90445  23728448.746    23728456.465
 04  7 22 17 11  0.0000000  0  7G22G18G19G15G 3G14G 9
  21215467.156     3448860.66349   2679058.22747  21215466.688    21215470.324
  23332571.083     9364731.73349   7157755.36945  23332570.078    23332576.363
  22083157.010    -5449424.26349  -4236183.04747  22083155.669    22083160.288
  20694339.852     3238365.25349   2525490.21647  20694338.887    20694345.625
  22808879.150     6273639.31449   4887721.53446  22808878.842    22808886.663
  20273735.607    -7806544.75249  -6069604.28348  20273734.876    20273739.471
  23737484.936      115838.48449     95432.13745  23737483.921    23737491.562
 04  7 22 17 11 30.0000000  0  7G22G18G19G15G 3G14G 9
  21223814.578     3492726.83049   2713239.65347  21223814.129    21223817.788
  23347288.869     9442076.59449   7218024.04645  23347288.089    23347294.633
  22084391.773    -5442935.01649  -4231126.49947  22084390.475    22084395.165
  20705631.300     3297702.26849   2571726.83947  20705630.360    20705637.091
  22823559.073     6350781.84649   4947832.55646  22823558.549    22823566.395
  20271226.551    -7819729.72749  -6079878.27848  20271225.842    20271230.464
  23746630.290      163897.07449    132880.38345  23746629.210    23746636.627
 04  7 22 17 12  0.0000000  0  7G22G18G19G15G 3G14G 9
  21232198.231     3536783.33949   2747569.39747  21232197.776    21232201.515
  23362023.359     9519508.05249   7278360.19145  23362022.748    23362029.564
  22085737.388    -5435863.32249  -4225616.08847  22085736.073    22085740.956
  20717008.086     3357486.77349   2618312.15547  20717007.044    20717013.680
  22838294.084     6428214.29549   5008169.47746  22838293.548    22838301.370
  20268819.848    -7832377.23349  -6089733.46448  20268819.138    20268823.715
  23755885.577      212533.09449    170778.55645  23755884.523    23755891.861
 04  7 22 17 12 30.0000000  0  7G22G18G19G15G 3G14G 9
  21240617.930     3581029.37749   2782046.82747  21240617.526    21240621.288
  23376774.069     9597025.55449   7338763.39545  23376773.587    23376780.804
  22087193.642    -5428210.04349  -4219652.51547  22087192.445    22087197.529
  20728469.647     3417717.49249   2665245.16747  20728468.600    20728475.257
  22853083.627     6505933.76649   5068730.04646  22853083.140    22853090.896
  20266515.212    -7844488.06349  -6099170.46648  20266514.524    20266519.066
  23765250.293      261744.71849    209125.24745  23765249.250    23765256.635
 04  7 22 17 13  0.0000000  0  7G22G18G19G15G 3G14G 9
  21249073.631     3625464.46149   2816671.55847  21249073.213    21249077.004
  23391541.304     9674628.70149   7399233.30845  23391540.943    23391548.335
  22088760.606    -5419975.64449  -4213236.10547  22088759.400    22088764.447
  20740016.089     3478393.92649   2712525.48047  20740014.986    20740021.652
  22867927.215     6583937.28149   5129511.93346  22867926.744    22867934.443
  20264312.678    -7856062.37549  -6108189.40648  20264312.009    20264316.554
  23774724.161      311530.20649    247919.05845  23774723.012    23774730.376
 04  7 22 17 13 30.0000000  0  8G22G18G11G19G15G 3G14G 9
  21257565.062     3670087.60849   2851442.83347  21257564.724    21257568.528
  23406325.134     9752316.32949   7459769.04245  23406324.618    23406332.012
                  -1428518.51149  -1102138.99244                  24181516.851
  22090438.138    -5411161.32349  -4206367.81047  22090436.878    22090441.689
  20751646.956     3539514.64649   2760152.00747  20751645.885    20751652.580
  22882824.367     6662221.75149   5190512.74446  22882823.890    22882831.489
  20262212.041    -7867101.41149  -6116791.24248  20262211.353    20262215.884
  23784306.424      361887.52049    287158.47845  23784305.429    23784312.932
 04  7 22 17 14  0.0000000  0  8G22G18G11G19G15G 3G14G 9
  21266092.273     3714897.99549   2886360.00947  21266091.901    21266095.645
  23421124.869     9830088.12949   7520370.39545  23421124.363    23421131.702
  24162789.095    -1526905.49649  -1178804.14245  24162789.329    24162794.522
  22092225.563    -5401767.94749  -4199048.31547  22092224.381    22092229.188
  20763362.117     3601078.50549   2808123.82147  20763361.094    20763367.792
  22897774.449     6740783.70749   5251729.79546  22897773.961    22897781.347
  20260213.111    -7877605.84149  -6124976.50948  20260212.447    20260216.945
  23793997.254      412814.57749    326841.88745  23793996.429    23794003.935
 04  7 22 17 14 30.0000000  0  8G22G18G11G19G15G 3G14G 9
  21274654.887     3759894.46749   2921422.18547  21274654.483    21274658.176
  23435940.641     9907942.93849   7581036.42945  23435939.935    23435947.171
  24144088.532    -1625176.44549  -1255378.86545  24144088.655    24144093.779
  22094123.020    -5391796.88649  -4191278.65647  22094121.877    22094126.614
  20775161.490     3663084.16049   2856439.89047  20775160.406    20775167.095
  22912776.536     6819619.57849   5313160.28746  22912776.025    22912783.435
  20258315.721    -7887576.65849  -6132745.97048  20258315.020    20258319.536
  23803796.254      464309.32349    366967.60645  23803795.386    23803802.818
 04  7 22 17 15  0.0000000  0  8G22G18G11G19G15G 3G14G 9
  21283252.859     3805077.02349   2956629.36147  21283252.431    21283256.177
  23450772.071     9985880.84549   7641767.21545  23450771.348    23450778.330
  24125411.005    -1723328.56149  -1331860.96845  24125410.466    24125416.652
  22096130.409    -5381248.30749  -4183058.99047  22096129.178    22096133.889
  20787044.701     3725531.20349   2905099.91047  20787043.679    20787050.363
  22927830.264     6898727.14449   5374802.48246  22927829.703    22927837.233
  20256519.831    -7897013.94449  -6140099.69148  20256519.144    20256523.679
  23813703.126      516370.57949    407534.79945  23813702.398    23813709.659
 04  7 22 17 15 30.0000000  0  8G22G18G11G19G15G 3G14G 9
  21291886.239     3850445.64249   2991981.52947  21291885.824    21291889.583
  23465619.403    10063901.61249   7702562.55245  23465618.530    23465625.198
  24106756.317    -1821359.48849  -1408248.64745  24106755.740    24106761.989
  22098247.544    -5370122.47649  -4174389.51947  22098246.342    22098251.147
  20799011.909     3788419.23549   2954103.54347  20799010.914    20799017.611
  22942935.160     6978103.85749   5436654.40546  22942934.617    22942942.247
  20254825.471    -7905917.76849  -6147037.72748  20254824.807    20254829.351
  23823717.370      568997.26749    448542.57045  23823716.694    23823724.073
 04  7 22 17 16  0.0000000  0  8G22G18G11G19G15G 3G14G 9
  21300555.205     3896001.37149   3027479.48147  21300554.813    21300558.595
  23480482.157    10142006.76449   7763423.65645  23480481.431    23480487.926
  24088125.524    -1919265.62049  -1484539.08545  24088124.609    24088131.340
  22100474.724    -5358418.61349  -4165269.64547  22100473.521    22100478.428
  20811063.171     3851749.07649   3003451.44947  20811062.152    20811068.909
  22958091.132     7057748.38449   5498715.01646  22958090.514    22958098.174
  20253232.865    -7914287.00649  -6153559.20948  20253232.199    20253236.726
  23833839.583      622189.40749    489990.92145  23833838.797    23833846.344
 04  7 22 17 16 30.0000000  0  8G22G18G11G19G15G 3G14G 9
  21309259.681     3941743.73149   3063122.87447  21309259.327    21309263.040
  23495360.959    10220195.74449   7824350.06245  23495360.210    23495366.656
  24069518.327    -2017045.08649  -1560730.81145  24069517.711    24069524.473
  22102811.790    -5346137.64449  -4155700.06847  22102810.583    22102815.514
  20823198.402     3915519.73649   3053142.84947  20823197.380    20823204.074
  22973297.410     7137657.66849   5560981.94446  22973296.808    22973304.408
  20251741.776    -7922122.50149  -6159664.78348  20251741.141    20251745.672
  23844068.835      675944.71549    531878.12545  23844068.035    23844075.727
 04  7 22 17 17  0.0000000  0  8G22G18G11G19G15G 3G14G 9
  21317999.410     3987670.93249   3098910.30147  21317998.987    21318002.673
  23510255.375    10298467.36849   7885340.86245  23510254.640    23510261.323
  24050935.564    -2114696.75149  -1636822.93645  24050935.054    24050941.915
  22105258.384    -5333281.36949  -4145682.20347  22105257.099    22105262.048
  20835417.085     3979729.25149   3103176.22047  20835416.052    20835422.765
  22988553.485     7217828.03049   5623452.30246  22988552.756    22988560.365
  20250352.009    -7929425.86049  -6165355.70948  20250351.363    20250355.891
  23854404.654      730260.58949    574202.18145  23854404.150    23854411.701
 04  7 22 17 17 30.0000000  0  8G22G18G11G19G15G 3G14G 9
  21326774.365     4033783.51049   3134842.16947  21326773.951    21326777.649
  23525165.477    10376822.18049   7946396.50445  23525164.897    23525171.842
  24032377.794    -2212217.62049  -1712813.19845  24032377.561    24032384.185
  22107814.368    -5319849.38949  -4135215.73647  22107813.120    22107818.091
  20847719.223     4044377.81049   3153551.68847  20847718.225    20847725.034
  23003858.645     7298257.54849   5686124.60546  23003857.961    23003865.651
  20249063.609    -7936196.60649  -6170631.61348  20249062.935    20249067.460
  23864846.634      785136.35349    616962.45145  23864846.391    23864854.260
 04  7 22 17 18  0.0000000  0  8G22G18G11G19G15G 3G14G 9
  21335584.397     4080080.37449   3170917.64047  21335583.923    21335587.634
  23540091.549    10455259.03049   8007516.03145  23540090.964    23540097.657
  24013845.449    -2309606.43449  -1788700.49945  24013845.061    24013851.721
  22110479.583    -5305843.19449  -4124301.83347  22110478.334    22110483.378
  20860104.709     4109463.83549   3204268.04447  20860103.751    20860110.527
  23019212.366     7378942.75949   5748996.13646  23019211.831    23019219.667
  20247876.357    -7942435.85249  -6175493.35848  20247875.657    20247880.165
  23875395.012      840569.33049    660156.89845  23875394.817    23875402.869
 04  7 22 17 18 30.0000000  0  8G22G18G11G19G15G 3G14G 9
  21344429.195     4126560.13749   3207135.62647  21344428.749    21344432.426
  23555033.034    10533776.34649   8068698.29145  23555032.460    23555039.152
  23995338.458    -2406861.97049  -1864484.01445  23995338.053    23995344.539
  22113253.683    -5291264.89849  -4112942.12947  22113252.514    22113257.465
  20872573.045     4174985.22949   3255323.64647  20872572.069    20872578.823
  23034614.209     7459879.38649   5812063.57546  23034613.629    23034621.505
  20246789.853    -7948145.36749  -6179942.33048  20246789.160    20246793.678
  23886048.755      896556.65449    703783.28245  23886048.644    23886056.825
 04  7 22 17 19  0.0000000  0  8G22G18G11G19G15G 3G14G 9
  21353308.884     4173222.96149   3243496.25947  21353308.382    21353312.000
  23569989.970    10612374.20549   8129943.28345  23569989.345    23569995.996
  23976856.918    -2503981.81649  -1940161.70345  23976856.658    23976863.210
  22116136.576    -5276114.93649  -4101136.96447  22116135.427    22116140.354
  20885124.210     4240941.77549   3306718.33147  20885123.190    20885129.998
  23050063.404     7541065.44849   5875325.37346  23050062.793    23050070.783
  20245804.072    -7953325.38749  -6183978.70748  20245803.412    20245807.964
  23896807.590      953097.53449    747841.07845  23896807.994    23896816.215
 04  7 22 17 19 30.0000000  0  8G22G18G11G19G15G 3G14G 9
  21362223.148     4220068.04649   3279998.90947  21362222.711    21362226.339
  23584962.435    10691052.26249   8191250.76945  23584961.560    23584967.973
  23958401.754    -2600963.86049  -2015732.07745  23958401.424    23958408.160
  22119128.215    -5260394.27449  -4088887.12047  22119126.977    22119131.915
  20897757.865     4307331.89349   3358450.85547  20897756.874    20897763.665
  23065559.077     7622497.39149   5938778.79046  23065558.786    23065566.794
  20244918.933    -7957976.80349  -6187603.19048  20244918.265    20244922.840
  23907671.974     1010189.23349    792328.01745  23907672.263    23907680.518
 04  7 22 17 20  0.0000000  0  8G22G18G11G19G15G 3G14G 9
  21371172.167     4267095.35449   3316643.56047  21371171.736    21371175.348
  23599949.737    10769810.85849   8252621.03345  23599948.915    23599955.558
  23939973.370    -2697805.76949  -2091193.30545  23939973.171    23939979.719
  22122228.276    -5244103.42449  -4076192.95747  22122227.061    22122232.005
  20910473.864     4374155.10649   3410520.85947  20910472.921    20910479.706
  23081101.554     7704172.58649   6002421.73046  23081101.096    23081109.115
  20244134.300    -7962100.07449  -6190816.12648  20244133.648    20244138.211
  23918640.745     1067830.31949    837243.08745  23918641.208    23918649.357
 04  7 22 17 20 30.0000000  0  8G22G18G11G19G15G 3G14G 9
  21380155.669     4314303.99449   3353429.50047  21380155.266    21380158.906
  23614952.079    10848648.99649   8314053.25745  23614951.190    23614958.288
  23921572.090    -2794506.08849  -2166544.10745  23921571.661    23921578.298
  22125436.591    -5227243.99749  -4063055.75347  22125435.260    22125440.233
  20923271.967     4441410.16949   3462927.36447  20923271.101    20923277.925
  23096689.626     7786088.23949   6066252.03846  23096689.294    23096697.389
  20243450.013    -7965695.98049  -6193618.13748  20243449.372    20243453.917
  23929714.099     1126018.64949    882584.53645  23929714.473    23929722.474
 04  7 22 17 21  0.0000000  0  8G22G18G11G19G15G 3G14G 9
  21389173.552     4361692.92949   3390355.92547  21389173.083    21389176.775
  23629969.490    10927566.08049   8375547.01845  23629968.673    23629975.716
  23903197.950    -2891062.56249  -2241782.88445  23903197.601    23903204.275
  22128752.807    -5209817.04949  -4049476.35647  22128751.474    22128756.506
  20936152.241     4509095.94949   3515669.50147  20936151.364    20936158.191
  23112323.011     7868241.24449   6130267.28146  23112322.552    23112330.670
  20242865.862    -7968765.72449  -6196010.14148  20242865.226    20242869.780
  23940891.300     1184752.34349    928351.00545  23940891.255    23940899.618
 04  7 22 17 21 30.0000000  0  8G22G18G11G19G15G 3G14G 9
  21398225.834     4409262.63749   3427423.21547  21398225.337    21398229.037
  23645001.972    11006562.20649   8437102.33545  23645001.186    23645008.167
  23884851.552    -2987472.63449  -2316907.56245  23884851.381    23884858.146
  22132176.895    -5191823.04349  -4035455.06947  22132175.653    22132180.676
  20949114.362     4577212.08549   3568746.96147  20949113.421    20949120.299
  23128000.770     7950628.84449   6194465.31846  23128000.378    23128008.556
  20242381.824    -7971309.35949  -6197992.20048  20242381.191    20242385.773
  23952171.976     1244029.81749    974541.15345  23952171.836    23952179.856
 04  7 22 17 22  0.0000000  0  8G22G18G11G19G15G 3G14G 9
  21407312.433     4457013.14449   3464631.39747  21407311.986    21407315.636
  23660049.422    11085637.45849   8498719.32745  23660048.689    23660055.835
  23866533.869    -3083733.77949  -2391916.16545  23866533.453    23866540.280
  22135708.902    -5173262.47049  -4020992.30447  22135707.668    22135712.665
  20962158.078     4645757.78549   3622159.15147  20962157.181    20962164.117
  23143722.879     8033248.74449   6258844.38346  23143722.504    23143730.675
  20241997.892    -7973327.11449  -6199564.47848  20241997.267    20242001.815
  23963555.746     1303849.38549   1021153.71145  23963555.435    23963563.113
 04  7 22 17 22 30.0000000  0  8G22G18G11G19G15G 3G14G 9
  21416433.105     4504943.16649   3501979.44547  21416432.672    21416436.376
  23675111.705    11164790.70049   8560397.06045  23675110.981    23675118.075
  23848244.752    -3179844.48049  -2466807.59045  23848244.264    23848251.040
  22139348.362    -5154137.42149  -4006089.68447  22139347.119    22139352.192
  20975283.395     4714731.29549   3675904.70247  20975282.484    20975289.394
  23159488.720     8116097.28749   6323401.60846  23159488.110    23159496.256
  20241713.663    -7974820.80049  -6200728.39448  20241713.014    20241717.533
  23975041.976     1364208.52949   1068186.73945  23975041.792    23975049.261
 04  7 22 17 23  0.0000000  0  8G22G18G11G19G15G 3G14G 9
  21425587.867     4553051.88449   3539466.74247  21425587.435    21425591.150
  23690188.664    11244021.33749   8622135.14645  23690187.924    23690194.936
  23829984.792    -3275803.11749  -2541580.49045  23829984.005    23829990.617
  22143094.759    -5134449.17449  -3990748.21647  22143093.605    22143098.837
  20988489.784     4784131.20949   3729982.51547  20988488.882    20988495.775
  23175297.393     8199171.24849   6388134.47746  23175296.646    23175304.772
  20241528.956    -7975791.39949  -6201484.71148  20241528.331    20241532.859
  23986630.438     1425104.97649   1115638.44744  23986630.051    23986637.786
 04  7 22 17 23 30.0000000  0  8G22G18G11G19G15G 3G14G 9
  21434776.851     4601340.37049   3577094.11847  21434776.433    21434780.130
  23705280.710    11323330.49949   8683934.42045  23705280.016    23705286.991
  23811753.979    -3371606.29349  -2616232.25045  23811753.246    23811759.880
  22146948.718    -5114197.23749  -3974967.50447  22146947.507    22146952.654
  21001777.271     4853957.99049   3784392.94347  21001776.453    21001783.416
  23191148.435     8282469.22849   6453041.92646  23191147.782    23191156.022
  20241443.970    -7976238.20349  -6201832.87348  20241443.310    20241447.833
  23998321.038     1486537.99349   1163508.22144  23998320.379    23998328.077
 04  7 22 17 24  0.0000000  0  8G22G18G11G19G15G 3G14G 9
  21443999.792     4649807.26349   3614860.49847  21443999.408    21444003.107
  23720387.884    11402717.08949   8745793.99545  23720387.097    23720394.070
  23793552.731    -3467252.48549  -2690761.68345  23793552.237    23793559.066
  22150909.498    -5093383.94349  -3958749.37947  22150908.235    22150913.120
  21015145.816     4924209.51749   3839134.34647  21015144.958    21015151.856
  23207041.354     8365987.07449   6518120.70946  23207040.740    23207049.029
  20241458.312    -7976163.15449  -6201774.40248  20241457.590    20241462.128
  24010112.842     1548504.65449   1211793.91544  24010112.295    24010120.284
 04  7 22 17 24 30.0000000  0  8G22G18G11G19G15G 3G14G 9
  21453256.728     4698452.34449   3652765.74347  21453256.310    21453259.995
  23735509.714    11482180.80949   8807713.67445  23735508.899    23735515.777
  23775382.032    -3562739.64349  -2765167.26045  23775381.646    23775388.487
  22154976.843    -5072009.99449  -3942094.36247  22154975.559    22154980.315
  21028595.040     4994884.97349   3894206.08547  21028594.087    21028600.991
  23222975.571     8449722.13649   6583368.74946  23222975.108    23222983.402
  20241571.808    -7975566.83449  -6201309.74148  20241571.072    20241575.598
  24022005.874     1611003.15949   1260493.97244  24022005.103    24022013.516
 04  7 22 17 25  0.0000000  0  8G22G18G11G19G15G 3G14G 9
  21462547.553     4747275.56649   3690809.78747  21462547.098    21462550.858
  23750645.824    11561721.74349   8869693.54845  23750645.210    23750652.144
  23757242.135    -3658065.26649  -2839446.88445  23757241.683    23757248.673
  22159150.640    -5050076.60349  -3925003.43447  22159149.350    22159154.114
  21042124.573     5065983.46749   3949607.46147  21042123.701    21042130.618
  23238950.834     8533671.60749   6648783.83546  23238950.280    23238958.482
  20241784.341    -7974449.95949  -6200439.45848  20241783.615    20241788.113
  24033999.420     1674031.63649   1309607.01244  24033998.751    24034007.639
 04  7 22 17 25 30.0000000  0  8G22G18G11G19G15G 3G14G 9
  21471872.119     4796276.11349   3728992.00747  21471871.643    21471875.410
  23765796.435    11641338.94449   8931732.84645  23765795.841    23765803.196
  23739133.234    -3753227.44149  -2913599.14945  23739132.730    23739139.813
  22163430.500    -5027585.23349  -3907477.71547  22163429.317    22163434.140
  21055734.472     5137503.75449   4005337.51547  21055733.619    21055740.515
  23254966.207     8617832.45549   6714363.62746  23254965.602    23254973.793
  20242095.759    -7972813.57449  -6199164.35848  20242095.029    20242099.567
  24046093.363     1737587.82749   1359131.28044  24046092.737    24046102.251
 04  7 22 17 26  0.0000000  0  8G22G18G11G19G15G 3G14G 9
  21481230.334     4845453.74549   3767312.21447  21481229.854    21481233.622
  23780961.781    11721032.39649   8993831.50445  23780960.953    23780968.546
  23721056.043    -3848223.71349  -2987622.14345  23721055.495    23721062.424
  22167816.543    -5004536.66049  -3889517.81347  22167815.331    22167820.121
  21069424.426     5209444.75949   4061395.39647  21069423.522    21069430.465
  23271021.238     8702201.84149   6780105.93346  23271020.677    23271028.790
  20242505.805    -7970658.50949  -6197485.09348  20242505.115    20242509.660
  24058287.534     1801669.35048   1409064.81244  24058286.885    24058295.620
 04  7 22 17 26 30.0000000  0  8G22G18G11G19G15G 3G14G 9
  21490622.100     4894807.89649   3805769.97447  21490621.682    21490625.516
  23796141.100    11800801.81649   9055989.41945  23796140.395    23796148.088
  23703010.637    -3943052.10949  -3061514.34245  23703010.317    23703016.983
  22172308.421    -4980932.54849  -3871125.02747  22172307.121    22172311.879
  21083194.146     5281804.99149   4117779.93547  21083193.279    21083200.230
  23287115.373     8786776.80749   6846008.44046  23287114.885    23287122.944
  20243014.400    -7967985.75749  -6195402.43448  20243013.733    20243018.251
  24070580.633     1866274.27748   1459406.18444  24070580.374    24070588.637
 04  7 22 17 27  0.0000000  0  8G22G18G11G19G15G 3G14G 9
  21500047.534     4944338.66849   3844365.35747  21500047.077    21500050.934
  23811334.876    11880647.19749   9118206.48545  23811334.456    23811341.912
  23684997.685    -4037710.18949  -3135273.83045  23684997.528    23685003.968
  22176905.685    -4956773.54749  -3852299.84347  22176904.439    22176909.130
  21097043.613     5354583.77749   4174490.63247  21097042.701    21097049.606
  23303248.209     8871554.94049   6912069.23646  23303247.707    23303255.725
  20243621.518    -7964795.64149  -6192916.63948  20243620.813    20243625.348
  24082973.340     1931400.71949   1510153.95444  24082973.324    24082982.185
 04  7 22 17 27 30.0000000  0  8G22G18G11G19G15G 3G14G 9
  21509506.310     4994044.63249   3883097.24647  21509505.889    21509509.607
  23826543.677    11960567.17349   9180481.67645  23826543.067    23826549.975
  23667017.300    -4132196.53849  -3208899.50845  23667017.395    23667023.739
  22181608.076    -4932062.21949  -3833044.28447  22181606.843    22181611.648
  21110972.318     5427779.09049   4231525.89047  21110971.319    21110978.266
  23319418.725     8956531.92849   6978284.97646  23319418.103    23319426.333
  20244326.558    -7961090.41649  -6190029.45548  20244325.865    20244330.459
  24095465.928     1997045.46449   1561305.69144  24095465.147    24095473.889
 04  7 22 17 28  0.0000000  0  8G22G18G11G19G15G 3G14G 9
  21518998.362     5043925.46949   3921965.40647  21518997.928    21519001.648
  23841766.393    12040561.72249   9242815.02245  23841765.620    23841772.408
  23649070.093    -4226509.07549  -3282389.72145  23649070.240    23649076.659
  22186415.464    -4906799.37149  -3813358.98747  22186414.225    22186419.150
  21124979.974     5501389.80949   4288884.84547  21124978.991    21124985.946
  23335626.533     9041705.25449   7044653.70346  23335626.012    23335634.465
  20245129.463    -7956870.94549  -6186741.55948  20245128.819    20245133.411
  24108055.999     2063206.99448   1612860.09444  24108055.490    24108064.461
 04  7 22 17 28 30.0000000  0  8G22G18G11G19G15G 3G14G 9
  21528523.545     5093981.01949   3960969.70347  21528523.184    21528526.855
  23857003.095    12120630.60949   9305206.27245  23857002.141    23857009.230
  23631156.712    -4320645.41249  -3355742.63245  23631156.562    23631163.065
  22191327.504    -4880986.49149  -3793245.09447  22191326.265    22191331.260
  21139066.544     5575414.94649   4346566.70947  21139065.560    21139072.507
  23351871.390     9127072.15849   7111173.28346  23351870.806    23351879.337
  20246030.252    -7952137.81349  -6183053.41148  20246029.555    20246034.100
  24120744.289     2129883.18549   1664815.47444  24120744.055    24120752.675
 04  7 22 17 29  0.0000000  0  8G22G18G11G19G15G 3G14G 9
  21538081.972     5144210.37549   4000109.42347  21538081.556    21538085.195
  23872253.730    12200773.20749   9367654.93045  23872252.693    23872260.176
  23613276.959    -4414603.87149  -3428956.95345  23613276.799    23613283.208
  22196343.838    -4854625.06849  -3772703.76147  22196342.642    22196347.690
  21153231.469     5649852.67649   4404570.08647  21153230.553    21153237.623
  23368152.523     9212629.31749   7177841.09946  23368151.845    23368160.349
  20247028.352    -7946892.67549  -6178966.30048  20247027.635    20247032.209
  24133530.391     2197071.31249   1717169.77344  24133529.837    24133538.340
 04  7 22 17 29 30.0000000  0  8G22G18G11G19G15G 3G14G 9
  21547673.652     5194614.33249   4039385.20047  21547673.156    21547676.806
  23887518.218    12280990.18849   9430161.58045  23887517.466    23887525.337
  23595431.850    -4508380.98549  -3502029.95845  23595431.793    23595438.049
  22201464.488    -4827715.74149  -3751735.48347  22201463.367    22201468.435
  21167475.092     5724703.09849   4462895.02747  21167474.222    21167481.229
  23384469.419     9298374.76349   7244655.64846  23384468.868    23384477.224
  20248123.934    -7941135.30349  -6174480.05048  20248123.256    20248127.822
  24146413.268     2264770.08549   1769921.92544  24146412.974    24146420.983
 04  7 22 17 30  0.0000000  0  8G22G18G11G19G15G 3G14G 9
  21557298.228     5245192.22849   4078796.51247  21557297.783    21557301.463
  23902797.049    12361280.75549   9492725.53545  23902796.458    23902804.473
  23577621.961    -4601974.96349  -3574960.26745  23577621.562    23577627.637
  22206689.175    -4800260.10649  -3730341.49747  22206688.000    22206693.080
  21181796.952     5799964.60849   4521540.31047  21181796.108    21181803.097
  23400821.327     9384305.23449   7311614.37845  23400820.909    23400829.297
  20249316.789    -7934866.97449  -6169595.64348  20249316.100    20249320.652
  24159393.311     2332976.81048   1823069.97344  24159392.851    24159400.204
 04  7 22 17 30 30.0000000  0  8G22G18G11G19G15G 3G14G 9
  21566955.650     5295942.48349   4118342.13047  21566955.228    21566958.938
  23918089.605    12441643.61649   9555345.84345  23918089.081    23918096.964
  23559846.548    -4695384.89549  -3647747.17545  23559846.307    23559852.212
  22212017.256    -4772261.01849  -3708524.06647  22212016.091    22212021.178
  21196196.508     5875634.67449   4580503.93547  21196195.659    21196202.704
  23417207.880     9470416.63249   7378714.09045  23417207.425    23417215.885
  20250606.410    -7928090.22749  -6164315.07048  20250605.697    20250610.242
  24172469.390     2401686.80048   1876610.09544  24172468.895    24172476.035
 04  7 22 17 31  0.0000000  0  8G22G18G11G19G15G 3G14G 9
  21576646.167     5346865.96949   4158022.73447  21576645.659    21576649.456
  23933396.054    12522079.68849   9618023.18745  23933395.644    23933403.292
  23542107.001    -4788607.16449  -3720387.82345  23542106.639    23542112.600
  22217448.787    -4743718.53749  -3686283.20947  22217447.581    22217452.648
  21210673.896     5951713.41849   4639786.02247  21210673.056    21210680.082
  23433628.519     9556707.23649   7445953.43845  23433628.057    23433636.575
  20251992.862    -7920804.65849  -6158638.01248  20251992.118    20251996.667
  24185641.531     2470901.32148   1930543.21344  24185640.380    24185647.281
 04  7 22 17 31 30.0000000  0  8G22G18G11G19G15G 3G14G 9
  21586369.387     5397961.77949   4197837.62147  21586368.928    21586372.649
  23948716.749    12602588.33649   9680757.11145  23948716.168    23948723.614
  23524403.623    -4881640.18449  -3792881.02945  23524402.995    23524408.995
  22222983.428    -4714634.51049  -3663620.35847  22222982.269    22222987.181
  21225228.718     6028198.93149   4699385.06547  21225227.811    21225234.825
  23450082.535     9643173.59449   7513329.75245  23450082.115    23450090.570
  20253475.785    -7913011.92449  -6152565.76148  20253475.011    20253479.577
  24198908.261     2540616.63349   1984866.80044                  24198906.706
 04  7 22 17 32  0.0000000  0  8G22G18G11G19G15G 3G14G 9
  21596125.315     5449229.41249   4237786.39847  21596124.864    21596128.602
  23964050.999    12683168.89349   9743547.05245  23964050.204    23964057.508
  23506736.477    -4974481.93349  -3865225.19445  23506735.626    23506741.856
  22228620.699    -4685010.78849  -3640536.96247  22228619.557    22228624.350
  21239860.582     6105089.86249   4759300.02947  21239859.701    21239866.752
  23466569.327     9729812.44149   7580840.43545  23466569.003    23466577.377
  20255054.888    -7904713.45549  -6146099.43048  20255054.168    20255058.764
  24212269.805     2610830.10249   2039578.62144  24212267.995    24212274.663
 04  7 22 17 32 30.0000000  0  8G22G18G11G19G15G 3G14G 9
  21605914.162     5500669.94649   4277869.90447  21605913.707    21605917.528
  23979398.520    12763822.70449   9806394.09345  23979397.999    23979405.556
  23489106.318    -5067128.52049  -3937417.30445  23489105.421    23489111.820
  22234360.696    -4654847.26349  -3617032.94747  22234359.463    22234364.329
  21254569.674     6182386.38449   4819531.03447  21254568.808    21254575.860
  23483089.138     9816622.74949   7648484.71245  23483088.556    23483097.000
  20256730.289    -7895908.78949  -6139238.66148  20256729.628    20256734.209
                   2681541.09948   2094677.97344
 04  7 22 17 33  0.0000000  0  8G22G18G11G19G15G 3G14G 9
  21615735.764     5552282.73749   4318087.63147  21615735.298    21615739.232
  23994760.165    12844549.11349   9869297.67445  23994759.524    23994767.596
  23471513.393    -5159578.43049  -4009456.13345  23471512.521    23471519.200
  22240202.961    -4624146.17949  -3593110.06847  22240201.729    22240206.701
  21269355.572     6260086.54849   4880076.57147  21269354.682    21269361.787
  23499640.798     9903600.77849   7716259.72045  23499640.097    23499648.513
  20258501.803    -7886599.39249  -6131984.59848  20258501.161    20258505.706
  24239273.532     2752746.67948   2150162.80044                  24239272.069
 04  7 22 17 33 30.0000000  0  8G22G18G11G19G15G 3G14G 9
  21625589.989     5604066.98349   4358438.95447  21625589.486    21625593.474
  24010135.828    12925347.69449   9932257.45545  24010135.138    24010143.314
  23453958.384    -5251829.52049  -4081340.05145  23453957.743    23453964.307
  22246147.337    -4592908.84249  -3568769.33247  22246146.084    22246151.027
  21284217.973     6338188.97749   4940935.55947  21284217.123    21284224.235
  23516223.545     9990743.56449   7784163.06545  23516222.917    23516231.452
  20260369.102    -7876786.71249  -6124338.36548  20260368.459    20260373.034
                   2824444.26248   2206030.97744
 04  7 22 17 34  0.0000000  0  8G22G18G11G19G15G 3G14G 9
  21635476.663     5656021.76649   4398923.16347  21635476.161    21635480.111
  24025525.394    13006217.48149   9995272.74945  24025524.614    24025532.476
  23436441.771    -5343880.08549  -4153067.72045  23436441.100    23436447.557
  22252192.981    -4561137.90549  -3544012.79347  22252191.808    22252196.914
  21299156.770     6416691.98049   5002106.67747  21299155.811    21299162.900
  23532837.015    10078047.54149   7852192.05945  23532836.426    23532844.954
  20262331.876    -7866472.31949  -6116301.18548  20262331.220    20262335.818
                   2896630.98648    511939.22443
 04  7 22 17 34 30.0000000  0  8G22G18G11G19G15G 3G14G 9
  21645395.866     5708146.80049   4439540.04347  21645395.314    21645399.144
  24040928.452    13087157.85549  10058343.06345  24040927.441    24040935.102
  23418963.495    -5435728.46649  -4224637.84445  23418962.929    23418969.259
  22258340.033    -4528835.15849  -3518841.87547  22258338.843    22258343.913
  21314171.183     6495593.93649   5063588.65347  21314170.297    21314177.492
  23549480.448    10165509.39749   7920344.04046  23549479.914    23549488.478
  20264389.846    -7855658.01349  -6107874.46548  20264389.145    20264393.731
                   2969304.27149    568575.26843
 04  7 22 17 35  0.0000000  0  8G22G18G11G19G15G 3G14G 9
  21655347.150     5760441.50749   4480289.12647  21655346.675    21655350.510
  24056344.357    13168168.49549  10121468.14845  24056343.290    24056350.880
  23401524.410    -5527372.11749  -4296048.44845  23401523.852    23401529.888
  22264588.104    -4496002.07549  -3493257.69447  22264586.847    22264592.033
  21329261.334     6574893.07149   5125380.14147  21329260.480    21329267.629
  23566153.504    10253126.17249   7988616.76446  23566152.972    23566161.390
  20266542.738    -7844344.75249  -6099058.95048  20266542.025    20266546.580
                   3042461.40948    625591.06843
 04  7 22 17 35 30.0000000  0  8G22G18G11G19G15G 3G14G 9
  21665330.738     5812905.35649   4521170.01247  21665330.244    21665334.052
  24071773.303    13249249.00749  10184647.65745  24071772.318    24071779.632
  23384124.625    -5618809.15449  -4367298.03445  23384124.047    23384129.928
  22270936.611    -4462640.76449  -3467261.91947  22270935.272    22270940.519
  21344426.784     6654587.83649   5187479.90947  21344425.902    21344433.123
  23582855.492    10340894.69949   8057007.72146  23582854.929    23582863.267
  20268790.140    -7832534.07049  -6089855.83748  20268789.509    20268794.075
                   3116099.98948    517904.89743
 04  7 22 17 36  0.0000000  0  7G22G18G11G19G15G 3G14
  21675346.660     5865539.73349   4562183.78347  21675346.220    21675350.067
  24087215.927    13330400.99649  10247882.81345  24087215.118    24087222.479
  23366764.956    -5710035.51649  -4438383.47046  23366764.296    23366770.022
  22277385.517    -4428751.14949  -3440854.46147  22277384.268    22277389.488
  21359667.761     6734678.83549   5249888.43147  21359666.770    21359674.033
  23599586.040    10428813.82149   8125516.04346  23599585.447    23599593.911
  20271132.474    -7820225.23049  -6080264.54148  20271131.797    20271136.409
 04  7 22 17 36 30.0000000  0  7G22G18G11G19G15G 3G14
  21685394.971     5918344.18949   4603330.06747  21685394.514    21685398.421
  24102672.207    13411624.00749  10311173.36045  24102671.467    24102679.017
  23349445.649    -5801049.07549  -4509303.08245  23349445.007    23349450.493
  22283934.796    -4394334.67449  -3414036.46047  22283933.504    22283938.615
  21374983.649     6815164.45949   5312604.47247  21374982.727    21374989.902
  23616344.563    10516880.50049   8194139.33846  23616343.995    23616352.627
  20273569.328    -7807419.81749  -6070286.30848  20273568.601    20273573.228
 04  7 22 17 37  0.0000000  0  7G22G18G11G19G15G 3G14
  21695475.304     5971316.84849   4644607.42547  21695474.885    21695478.793
  24118141.743    13492915.96449  10374517.65245  24118140.839    24118148.757
  23332166.853    -5891849.12049  -4580056.33645  23332166.247    23332171.792
  22290583.644    -4359394.86549  -3386810.66747  22290582.381    22290587.494
  21390374.122     6896041.59249   5375625.57847  21390373.163    21390380.334
  23633130.367    10605090.31149   8262874.15846  23633129.824    23633138.519
  20276100.124    -7794120.51949  -6059923.23548  20276099.389    20276103.996
 04  7 22 17 37 30.0000000  0  7G22G18G11G19G15G 3G14
  21705587.691     6024457.37749   4686015.59547  21705587.224    21705591.126
  24133624.537    13574276.63549  10437915.43945  24133623.509    24133631.388
  23314929.431    -5982433.67549  -4650641.66445  23314928.541    23314934.123
  22297331.749    -4323933.58149  -3359178.53547  22297330.460    22297335.676
  21405838.692     6977308.61349   5438950.47747  21405837.777    21405845.095
  23649943.096    10693440.32749   8331718.21046  23649942.415    23649951.061
  20278724.517    -7780328.88249  -6049176.51448  20278723.832    20278728.460
 04  7 22 17 38  0.0000000  0  7G22G18G11G19G15G 3G14
  21715732.050     6077765.80549   4727554.59347  21715731.532    21715735.415
  24149120.053    13655706.16349  10501366.89545  24149119.072    24149127.160
  23297733.104    -6072800.07749  -4721056.99345  23297732.246    23297737.989
  22304178.743    -4287952.24249  -3331141.16547  22304177.529    22304182.712
  21421377.370     7058964.50149   5502578.41747  21421376.420    21421383.733
  23666781.882    10781927.97749   8400669.53946  23666781.178    23666789.769
  20281442.446    -7766045.71349  -6038046.78348  20281441.860    20281446.475
 04  7 22 17 38 30.0000000  0  7G22G18G11G19G15G 3G14
  21725908.469     6131243.33849   4769225.36947  21725907.997    21725911.857
  24164628.414    13737205.53249  10564872.79345  24164627.717    24164635.750
  23280578.907    -6162944.39549  -4791299.29345  23280578.192    23280584.061
  22311124.723    -4251451.20949  -3302698.84047  22311123.511    22311128.586
  21436990.061     7141009.54549   5566509.56347  21436989.071    21436996.406
  23683646.217    10870551.93249   8469727.08745  23683645.693    23683654.442
  20284254.115    -7751270.75749  -6026533.84248  20284253.503    20284258.121
 04  7 22 17 39  0.0000000  0  7G22G18G11G19G15G 3G14
  21736116.908     6184889.26549   4811027.36047  21736116.530    21736120.387
  24180150.359    13818774.52049  10628432.89345  24180149.671    24180157.563
  23263466.908    -6252865.02449  -4861367.23445  23263466.468    23263472.821
  22318169.169    -4214432.72149  -3273853.30046  22318167.864    22318172.885
  21452676.393     7223441.67149   5630742.34847  21452675.441    21452682.778
  23700536.075    10959308.51249   8538887.97845  23700535.431    23700544.443
  20287158.939    -7736005.71849  -6014639.01748  20287158.323    20287162.940
 04  7 22 17 39 30.0000000  0  7G22G18G11G19G15G 3G14
  21746357.114     6238701.52949   4852958.95147  21746356.671    21746360.591
  24195686.146    13900410.89149  10692045.55345  24195685.125    24195692.637
  23246398.024    -6342561.20049  -4931260.32745  23246397.764    23246404.236
  22325311.202    -4176900.30749  -3244607.31847  22325309.960    22325315.210
  21468435.946     7306257.94449   5695274.46247  21468434.902    21468442.259
  23717450.258    11048193.27349   8608148.72545  23717449.691    23717458.743
  20290156.497    -7720253.60549  -6002364.65248  20290155.867    20290160.463
 04  7 22 17 40  0.0000000  0  8G22G18G11G19G15G 3G14G25
  21756628.906     6292680.25049   4895020.25347  21756628.509    21756632.453
  24211234.043    13982115.22449  10755711.18545  24211232.872    24211240.538
  23229372.552    -6432030.14649  -5000976.36046  23229372.439    23229378.844
  22332550.687    -4138855.16949  -3214961.80547  22332549.638    22332555.049
  21484268.233     7389457.28949   5760105.08747  21484267.211    21484274.564
  23734388.445    11137203.67549   8677507.39346  23734387.975    23734397.043
  20293246.578    -7704015.41949  -5989711.53548  20293245.918    20293250.492
                  -1231282.75349   -939620.62345                  23599322.293
 04  7 22 17 40 30.0000000  0  8G22G18G11G19G15G 3G14G25
  21766932.503     6346825.41649   4937211.24747  21766932.086    21766936.063
  24226794.921    14063887.08949  10819429.39045  24226793.810    24226801.589
  23212391.163    -6521269.32749  -5070513.35345  23212390.876    23212397.165
  22339887.772    -4100298.86249  -3184917.97947  22339886.748    22339892.175
  21500173.227     7473038.34449   5825233.14447  21500172.230    21500179.555
  23751350.051    11226336.94849   8746961.77945  23751349.623    23751358.610
  20296428.869    -7687292.34049  -5976680.57848  20296428.215    20296432.856
  23580393.642    -1330708.20849  -1017094.80345  23580392.864    23580401.838
 04  7 22 17 41  0.0000000  0  8G22G18G11G19G15G 3G14G25
  21777267.656     6401136.59349   4979531.61447  21777267.251    21777271.258
  24242367.841    14145726.31749  10883200.10845  24242366.929    24242375.348
  23195453.744    -6610276.74849  -5139869.72846  23195453.322    23195459.521
  22347321.853    -4061233.42749  -3154477.43747  22347320.772    22347326.104
  21516150.443     7556999.55349   5890657.41247  21516149.530    21516156.925
  23768334.364    11315590.22749   8816509.67745  23768334.055    23768342.898
  20299703.099    -7670085.80849  -5963272.90348  20299702.508    20299707.161
  23561493.514    -1430028.57549  -1094487.13645  23561493.857    23561501.862
 04  7 22 17 41 30.0000000  0  8G22G18G11G19G15G 3G14G25
  21787634.503     6455614.37449   5021981.80347  21787634.085    21787638.044
  24257953.878    14227633.34349  10947023.62745  24257953.427    24257961.634
  23178561.124    -6699049.26749  -5209043.09446  23178560.586    23178566.735
  22354852.497    -4021660.23849  -3123641.22747  22354851.358    22354856.637
  21532199.768     7641339.85749   5956377.09847  21532198.959    21532206.331
  23785341.197    11404961.27049   8886149.36245  23785340.772    23785349.687
  20303069.357    -7652396.24449  -5949488.84348  20303068.758    20303073.342
  23542614.082    -1529240.25049  -1171794.75545  23542613.818    23542622.378
 04  7 22 17 42  0.0000000  0  8G22G18G11G19G15G 3G14G25
  21798032.784     6510256.94249   5064560.38847  21798032.336    21798036.247
  24273553.556    14309606.56349  11010898.74745  24273552.839    24273560.458
  23161713.343    -6787585.91549  -5278032.64446  23161712.759    23161718.820
  22362479.099    -3981582.45049  -3092411.82546  22362477.959    22362483.159
  21548321.016     7726056.76449   6022390.23547  21548320.148    21548327.483
  23802369.489    11494445.92049   8955877.53245  23802369.063    23802378.163
  20306526.963    -7634226.48149  -5935330.60048  20306526.364    20306530.973
  23523755.517    -1628342.12449  -1249016.85545  23523755.153    23523763.751
 04  7 22 17 42 30.0000000  0  8G22G18G11G19G15G 3G14G25
  21808462.368     6565064.36149   5107267.43047  21808461.906    21808465.815
  24289165.738    14391646.20949  11074825.68745  24289164.910    24289172.078
  23144910.896    -6875884.30249  -5346836.53646  23144910.191    23144916.321
  22370201.575    -3941001.59649  -3060790.43346  22370200.273    22370205.454
  21564513.471     7811148.91049   6088695.74147  21564512.648    21564520.061
  23819419.217    11584041.44149   9025692.12545  23819418.719    23819427.720
  20310075.701    -7615577.60749  -5920799.02348  20310075.128    20310079.772
  23504918.866    -1727330.86749  -1326150.79545  23504918.193    23504926.730
 04  7 22 17 43  0.0000000  0  8G22G18G11G19G15G 3G14G25
  21818923.374     6620036.95449   5150103.18447  21818922.884    21818926.827
  24304790.040    14473752.43449  11138804.47945  24304788.996    24304796.449
  23128154.021    -6963941.65549  -5415452.59646  23128153.362    23128159.596
  22378019.207    -3899919.34549  -3028778.33146  22378018.031    22378023.208
  21580777.272     7896615.28649   6155292.87747  21580776.429    21580783.791
  23836489.449    11673745.71648   9095591.47145  23836488.982    23836498.086
  20313715.514    -7596450.46549  -5905894.77248  20313714.908    20313719.560
  23486104.226    -1826203.02349  -1403193.91345  23486103.449    23486111.906
 04  7 22 17 43 30.0000000  0  8G22G18G11G19G15G 3G14G25
  21829416.059     6675176.18749   5193068.78047  21829415.500    21829419.512
  24320426.852    14555926.84149  11202836.33845  24320426.030    24320434.120
  23111443.644    -7051753.79149  -5483877.60446  23111443.221    23111449.390
  22385932.458    -3858335.68649  -2996375.52446  22385931.202    22385936.507
  21597112.289     7982456.17649   6222181.84247  21597111.411    21597118.799
  23853580.031    11763556.99249   9165574.16445  23853579.490    23853588.681
  20317446.383    -7576845.00649  -5890617.80648  20317445.725    20317450.341
  23467312.382    -1924954.30449  -1480142.82845  23467311.649    23467320.066
 04  7 22 17 44  0.0000000  0  8G22G18G11G19G15G 3G14G25
  21839940.152     6730480.28549   5236162.84247  21839939.564    21839943.604
  24336076.751    14638167.44349  11266919.78845  24336076.035    24336084.302
  23094780.326    -7139320.08849  -5552111.02346  23094779.897    23094785.962
  22393940.312    -3816254.44249  -2963585.01346  22393939.068    22393944.291
  21613518.010     8068668.44149   6289360.17847  21613517.123    21613524.559
  23870690.068    11853471.42049   9235637.23945  23870689.654    23870698.790
  20321267.689    -7556764.02649  -5874970.30648  20321267.010    20321271.633
  23448543.640    -2023583.20149  -1556996.40645  23448543.141    23448551.433
 04  7 22 17 44 30.0000000  0  8G22G18G11G19G15G 3G14G25
  21850495.422     6785948.21249   5279384.55647  21850494.877    21850498.902
  24351739.687    14720473.49549  11331054.28845  24351738.721    24351746.754
  23078164.198    -7226638.68449  -5620151.45946  23078163.710    23078169.536
  22402042.179    -3773678.00449  -2930408.60846  22402041.060    22402046.304
  21629994.051     8155249.71249   6356826.05947  21629993.087    21630000.508
  23887819.150    11943485.33149   9305777.85845  23887818.767    23887827.907
  20325179.094    -7536209.85749  -5858954.08948  20325178.362    20325182.992
  23429798.692    -2122087.34749  -1633752.79345  23429798.348    23429806.495
 04  7 22 17 45  0.0000000  0  8G22G18G11G19G15G 3G14G25
  21861081.709     6841579.67549   5322733.70147  21861081.158    21861085.197
  24367414.970    14802844.44749  11395239.34145  24367413.710    24367421.367
  23061595.429    -7313707.54049  -5687997.29846  23061594.861    23061600.595
  22410238.131    -3730608.89549  -2896848.30446  22410236.906    22410242.144
  21646539.704     8242198.07349   6424577.97247  21646538.813    21646546.204
  23904966.769    12033595.42349   9375993.43145  23904966.477    23904975.461
  20329180.232    -7515183.73649  -5842570.11948  20329179.532    20329184.160
  23411078.109    -2220464.48649  -1710410.20245  23411077.669    23411085.703
 04  7 22 17 45 30.0000000  0  8G22G18G11G19G15G 3G14G25
  21871699.401     6897375.66949   5366211.06047  21871698.838    21871702.929
  24383101.810    14885281.63049  11459475.98345  24383100.721    24383108.449
  23045074.561    -7400523.10549  -5755645.74546  23045074.197    23045080.055
  22418527.442    -3687047.70649  -2862904.56846  22418526.287    22418531.569
  21663155.342     8329513.46949   6492615.90147  21663154.430    21663161.856
  23922132.085    12123800.36949   9446282.87245  23922131.932    23922140.920
  20333271.173    -7493685.95049  -5825818.61248  20333270.420    20333275.059
  23392382.353    -2318710.38549  -1786965.35045  23392381.971    23392390.024
 04  7 22 17 46  0.0000000  0  8G22G18G11G19G15G 3G14G25
  21882348.358     6953336.27549   5409816.70147  21882347.826    21882351.895
  24398801.089    14967784.92849  11523764.12545  24398800.601    24398808.563
  23028602.600    -7487082.85649  -5823094.85346  23028602.310    23028608.265
  22426910.242    -3642996.24049  -2828578.80946  22426909.064    22426914.308
  21679840.644     8417194.55449   6560938.77647  21679839.629    21679847.109
  23939315.246    12214098.34249   9516645.08845  23939315.146    23939324.295
  20337451.499    -7471717.90149  -5808700.66348  20337450.796    20337455.433
  23373712.357    -2416821.70449  -1863415.65345  23373711.996    23373719.947
 04  7 22 17 46 30.0000000  0  8G22G18G11G19G15G 3G14G25
  21893028.315     7009459.38649   5453548.94847  21893027.762    21893031.856
  24414513.428    15050352.57149  11588102.46145  24414512.973    24414520.817
  23012179.687    -7573386.02549  -5890344.01546  23012179.290    23012185.443
  22435385.725    -3598458.17849  -2793873.87447  22435384.566    22435389.698
  21696594.712     8505237.98549   6629543.98847  21696593.761    21696601.223
  23956515.014    12304482.99649   9587074.59345  23956514.880    23956523.800
  20341720.824    -7449282.55249  -5791218.58948  20341720.120    20341724.763
  23355068.308    -2514797.52149  -1939760.35745  23355067.773    23355075.755
 04  7 22 17 47  0.0000000  0  8G22G18G11G19G15G 3G14G25
  21903739.147     7065745.04449   5497407.86447  21903738.548    21903742.727
  24430237.968    15132984.22849  11652490.64845  24430237.408    24430245.268
  22995805.800    -7659430.31949  -5957391.48746  22995805.585    22995811.762
  22443953.371    -3553435.60049  -2758791.39846  22443952.095    22443957.309
  21713417.631     8593642.25349   6698430.39247  21713416.624    21713424.022
  23973730.748    12394952.48149   9657570.20545  23973730.492    23973739.656
  20346078.856    -7426381.15449  -5773373.35948  20346078.133    20346082.796
  23336450.579    -2612634.94549  -2015997.20946  23336449.803    23336457.861
 04  7 22 17 47 30.0000000  0  8G22G18G11G19G15G 3G14G25
  21914480.987     7122193.80249   5541393.88047  21914480.411    21914484.538
  24445974.748    15215680.81949  11716929.42345  24445974.193    24445982.156
  22979482.014    -7745212.51149  -6024234.72746  22979481.786    22979488.035
  22452612.955    -3507929.68949  -2723332.29446  22452611.650    22452616.815
  21730308.931     8682406.62549   6767597.37347  21730307.941    21730315.385
  23990962.578    12485504.92449   9728130.49445  23990962.132    23990971.291
  20350525.404    -7403014.63949  -5755165.69648  20350524.625    20350529.341
  23317859.559    -2710330.17049  -2092123.27245  23317858.832    23317866.975
 04  7 22 17 48  0.0000000  0  8G22G18G11G19G15G 3G14G25
  21925253.669     7178804.42349   5585506.01047  21925253.043    21925257.344
  24461723.225    15298441.19149  11781417.90945  24461722.693    24461731.016
  22963208.501    -7830731.20949  -6090872.62446  22963208.122    22963214.352
  22461363.922    -3461943.57549  -2687499.02046  22461362.592    22461367.764
  21747268.192     8771528.41449   6837042.86947  21747267.300    21747274.787
  24008209.502    12576136.39249   9798752.30545  24008208.843    24008217.872
  20355059.885    -7379185.38449  -5736597.46348  20355059.186    20355063.862
  23299296.140    -2807881.28149  -2168137.03746  23299295.514    23299303.549
 04  7 22 17 48 30.0000000  0  8G22G18G11G19G15G 3G14G25
  21936057.220     7235577.72949   5629744.91747  21936056.614    21936060.984
  24477484.329    15381265.99549  11845956.58845  24477483.651    24477492.153
  22946985.761    -7915983.23449  -6157302.74646  22946985.253    22946991.310
  22470205.911    -3415478.44049  -2651292.47346  22470204.551    22470209.847
  21764295.562     8861007.12449   6906766.48747  21764294.602    21764302.064
  24025470.896    12666845.01249   9869434.22845  24025470.253    24025479.233
  20359682.504    -7354893.93549  -5717669.08448  20359681.765    20359686.368
  23280760.994    -2905284.27849  -2244035.39646  23280760.375    23280768.196
 04  7 22 17 49  0.0000000  0  8G22G18G11G19G15G 3G14G25
  21946891.662     7292512.85149   5674109.92247  21946891.123    21946895.305
  24493257.977    15464154.26849  11910544.72745  24493257.150    24493265.406
  22930813.964    -8000966.81649  -6223523.69346  22930813.398    22930819.312
  22479138.499    -3368537.11549  -2614714.86546  22479137.217    22479142.588
  21781390.362     8950840.30449   6976766.30247  21781389.308    21781396.838
  24042746.183    12757627.28449   9940173.57945  24042745.564    24042754.718
  20364392.507    -7330142.50149  -5698382.26848  20364391.795    20364396.439
  23262254.202    -3002537.43749  -2319817.01746  23262253.667    23262261.451
 04  7 22 17 49 30.0000000  0  8G22G18G11G19G15G 3G14G25
  21957756.801     7349609.18149   5718600.52947  21957756.202    21957760.376
  24509043.362    15547105.46749  11975181.92445  24509042.442    24509050.884
  22914693.483    -8085680.12949  -6289534.02246  22914692.988    22914698.839
  22488161.498    -3321122.20149  -2577768.22146  22488160.081    22488165.322
  21798552.181     9041025.86649   7047040.70647  21798551.137    21798558.648
  24060034.900    12848480.13149  10010967.89845  24060034.384    24060043.566
  20369189.712    -7304933.13449  -5678738.62348  20369189.004    20369193.666
  23243776.436    -3099638.16749  -2395479.81746  23243775.959    23243783.705
 04  7 22 17 50  0.0000000  0  8G22G18G11G19G15G 3G14G25
  21968652.692     7406867.92049   5763217.69047  21968652.138    21968656.320
  24524840.407    15630121.12149  12039869.29645  24524839.509    24524848.370
  22898625.128    -8170119.11349  -6355330.59746  22898624.712    22898630.546
  22497274.181    -3273234.34649  -2540453.04446  22497272.812    22497278.154
  21815781.032     9131563.94449   7117589.80846  21815780.000    21815787.529
  24077336.832    12939401.91749  10081815.91845  24077336.317    24077345.316
  20374074.128    -7279265.63549  -5658737.99748  20374073.392    20374077.995
  23225328.413    -3196581.86649  -2471020.27946  23225328.100    23225335.813
 04  7 22 17 50 30.0000000  0  8G22G18G11G19G15G 3G14G25
  21979579.356     7464287.92649   5807960.51747  21979578.804    21979583.071
  24540649.427    15713199.82849  12104605.82745  24540648.742    24540657.617
  22882609.258    -8254282.73049  -6420912.61246  22882608.880    22882614.617
  22506476.331    -3224876.89149  -2502771.95746  22506475.021    22506480.314
  21833076.392     9222451.56649   7188411.26246  21833075.336    21833082.939
  24094651.179    13030388.69349  10152714.59145  24094650.650    24094659.628
  20379045.159    -7253142.80649  -5638382.57048  20379044.441    20379049.041
  23206910.678    -3293367.08649  -2546437.24646  23206910.330    23206918.242
 04  7 22 17 51  0.0000000  0  8G22G18G11G19G15G 3G14G25
  21990536.941     7521869.70049   5852829.39547  21990536.378    21990540.554
  24556471.465    15796341.65549  12169391.54845  24556470.729    24556479.236
  22866646.269    -8338167.91749  -6486277.64946  22866646.020    22866651.830
  22515767.494    -3176051.30949  -2464726.08646  22515766.169    22515771.575
  21850437.953     9313687.44149   7259504.09646  21850436.997    21850444.602
  24111977.692    13121438.48249  10223662.38645  24111977.025    24111986.073
  20384102.579    -7226565.69349  -5617673.14848  20384101.850    20384106.524
  23188523.905    -3389990.32649  -2621727.97446  23188523.499    23188531.393
 04  7 22 17 51 30.0000000  0  8G22G18G11G19G15G 3G14G25
  22001524.739     7579610.99049   5897822.57847  22001524.252    22001528.458
  24572305.135    15879545.06449  12234225.26045  24572304.137    24572312.321
  22850736.628    -8421774.15949  -6551425.33646  22850736.404    22850742.116
  22525147.167    -3126761.80249  -2426318.70946  22525145.806    22525151.177
  21867865.268     9405268.27649   7330865.71346  21867864.252    21867871.880
  24129315.001    13212546.59149  10294655.61045  24129314.423    24129323.677
  20389245.900    -7199537.67349  -5596612.37548  20389245.159    20389249.821
  23170168.102    -3486450.42649  -2696891.61446  23170167.736    23170175.528
 04  7 22 17 52  0.0000000  0  8G22G18G11G19G15G 3G14G25
  22012543.143     7637512.63649   5942940.71547  22012542.574    22012546.797
  24588150.065    15962810.83049  12299107.51045  24588149.009    24588157.450
  22834880.713    -8505098.25949  -6616353.15846  22834880.411    22834886.070
  22534614.826    -3077009.55349  -2387550.78447  22534613.442    22534618.807
  21885358.078     9497193.42749   7402495.63946  21885357.072    21885364.712
  24146662.991    13303710.97249  10365692.65945  24146662.603    24146671.821
  20394474.936    -7172059.29349  -5575200.67748  20394474.139    20394478.776
  23151844.027    -3582743.41549  -2771925.02846  23151843.703    23151851.449
 04  7 22 17 52 30.0000000  0  7G22G11G19G15G 3G14G25
  22023592.124     7695575.48249   5988184.45547  22023591.565    22023595.846
  22819079.065    -8588136.98349  -6681058.63146  22819078.681    22819084.388
  22544170.149    -3026796.05549  -2348423.41647  22544168.827    22544174.135
  21902916.268     9589461.97349   7474393.12946  21902915.287    21902922.882
  24164021.823    13394929.84149  10436772.18745  24164021.017    24164030.386
  20399789.448    -7144131.14449  -5553438.51148  20399788.650    20399793.336
  23133552.273    -3678865.81949  -2846825.51146  23133552.075    23133559.934
 04  7 22 17 53  0.0000000  0  7G22G11G19G15G 3G14G25
  22034672.293     7753802.13949   6033555.84347  22034671.754    22034676.004
  22803332.657    -8670884.65549  -6745537.28746  22803332.232    22803338.046
  22553813.438    -2976120.55649  -2308936.06746  22553811.981    22553817.397
  21920539.987     9682075.02149   7546559.08146  21920538.976    21920546.637
  24181390.414    13486203.49549  10507894.37545  24181389.782    24181399.205
  20405189.785    -7115751.90449  -5531324.83648  20405189.061    20405193.757
  23115294.443    -3774811.77449  -2921588.51846  23115294.166    23115301.910
 04  7 22 17 53 30.0000000  0  7G22G11G19G15G 3G14G25
  22045782.790     7812187.44249   6079050.83947  22045782.212    22045786.424
  22787641.045    -8753344.17749  -6809791.43946  22787640.636    22787646.383
  22563542.979    -2924990.33549  -2269094.36646  22563541.695    22563547.240
  21938227.985     9775025.84749   7618988.22646  21938227.011    21938234.649
  24198767.987    13577523.89449  10579053.04145  24198767.312    24198777.038
  20410674.859    -7086928.16349  -5508864.80648  20410674.084    20410678.771
  23097069.691    -3870583.29049  -2996215.59846  23097069.391    23097077.124
 04  7 22 17 54  0.0000000  0  7G22G11G19G15G 3G14G25
  22056923.393     7870731.38049   6124669.44847  22056922.810    22056927.009
  22772004.825    -8835513.32749  -6873819.28546  22772004.369    22772010.157
  22573358.888    -2873407.57449  -2228900.05846  22573357.540    22573363.161
  21955979.888     9868312.83249   7691679.32146  21955978.932    21955986.663
  24216154.060    13668888.55249  10650246.14445  24216153.455    24216163.255
  20416244.121    -7057661.45149  -5486059.59848  20416243.389    20416248.108
  23078878.566    -3966177.52849  -3070704.54846  23078878.305    23078886.093
 04  7 22 17 54 30.0000000  0  7G22G11G19G15G 3G14G25
  22068094.191     7929434.29349   6170411.93747  22068093.626    22068097.817
  22756424.578    -8917389.06349  -6937618.54846  22756424.115    22756429.686
  22583260.592    -2821374.22149  -2188354.64946  22583259.255    22583264.815
  21973795.557     9961934.85849   7764631.47446  21973794.688    21973802.398
  24233548.004    13760295.11149  10721471.89845  24233547.613    24233557.389
  20421897.358    -7027953.05649  -5462910.22048  20421896.695    20421901.414
  23060722.017    -4061591.40349  -3145052.93046  23060721.565    23060729.421
 04  7 22 17 55  0.0000000  0  7G22G11G19G15G 3G14G25
  22079295.396     7988295.81049   6216278.00947  22079294.742    22079298.888
  22740900.528    -8998969.33649  -7001187.55146  22740899.923    22740905.409
  22593247.371    -2768893.15849  -2147460.36146  22593246.101    22593251.633
  21991674.694    10055889.84749   7837843.10246  21991673.851    21991681.488
  24250949.675    13851740.48749  10792727.90545  24250949.266    24250958.972
  20427634.357    -6997805.04649  -5439418.29148  20427633.693    20427638.409
  23042600.332    -4156822.00949  -3219258.55346  23042599.821    23042607.626
 04  7 22 17 55 30.0000000  0  7G22G11G19G15G 3G14G25
  22090526.489     8047315.82249   6262267.58847  22090525.897    22090530.100
  22725432.903    -9080251.58149  -7064524.32046  22725432.261    22725437.920
  22603319.108    -2715966.17649  -2106218.57246  22603317.849    22603323.382
  22009616.930    10150176.25749   7911312.95646  22009616.020    22009623.677
  24268358.279    13943222.16249  10864012.22545  24268357.785    24268367.370
  20433454.827    -6967218.55749  -5415584.68748  20433454.104    20433458.855
  23024514.026    -4251866.21349  -3293318.89146  23024513.361    23024521.226
 04  7 22 17 56  0.0000000  0  7G22G11G19G15G 3G14G25
  22101788.098     8106496.02149   6308381.97947  22101787.521    22101791.806
  22710022.642    -9161231.78049  -7127625.75046  22710022.129    22710027.874
  22613475.622    -2662593.80849  -2064629.75246  22613474.338    22613479.825
  22027622.337    10244794.16849   7985041.11646  22027621.265    22027628.972
  24285773.474    14034739.33449  10935324.20645  24285772.969    24285782.499
  20439358.728    -6936193.47649  -5391409.31948  20439357.967    20439362.794
  23006463.734    -4346719.48749  -3367230.50146  23006463.397    23006471.138
 04  7 22 17 56 30.0000000  0  7G22G11G19G15G 3G14G25
  22113079.876     8165834.10049   6354619.40647  22113079.274    22113083.479
  22694670.262    -9241909.64649  -7190491.59646  22694669.588    22694675.415
  22623715.854    -2608780.85949  -2022697.64046  22623714.598    22623720.143
  22045689.711    10339739.49349   8059024.42946  22045688.737    22045696.489
  24303194.643    14126286.77049  11006659.79545  24303194.029    24303203.608
  20445345.270    -6904733.59149  -5366895.14048  20445344.602    20445349.408
  22988450.453    -4441381.15849  -3440992.76746  22988449.878    22988457.506
 04  7 22 17 57  0.0000000  0  7G22G11G19G15G 3G14G25
  22124401.765     8225330.81049   6400980.42947  22124401.156    22124405.304
  22679375.739    -9322282.02649  -7253119.39246  22679375.185    22679381.108
  22634039.734    -2554528.62949  -1980423.22446  22634038.471    22634044.091
  22063819.387    10435011.56949   8133262.33546  22063818.426    22063826.234
  24320620.983    14217862.57749  11078017.47145  24320620.344    24320630.034
  20451414.560    -6872839.73049  -5342042.80448  20451413.861    20451418.590
  22970474.128    -4535847.61149  -3514602.94246  22970473.452    22970481.061
 04  7 22 17 57 30.0000000  0  7G22G11G19G15G 3G14G25
  22135753.750     8284986.49349   6447465.34647  22135753.157    22135757.342
  22664140.176    -9402346.02349  -7315506.88746  22664139.463    22664145.383
  22644446.944    -2499839.15949  -1937808.10046  22644445.607    22644451.234
  22082011.030    10530608.98049   8207753.76446  22082010.072    22082017.894
  24338052.436    14309464.55849  11149395.52145  24338051.737    24338061.525
  20457566.149    -6840513.20549  -5316853.32248  20457565.402    20457570.171
  22952535.391    -4630115.16149  -3588058.10746  22952534.911    22952542.491
 04  7 22 17 58  0.0000000  0  7G22G11G19G15G 3G14G25
  22147135.781     8344800.13549   6494073.33647  22147135.207    22147139.552
  22648963.507    -9482100.13149  -7377652.93046  22648962.719    22648968.549
  22654936.411    -2444715.87549  -1894854.94746  22654935.185    22654940.871
  22100264.118    10626529.06549   8282496.61146  22100263.056    22100270.953
  24355488.151    14401089.08749  11220791.23345  24355487.467    24355497.298
  20463799.465    -6807756.35249  -5291328.52148  20463798.777    20463803.603
  22934634.895    -4724181.89749  -3661356.79146  22934634.493    22934642.131
 04  7 22 17 58 30.0000000  0  7G22G11G19G15G 3G14G25
  22158547.946     8404771.58049   6540804.28947  22158547.447    22158551.855
  22633846.361    -9561542.03249  -7439555.70846  22633845.535    22633851.235
  22665508.161    -2389160.95649  -1851565.45346  22665506.966    22665512.624
  22118578.308    10722770.08449   8357489.54546  22118577.227    22118585.045
  24372927.805    14492733.64649  11292202.44645  24372926.913    24372936.509
  20470114.481    -6774570.92949  -5265469.77048  20470113.785    20470118.618
  22916773.320    -4818045.23449  -3734496.97246  22916772.888    22916780.548
 04  7 22 17 59  0.0000000  0  7G22G11G19G15G 3G14G25
  22169989.979     8464900.48949   6587657.94047  22169989.576    22169993.996
  22618788.947    -9640669.63949  -7501213.54346  22618788.079    22618793.691
  22676161.600    -2333177.23849  -1807941.83846  22676160.291    22676166.070
  22136953.007    10819329.82349   8432730.83446  22136951.997    22136959.808
  24390370.676    14584394.73249  11363626.45445  24390369.569    24390378.816
  20476510.680    -6740958.94749  -5239278.63448  20476509.967    20476514.767
  22898951.067    -4911702.51949  -3807476.59246  22898950.486    22898958.184
 04  7 22 17 59 30.0000000  0  7G22G11G19G15G 3G14G25
  22181462.120     8525186.87649   6634634.31547  22181461.644    22181466.103
  22603791.694    -9719480.30649  -7562624.42746  22603790.832    22603796.496
  22686896.090    -2276766.93749  -1763985.80846  22686894.789    22686900.647
  22155387.968    10916206.77349   8508219.27246  22155387.104    22155394.985
  24407816.000    14676070.28449  11435061.77445  24407814.941    24407824.022
  20482987.674    -6706921.87549  -5212756.24947  20482987.033    20482991.825
  22881168.330    -5005150.62749  -3880293.24846  22881167.947    22881175.477
 04  7 22 18  0  0.0000000  0  7G22G11G19G15G 3G14G25
  22192964.195     8585631.20749   6681733.75247  22192963.781    22192968.271
  22588855.126    -9797971.15649  -7623786.09646  22588854.382    22588860.151
  22697711.505    -2219931.98649  -1719698.87446  22697710.242    22697716.082
  22173883.254    11013399.46749   8583953.75046  22173882.360    22173890.196
  24425263.508    14767758.34749  11506506.88445  24425262.613    24425272.144
  20489545.418    -6672460.90249  -5185903.56348  20489544.743    20489549.574
  22863426.031    -5098386.33749  -3952944.38146  22863425.621    22863433.220
 04  7 22 18  0 30.0000000  0  7G22G11G19G15G 3G14G25
  22204496.276     8646233.89649   6728956.58347  22204496.007    22204500.487
  22573980.110    -9876139.11249  -7684696.17246  22573979.450    22573985.286
  22708607.359    -2162674.12049  -1675082.38646  22708606.139    22708611.985
  22192438.477    11110907.03449   8659933.59146  22192437.475    22192445.374
  24442712.914    14859456.53449  11577959.94345  24442712.402    24442721.955
  20496183.692    -6637577.04149  -5158721.34848  20496182.958    20496187.785
  22845724.728    -5191405.76249  -4025426.96146  22845724.434    22845732.186
 04  7 22 18  1  0.0000000  0  7G22G11G19G15G 3G14G25
  22216058.369     8706993.23149   6776301.46747  22216058.123    22216062.597
  22559166.793    -9953983.60949  -7745354.18446  22559166.084    22559171.985
  22719582.761    -2104997.59849  -1630139.69346  22719581.671    22719587.346
  22211052.549    11208725.70049   8736155.82746  22211051.749    22211059.738
  24460164.061    14951160.58849  11649417.52245  24460163.301    24460172.888
  20502901.722    -6602273.75549  -5131212.31147  20502900.957    20502905.830
  22828064.990    -5284208.02349  -4097740.34746  22828064.740    22828072.514
 04  7 22 18  1 30.0000000  0  7G22G11G19G15G 3G14G25
  22227650.242     8767909.00549   6823768.26147  22227649.988    22227654.433
  22544415.247   -10031502.69349  -7805758.62646  22544414.716    22544420.543
  22730637.410    -2046905.08749  -1584872.86246  22730636.358    22730641.999
  22229725.848    11306853.53949   8812618.98746  22229724.972    22229732.884
  24477615.530    15042868.42849  11720878.32145  24477614.590    24477624.455
  20509699.123    -6566552.89049  -5103377.88747  20509698.411    20509703.295
  22810447.484    -5376790.42749  -4169882.41646  22810446.876    22810454.598
 04  7 22 18  2  0.0000000  0  7G22G11G19G15G 3G14G25
  22239272.042     8828981.17949   6871356.93247  22239271.772    22239276.183
  22529726.089   -10108693.73649  -7865907.44846  22529725.676    22529731.421
  22741770.754    -1988399.02949  -1539283.75646  22741769.670    22741775.323
  22248457.294    11405288.84449   8889321.74146  22248456.584    22248464.607
  24495066.528    15134575.61349  11792338.38045  24495065.849    24495075.871
  20516575.812    -6530416.01049  -5075219.29847  20516575.081    20516579.941
  22792871.934    -5469149.96749  -4241850.82746  22792871.394    22792879.079
 04  7 22 18  2 30.0000000  0  7G22G11G19G15G 3G14G25
  22250923.423     8890209.21749   6919067.05347  22250923.176    22250927.585
  22515099.952   -10185554.70949  -7925799.08146  22515099.531    22515105.230
  22752982.453    -1929482.47149  -1493374.80746  22752981.189    22752986.845
  22267247.129    11504029.40849   8966262.36246  22267246.425    22267254.381
  24512517.843    15226280.63449  11863796.81445  24512517.028    24512526.859
  20523531.249    -6493865.21549  -5046738.18047  20523530.486    20523535.349
  22775339.612    -5561284.16149  -4313643.64146  22775338.821    22775346.413
 04  7 22 18  3  0.0000000  0  7G22G11G19G15G 3G14G25
  22262604.402     8951592.43549   6966898.08747  22262604.129    22262608.399
  22500537.189   -10262083.82449  -7985432.12046  22500536.603    22500542.271
  22764271.469    -1870158.52949  -1447148.42446  22764270.244    22764275.963
  22286094.612    11603072.61249   9043438.81046  22286093.808    22286101.745
  24529967.779    15317979.78749  11935250.75045  24529966.958    24529976.796
  20530564.900    -6456902.95549  -5017936.42847  20530564.146    20530569.054
  22757850.461    -5653190.84449  -4385259.18346  22757849.589    22757857.160
 04  7 22 18  3 30.0000000  0  7G22G11G19G15G 3G14G25
  22274315.036     9013130.63449   7014849.89147  22274314.613    22274318.777
  22486037.815   -10338278.84149  -8044804.81946  22486037.180    22486042.882
  22775637.526    -1810429.73849  -1400606.57746  22775636.325    22775642.015
  22304999.194    11702416.40849   9120849.47246  22304998.341    22305006.276
  24547416.114    15409670.66149  12006698.29645  24547415.109    24547425.077
  20537676.501    -6419531.22749  -4988815.61647  20537675.783    20537680.667
  22740404.815    -5744867.30049  -4456695.32646  22740404.096    22740411.601
 04  7 22 18  4  0.0000000  0  7G22G11G19G15G 3G14G25
  22286055.183     9074824.67349   7062923.13247  22286054.695    22286058.824
  22471602.539   -10414136.43549  -8103914.59646  22471601.924    22471607.602
  22787080.243    -1750297.71749  -1353750.50446  22787079.134    22787084.895
  22323960.800    11802060.09149   9198493.79546  22323960.004    22323967.950
  24564861.993    15501349.98549  12078136.53745  24564860.870    24564871.060
  20544866.004    -6381750.35249  -4959375.99047  20544865.266    20544870.133
  22723003.803    -5836309.67249  -4527949.07046  22723003.122    22723010.612
 04  7 22 18  4 30.0000000  0  7G22G11G19G15G 3G14G25
  22297825.067     9136675.09749   7111118.22147  22297824.517    22297828.766
  22457232.110   -10489653.60049  -8162759.10046  22457231.482    22457237.127
  22798599.487    -1689764.24549  -1306581.59446  22798598.279    22798604.043
  22342979.406    11902002.53249   9276370.91746  22342978.537    22342986.511
  24582305.871    15593016.97449  12149565.30545  24582304.475    24582314.714
  20552133.137    -6343561.50549  -4929618.45947  20552132.375    20552137.283
  22705647.899    -5927514.37549  -4599017.61846  22705647.378    22705654.937
 04  7 22 18  5  0.0000000  0  7G22G11G19G15G 3G14G25
  22309624.448     9198680.84549   7159434.35447  22309623.858    22309628.137
  22442926.617   -10564829.09649  -8221337.38546  22442926.026    22442931.622
  22810194.444    -1628833.24049  -1259102.94646  22810193.152    22810198.862
  22362054.144    12002240.57449   9354478.40246  22362053.302    22362061.304
  24599746.426    15684667.79449  12220981.40445  24599745.070    24599755.489
  20559477.219    -6304967.71349  -4899545.39147  20559476.491    20559481.475
  22688337.798    -6018479.67449  -4669899.62946  22688337.211    22688344.794
 04  7 22 18  5 30.0000000  0  7G22G11G19G15G 3G14G25
  22321453.497     9260842.74849   7207872.14347  22321452.890    22321457.381
  22428686.676   -10639659.69749  -8279646.91546  22428686.154    22428691.812
  22821864.788    -1567506.09649  -1211315.61446  22821863.392    22821869.059
  22381185.175    12102773.25049   9432815.44346  22381184.138    22381192.153
  24617183.522    15776300.86849  12292383.67745  24617182.319    24617192.695
  20566898.277    -6265969.76649  -4869157.39547  20566897.593    20566902.562
  22671073.771    -6109201.89049  -4740592.21546  22671073.272    22671080.834
 04  7 22 18  6  0.0000000  0  7G22G11G19G15G 3G14G25
  22333311.912     9323160.28049   7256431.22746  22333311.411    22333316.072
  22414512.899   -10714143.53149  -8337686.22546  22414512.316    22414517.940
  22833609.696    -1505786.12149  -1163222.17146  22833608.371    22833613.930
  22400371.574    12203598.39649   9511380.38046  22400370.466    22400378.629
  24634616.804    15867913.09849  12363769.70245  24634615.650    24634626.108
  20574395.884    -6226569.84249  -4838456.16847  20574395.192    20574400.093
  22653856.641    -6199678.32849  -4811093.29746  22653856.172    22653863.665
 04  7 22 18  6 30.0000000  0  7G22G11G19G15G 3G14G25
  22345200.134     9385633.42449   7305111.54746  22345199.650    22345204.363
  22400405.651   -10788277.95049  -8395453.29146  22400405.012    22400410.485
  22845428.910    -1443675.65949  -1114824.45346  22845427.650    22845433.125
  22419613.325    12304714.28449   9590171.88646  22419612.305    22419620.407
  24652045.472    15959500.84649  12435136.62145  24652044.236    24652054.792
  20581969.624    -6186769.80849  -4807443.16447  20581968.880    20581973.825
  22636686.801    -6289906.25449  -4881400.71046  22636686.288    22636693.745
 04  7 22 18  7  0.0000000  0  7G22G11G19G15G 3G14G25
  22357117.680     9448261.34049   7353912.48646  22357117.300    22357122.158
  22386364.890   -10862061.84349  -8452947.20546  22386364.403    22386369.871
  22857321.812    -1381178.25749  -1066125.21046  22857320.596    22857326.191
  22438909.904    12406118.09449   9669187.75346  22438908.846    22438916.994
  24669469.073    16051062.81849  12506483.35545  24669468.022    24669478.354
  20589618.923    -6146572.11049  -4776120.29247  20589618.254    20589623.227
  22619564.565    -6379883.76249  -4951513.01346  22619564.182    22619571.533
 04  7 22 18  7 30.0000000  0  7G22G11G19G15G 3G14G25
  22369064.745     9511044.19149   7402834.14246  22369064.409    22369069.440
  22372391.377   -10935492.19849  -8510165.63146  22372390.996    22372396.521
  22869287.745    -1318296.26949  -1017126.32346  22869286.682    22869292.207
  22458261.011    12507808.17349   9748426.67746  22458259.930    22458268.121
  24686887.019    16142595.47649  12577807.36045  24686886.204    24686896.616
  20597343.705    -6105978.11749  -4744488.61647  20597343.096    20597348.033
  22602490.442    -6469607.76649  -5021427.77646  22602490.222    22602497.485
 04  7 22 18  8  0.0000000  0  7G22G11G19G15G 3G14G25
  22381041.503     9573981.97049   7451876.52646  22381041.117    22381046.022
  22358485.592   -11008567.20449  -8567107.17046  22358485.303    22358490.863
  22881326.542    -1255032.09149   -967829.60246  22881325.448    22881331.111
  22477666.068    12609782.57249   9827887.13946  22477665.076    22477673.285
  24704299.139    16234097.50849  12649107.82945  24704298.710    24704308.880
  20605143.649    -6064989.51549  -4712549.46247  20605142.966    20605147.898
  22585465.271    -6559075.53349  -5091142.86946  22585464.988    22585472.305
 04  7 22 18  8 30.0000000  0  7G22G11G19G15G 3G14G25
  22393047.550     9637072.70849   7501038.07346  22393047.066    22393051.718
  22344647.962   -11081285.68149  -8623770.89546  22344647.522    22344653.114
  22893437.259    -1191390.22649   -918238.60946  22893436.044    22893441.745
  22497124.585    12712037.62249   9907566.31246  22497123.575    22497131.827
  24721704.105    16325562.23149  12720378.90145  24721703.681    24721714.004
  20613017.821    -6023610.09149  -4680305.75747  20613017.175    20613022.149
  22568489.092    -6648285.82449  -5160657.33846  22568488.830    22568496.147
 04  7 22 18  9  0.0000000  0  6G22G11G19G15G14G25
  22405082.931     9700318.43249   7550320.39746  22405082.463    22405086.948
  22330878.752   -11153643.52949  -8680153.60246  22330878.225    22330883.945
  22905619.496    -1127371.75749   -868354.14646  22905618.280    22905624.073
  22516636.718    12814573.33149   9987464.14846  22516635.647    22516643.856
  20620966.541    -5981839.71449  -4647757.42747  20620965.862    20620970.828
  22551563.000    -6737233.98849  -5229967.54646  22551562.568    22551569.874
 04  7 22 18  9 30.0000000  0  7G22G11G19G15G 3G14G25
  22417148.564     9763722.89549   7599726.41646  22417148.071    22417152.388
  22317179.079   -11225634.67049  -8736250.59146  22317178.649    22317184.493
  22917873.726    -1062975.19449   -818175.04846  22917872.577    22917878.464
  22536202.394    12917391.59049  10067582.18446  22536201.363    22536209.614
                   -625922.15649   -501890.22343
  20628990.058    -5939676.04549  -4614902.63047  20628989.358    20628994.294
  22534688.005    -6825913.04849  -5299068.06646  22534687.451    22534694.738
 04  7 22 18 10  0.0000000  0  6G22G11G19G15G14G25
  22429243.080     9827278.97249   7649250.56546  22429242.558    22429246.654
  22303548.392   -11297263.84949  -8792065.50646  22303547.965    22303553.910
  22930198.117     -998210.36449   -767708.98546  22930196.925    22930202.864
  22555820.112    13020483.35249  10147913.31546  22555819.100    22555827.420
  20637086.628    -5897128.32049  -4581748.56647  20637085.893    20637090.853
  22517862.975    -6914327.44049  -5367962.35446  22517862.649    22517870.031
 04  7 22 18 10 30.0000000  0  7G22G11G19G15G 3G14G25
  22441366.287     9890987.04849   7698893.18446  22441365.796    22441369.930
  22289987.269   -11368528.14449  -8847596.10746  22289986.843    22289992.710
  22942592.143     -933079.53749   -716957.74646  22942590.925    22942596.938
  22575489.789    13123847.23649  10228456.50846  22575488.725    22575497.007
                   -443274.65249   -359567.20844                  24791259.831
  20645256.014    -5854197.73949  -4548296.17547  20645255.307    20645260.265
  22501089.243    -7002474.06049  -5436647.98246  22501088.870    22501096.267
 04  7 22 18 11  0.0000000  0  7G22G11G19G15G 3G14G25
  22453518.632     9954848.33249   7748655.16846  22453518.083    22453522.542
  22276495.995   -11439424.08949  -8902839.67246  22276495.673    22276501.510
  22955055.593     -867584.20749   -665922.47846  22955054.367    22955060.282
  22595211.024    13227482.43649  10309211.09346  22595209.891    22595218.195
  24808618.211     -352021.04749   -288460.06544  24808615.823    24808624.965
  20653498.232    -5810884.64249  -4514545.72147  20653497.551    20653502.526
  22484367.182    -7090348.65649  -5505121.62646  22484366.797    22484374.287
 04  7 22 18 11 30.0000000  0  7G22G11G19G15G 3G14G25
  22465699.772    10018861.36749   7798535.41446  22465699.340    22465703.979
  22263075.098   -11509950.80949  -8957795.52846  22263074.854    22263080.599
  22967587.464     -801728.33349   -614606.27846  22967586.261    22967592.366
  22614983.284    13331385.88349  10390174.71646  22614982.193    22614990.418
  24825972.474     -260821.66549   -217395.82144  24825970.328    24825979.355
  20661812.609    -5767192.35049  -4480499.78147  20661811.885    20661816.901
  22467697.014    -7177950.04349  -5573382.41246  22467696.777    22467704.207
 04  7 22 18 12  0.0000000  0  7G22G11G19G15G 3G14G25
  22477909.738    10083026.18749   7848533.91146  22477909.407    22477914.335
  22249725.200   -11580105.83849  -9012461.76346  22249724.926    22249730.437
  22980187.556     -735514.64349   -563011.24846  22980186.408    22980192.382
  22634806.041    13435555.40149  10471345.66846  22634805.090    22634813.302
  24843314.754     -169677.24448   -146374.30444                  24843311.405
  20670198.795    -5723122.60249  -4446159.71947  20670198.090    20670203.084
  22451079.684    -7265275.25149  -5641427.97846  22451079.281    22451086.668
 04  7 22 18 12 30.0000000  0  6G22G11G19G15G14G25
  22490149.792    10147348.73849   7898655.31146  22490149.554    22490154.547
  22236447.358   -11649881.14849  -9066832.11046  22236447.048    22236452.519
  22992856.276     -668939.96449   -511134.93546  22992855.158    22992861.206
  22654680.260    13539995.11249  10552727.14546  22654679.343    22654687.597
  20678657.588    -5678671.24449  -4411522.29947  20678656.884    20678661.892
  22434516.629    -7352315.37449  -5709251.40646  22434516.117    22434523.458
 04  7 22 18 13  0.0000000  0  6G22G11G19G15G14G25
  22502419.616    10211826.21749   7948897.42546  22502419.269    22502424.291
  22223241.611   -11719277.01049  -9120906.79846  22223241.430    22223246.876
  23005592.839     -602009.54549   -458981.43046  23005591.580    23005597.615
  22674605.241    13644700.40649  10634315.58546  22674604.248    22674612.401
  20687188.248    -5633842.76349  -4376591.01647  20687187.488    20687192.458
  22418007.808    -7439070.71949  -5776852.92846  22418007.146    22418014.440
 04  7 22 18 13 30.0000000  0  6G22G11G19G15G14G25
  22514718.211    10276454.32749   7999256.92546  22514717.775    22514722.608
  22210107.989   -11788295.41449  -9174687.33646  22210107.723    22210113.202
  23018395.383     -534730.27649   -406556.08046  23018394.407    23018400.569
  22694579.527    13749665.08449  10716106.13146  22694578.481    22694586.607
  20695789.401    -5588643.25949  -4341370.62447  20695788.664    20695793.670
  22401552.804    -7525542.34549  -5844233.36346  22401552.098    22401559.318
 04  7 22 18 14  0.0000000  0  6G22G11G19G15G14G25
  22527045.451    10341233.28649   8049733.96946  22527044.911    22527049.580
  22197046.573   -11856933.75449  -9228171.73446  22197046.245    22197051.813
  23031264.044     -467105.11649   -353861.23146  23031263.018    23031269.331
  22714602.498    13854887.28349  10798097.34646  22714601.589    22714609.872
  20704460.858    -5543074.30949  -4305862.35247  20704460.161    20704465.181
  22385152.247    -7611727.42749  -5911390.54846  22385151.672    22385158.801
 04  7 22 18 14 30.0000000  0  6G22G11G19G15G14G25
  22539401.574    10406164.89649   8100329.97546  22539401.097    22539405.558
  22184058.368   -11925188.08349  -9281356.90846  22184057.876    22184063.468
  23044198.566     -399134.87149   -300897.45746  23044197.464    23044203.824
  22734674.653    13960366.70949  10880288.97646  22734673.843    22734682.101
  20713202.571    -5497136.01249  -4270066.28347  20713201.909    20713206.922
  22368807.096    -7697621.65449  -5978321.07346  22368806.508    22368813.632
 04  7 22 18 15  0.0000000  0  6G22G11G19G15G14G25
  22551786.663    10471248.28649   8151044.22646  22551786.153    22551790.563
  22171143.435   -11993056.89249  -9334241.67346  22171142.797    22171148.505
  23057197.981     -330823.08049   -247667.56846  23057196.934    23057203.041
  22754795.049    14066100.60349  10962678.92546  22754794.324    22754802.697
  20722014.199    -5450831.03049  -4233984.49347  20722013.479    20722018.435
  22352517.810    -7783222.68849  -6045023.15746  22352517.155    22352524.240
 04  7 22 18 15 30.0000000  0  6G22G11G19G15G14G25
  22564200.588    10536484.89949   8201877.88946  22564200.239    22564204.797
  22158302.517   -12060536.09449  -9386822.86046  22158301.997    22158307.636
  23070262.060     -262171.24149   -194172.68146  23070260.990    23070267.102
  22774963.933    14172088.43149  11045266.73346  22774963.251    22774971.677
  20730895.423    -5404159.68849  -4197617.21747  20730894.750    20730899.753
  22336285.031    -7868526.19849  -6111493.40446  22336284.402    22336291.467
 04  7 22 18 16  0.0000000  0  6G22G11G19G15G14G25
  22576643.656    10601874.21649   8252830.54246  22576643.365    22576648.210
  22145536.069   -12127624.31549  -9439099.37346  22145535.535    22145541.169
  23083390.344     -193182.13149   -140415.00846  23083389.332    23083395.285
  22795180.616    14278328.03749  11128050.74346  22795180.035    22795188.468
  20739846.022    -5357124.06249  -4160966.08847  20739845.344    20739850.347
  22320109.183    -7953530.27449  -6177730.33046  22320108.631    22320115.682
 04  7 22 18 16 30.0000000  0  6G22G11G19G15G14G25
  22589115.734    10667415.29349   8303901.44546  22589115.441    22589120.412
  22132844.320   -12194320.09649  -9491070.09846  22132843.811    22132849.326
  23096582.128     -123859.85549    -86397.73346  23096581.000    23096586.995
  22815444.855    14384816.50949  11211028.65846  22815444.197    22815452.655
  20748865.350    -5309727.23949  -4124033.50647  20748864.650    20748869.674
  22303990.781    -8038233.05449  -6243732.44646  22303990.209    22303997.253
 04  7 22 18 17  0.0000000  0  6G22G11G19G15G14G25
  22601616.804    10733108.12549   8355090.59746  22601616.446    22601621.451
  22120227.539   -12260621.01949  -9542733.13446  22120227.105    22120232.593
  23109836.683      -54206.91349    -32122.80246  23109835.554    23109841.559
  22835756.024    14491551.82249  11294198.93046  22835755.345    22835763.839
  20757953.199    -5261970.68749  -4086820.61747  20757952.459    20757957.439
  22287930.264    -8122631.52649  -6309497.46046  22287929.727    22287936.791
 04  7 22 18 17 30.0000000  0  6G22G11G19G15G14G25
  22614146.720    10798951.83449   8406397.31646  22614146.222    22614151.211
  22107686.297   -12326525.80249  -9594087.49346  22107685.898    22107691.333
  23123153.350       15772.63149     22406.65846  23123152.305    23123158.366
  22856113.580    14598530.48149  11377558.79946  22856112.802    22856121.293
  20767108.895    -5213857.36449  -4049329.72147  20767108.140    20767113.088
  22271928.031    -8206723.98749  -6375024.01846  22271927.446    22271934.519
 04  7 22 18 18  0.0000000  0  6G22G11G19G15G14G25
  22626705.262    10864946.78549   8457821.88546  22626704.698    22626709.767
  22095220.975   -12392032.03549  -9645131.29846  22095220.447    22095225.893
  23136531.947       86076.74649     77188.98346  23136530.773    23136536.777
  22876517.063    14705751.22749  11461107.32346  22876516.338    22876524.878
  20776332.258    -5165388.53949  -4011561.81647  20776331.475    20776336.439
  22255984.469    -8290507.49549  -6440309.84646  22255983.893    22255990.993
 04  7 22 18 18 30.0000000  0  6G22G11G19G15G14G25
  22639292.586    10931093.82049   8509364.95746  22639292.085    22639297.013
  22082831.882   -12457136.28149  -9695861.87246  22082831.504    22082836.938
  23149971.674      156703.32749    132222.59246  23149970.588    23149976.687
  22896966.519    14813212.59049  11544843.32746  22896965.710    22896974.279
  20785622.872    -5116565.34049  -3973517.77847  20785622.213    20785627.176
  22240100.558    -8373978.18849  -6505351.90446  22240099.939    22240107.058
 04  7 22 18 19  0.0000000  0  6G22G11G19G15G14G25
  22651908.540    10997392.56149   8561026.24346  22651908.191    22651913.174
  22070519.857   -12521837.07149  -9746278.06146  22070519.368    22070524.811
  23163472.604      227649.24449    187505.01546  23163471.322    23163477.362
  22917461.237    14920912.45449  11628765.18046  22917460.303    22917469.008
  20794980.732    -5067389.85449  -3935199.23247  20794980.015    20794984.964
  22224276.383    -8457133.62549  -6570148.31746  22224275.974    22224283.070
 04  7 22 18 19 30.0000000  0  6G22G11G19G15G14G25
  22664553.708    11063843.38049   8612806.02346  22664553.426    22664558.406
  22058285.023   -12586131.44549  -9796377.57046  22058284.498    22058290.033
  23177033.636      298911.88249    243034.24246  23177032.314    23177038.299
  22938000.845    15028849.20349  11712871.57146  22938000.073    22938008.856
  20804405.284    -5017863.53349  -3896607.31047  20804404.580    20804409.536
  22208512.923    -8539970.94149  -6634696.84346  22208512.477    22208519.642
 04  7 22 18 20  0.0000000  0  6G22G11G19G15G14G25
  22677227.633    11130444.33049   8664702.78546  22677227.292    22677232.228
  22046127.611   -12650019.19249  -9846160.21446  22046127.034    22046132.553
  23190653.658      370486.65649    298806.67946  23190652.515    23190658.594
  22958584.941    15137019.04349  11797159.62546  22958584.202    22958593.068
  20813895.906    -4967990.10649  -3857744.91447  20813895.170    20813900.114
  22192810.109    -8622489.28949  -6698996.82646  22192809.728    22192816.846
 04  7 22 18 20 30.0000000  0  6G22G11G19G15G14G25
  22689930.235    11197196.50549   8716717.41346  22689929.868    22689934.819
  22034048.359   -12713496.98549  -9895623.41647  22034047.656    22034053.092
  23204332.871      442371.85049    354821.02746  23204331.865    23204337.985
  22979212.971    15245420.99249  11881628.57546  22979212.391    22979221.201
  20823452.397    -4917770.32249  -3818612.62947  20823451.674    20823456.622
  22177168.876    -8704684.80449  -6763045.23546  22177168.436    22177175.531
 04  7 22 18 21  0.0000000  0  6G22G11G19G15G14G25
  22702661.594    11264098.67449   8768848.88846  22702661.104    22702666.041
  22022047.021   -12776563.82749  -9944766.39647  22022046.415    22022051.904
  23218070.737      514563.24049    411073.98846  23218069.594    23218075.643
  22999885.203    15354051.71149  11966275.74346  22999884.271    22999893.108
  20833074.226    -4867207.35849  -3779212.93447  20833073.523    20833078.509
  22161589.056    -8786556.43449  -6826841.26946  22161588.762    22161595.919
 04  7 22 18 21 30.0000000  0  6G22G11G19G15G14G25
  22715421.281    11331150.23949   8821096.79146  22715420.801    22715425.717
  22010124.356   -12839217.88149  -9993587.72247  22010123.758    22010129.240
  23231866.199      587057.64249    467563.04946  23231864.915    23231870.993
  23020600.070    15462908.71049  12051099.23546  23020599.111    23020608.152
  20842761.008    -4816303.39249  -3739547.52547  20842760.247    20842765.191
  22146071.445    -8868101.50549  -6890382.83146  22146071.204    22146078.337
 04  7 22 18 22  0.0000000  0  6G22G11G19G15G14G25
  22728209.646    11398353.66149   8873463.01946  22728209.209    22728214.144
  21998281.027   -12901455.01449 -10042084.18747  21998280.437    21998285.863
  23245718.870      659854.53249    524287.79846  23245717.675    23245723.889
  23041357.934    15571992.26549  12136099.28445  23041357.201    23041366.137
  20852512.675    -4765057.79249  -3699615.91747  20852511.946    20852516.898
  22130617.106    -8949315.15949  -6953666.16846  22130616.773    22130623.793
 04  7 22 18 22 30.0000000  0  6G22G11G19G15G14G25
  22741026.858    11465708.69849   8925947.38346  22741026.376    22741031.346
  21986517.269   -12963273.01549 -10090254.05047  21986516.811    21986522.339
  23259628.442      732950.64449    581245.69746  23259627.396    23259633.547
  23062158.657    15681300.06049  12221274.05545  23062157.800    23062166.816
  20862328.998    -4713473.02849  -3659420.01847  20862328.221    20862333.171
  22115226.092    -9030195.34249  -7016689.65146  22115225.758    22115232.784
 04  7 22 18 23  0.0000000  0  6G22G11G19G15G14G25
  22753872.605    11533214.98249   8978549.61046  22753872.392    22753877.321
  21974833.857   -13024670.14849 -10138095.97847  21974833.359    21974838.828
  23273594.495      806342.82449    638434.31446  23273593.466    23273599.709
  23083001.440    15790829.69049  12306621.68445  23083000.711    23083009.777
  20872209.481    -4661550.87249  -3618961.22147  20872208.721    20872213.683
  22099899.135    -9110739.09449  -7079450.97646  22099898.778    22099905.780
 04  7 22 18 23 30.0000000  0  6G22G11G19G15G14G25
  22766747.311    11600870.95449   9031268.46646  22766747.019    22766751.872
  21963230.607   -13085645.64649 -10185609.35547  21963230.112    21963235.434
  23287616.392      880026.66349    695850.18346  23287615.249    23287621.339
  23103885.907    15900577.61249  12392139.40945  23103885.064    23103894.236
  20882153.448    -4609295.02049  -3578242.39747  20882152.687    20882157.683
  22084636.386    -9190945.41349  -7141949.36347  22084636.004    22084642.979
 04  7 22 18 24  0.0000000  0  6G22G11G19G15G14G25
  22779650.309    11668675.80649   9084103.33546  22779649.956    22779654.913
  21951707.773   -13146198.10049 -10232793.07447  21951707.300    21951712.655
  23301693.047      953998.66749    753490.59646  23301691.714    23301697.881
  23124811.475    16010540.98849  12477825.04445  23124810.517    23124819.761
  20892160.490    -4556707.94749  -3537265.48847  20892159.699    20892164.687
  22069438.196    -9270812.47049  -7204183.39047  22069437.796    22069444.810
 04  7 22 18 24 30.0000000  0  6G22G11G19G15G14G25
  22792581.830    11736630.21349   9137054.74146  22792581.454    22792586.372
  21940265.931   -13206324.79649 -10279645.04247  21940265.461    21940270.985
  23315823.989     1028256.40649    811353.66546  23315822.622    23315828.780
  23145777.748    16120718.68249  12563677.62945  23145776.742    23145785.988
  20902230.292    -4503790.64049  -3496031.24847  20902229.528    20902234.517
  22054305.029    -9350337.06349  -7266150.57747  22054304.673    22054311.723
 04  7 22 18 25  0.0000000  0  6G22G11G19G15G14G25
  22805541.619    11804734.17449   9190122.67246  22805541.232    22805546.227
  21928905.645   -13266023.55449 -10326163.56547  21928905.195    21928910.714
  23330008.476     1102797.11649    869437.23846  23330007.142    23330013.575
  23166784.265    16231108.39849  12649695.46345  23166783.289    23166792.498
  20912362.550    -4450545.28349  -3454541.39247  20912361.793    20912366.838
  22039237.660    -9429516.53949  -7327848.83347  22039237.333    22039244.400
 04  7 22 18 25 30.0000000  0  6G22G11G19G15G14G25
  22818529.978    11872988.87149   9243308.05146  22818529.630    22818534.847
  21917627.450   -13325291.16349 -10372346.10747  21917626.952    21917632.499
  23344246.668     1177619.24349    927740.04346  23344245.485    23344251.933
  23187831.090    16341709.21049  12735877.77545  23187830.109    23187839.254
  20922557.126    -4396972.37849  -3412796.29347  20922556.405    20922561.465
  22024236.630    -9508347.32449  -7389275.38347  22024236.269    22024243.366
 04  7 22 18 26  0.0000000  0  6G22G11G19G15G14G25
  22831546.709    11941392.28049   9296609.33146  22831546.419    22831551.551
  21906431.438   -13384127.36949 -10418192.51247  21906430.913    21906436.436
  23358537.629     1252717.67049    986258.17246  23358536.312    23358542.777
  23208917.087    16452517.33949  12822221.61945  23208916.272    23208925.473
  20932813.362    -4343075.60749  -3370798.84047  20932812.625    20932817.705
  22009302.027    -9586828.82349  -7450429.76047  22009301.678    22009308.739
 04  7 22 18 26 30.0000000  0  6G22G11G19G15G14G25
  22844592.066    12009944.83149   9350026.79846  22844591.667    22844596.613
  21895317.755   -13442529.59249 -10463700.73947  21895317.287    21895322.867
  23372880.791     1328089.95249   1044989.72346  23372879.332    23372885.783
  23230042.249    16563530.68149  12908725.38345  23230041.557    23230050.815
  20943130.934    -4288856.64249  -3328550.32147  20943130.213    20943135.258
  21994434.665    -9664957.72849  -7511309.39747  21994434.260    21994441.276
 04  7 22 18 27  0.0000000  0  6G22G11G19G15G14G25
  22857665.762    12078646.80749   9403560.73246  22857665.288    22857670.276
  21884287.240   -13500495.41949 -10508868.92347  21884286.774    21884292.235
  23387275.251     1403733.72249   1103932.83046  23387273.927    23387280.392
  23251206.366    16674747.69849  12995387.86345  23251205.636    23251214.924
  20953509.560    -4234316.79449  -3286051.76547  20953508.828    20953513.864
  21979634.925    -9742730.95049  -7571911.86947  21979634.476    21979641.476
 04  7 22 18 27 30.0000000  0  6G22G11G19G15G14G25
  22870767.773    12147497.58649   9457210.60846  22870767.177    22870772.313
  21873339.988   -13558023.32249 -10553695.86347  21873339.552    21873344.967
  23401720.986     1479644.96549   1163084.33246  23401719.407    23401726.004
  23272408.841    16786165.60149  13082206.81245  23272408.016    23272417.190
  20963948.797    -4179458.54849  -3243305.11247  20963948.041    20963953.065
  21964903.086    -9820147.18349  -7632236.17747  21964902.654    21964909.638
 04  7 22 18 28  0.0000000  0  6G22G11G19G15G14G25
  22883897.881    12216497.42149   9510976.61046  22883897.378    22883902.671
  21862476.507   -13615111.35949 -10598180.04447  21862476.082    21862481.566
  23416217.026     1555821.49949   1222442.56346  23416215.561    23416222.118
  23293648.955    16897782.77949  13169181.07845  23293648.203    23293657.464
  20974448.229    -4124283.53649  -3200311.62447  20974447.522    20974452.570
  21950239.785    -9897203.26749  -7692279.85547  21950239.375    21950246.320
 04  7 22 18 28 30.0000000  0  6G22G11G19G15G14G25
  22897056.436    12285646.51649   9564858.92646  22897056.028    22897061.420
  21851697.276   -13671757.11749 -10642319.60047  21851696.785    21851702.236
  23430763.040     1632260.32649   1282005.16946  23430761.501    23430768.049
  23314926.585    17009596.98849  13256308.89045  23314925.792    23314935.075
  20985007.639    -4068793.44749  -3157072.62647  20985006.952    20985011.992
  21935645.452    -9973896.49149  -7752040.78047  21935645.099    21935652.078
 04  7 22 18 29  0.0000000  0  6G22G11G19G15G14G25
  22910243.440    12354943.82249   9618856.72646  22910243.088    22910248.341
  21841002.241   -13727959.54749 -10686113.70047  21841001.779    21841007.256
  23445358.173     1708957.31149   1341768.93146  23445356.577    23445363.159
  23336241.393    17121605.09149  13343587.76145  23336240.327    23336249.590
  20995626.469    -4012991.29049  -3113590.45747  20995625.781    20995630.807
  21921120.486   -10050225.53349  -7811517.92047  21921120.044    21921127.089
 04  7 22 18 29 30.0000000  0  6G22G11G19G15G14G25
  22923458.675    12424389.47749   9672970.14046  22923458.250    22923463.470
  21830391.964   -13783716.31849 -10729560.53947  21830391.534    21830397.082
  23460001.509     1785909.72949   1401731.72246  23460000.150    23460006.735
  23357592.327    17233805.22949  13431016.25145  23357591.415    23357600.714
  21006304.379    -3956878.69349  -3069866.39747  21006303.679    21006308.692
  21906665.394   -10126187.49449  -7870709.05347  21906664.941    21906671.906
 04  7 22 18 30  0.0000000  0  6G22G11G19G15G14G25
  22936702.263    12493984.53649   9727199.95546  22936701.901    22936706.857
  21819867.249   -13839024.31149 -10772657.66347  21819866.791    21819872.315
  23474693.402     1863115.73049   1461892.09646  23474691.968    23474698.610
  23378979.590    17346196.19249  13518593.48245  23378978.779    23378988.175
  21017041.181    -3900456.40549  -3025901.00747  21017040.495    21017045.555
  21892280.779   -10201778.69549  -7929611.24447  21892280.330    21892287.342
 04  7 22 18 30 30.0000000  0  6G22G11G19G15G14G25
  22949973.814    12563726.70449   9781544.41146  22949973.424    22949978.367
  21809428.039   -13893883.84149 -10815405.36247  21809427.377    21809432.807
  23489432.649     1940570.51349   1522246.33046  23489431.275    23489437.913
  23400402.469    17458773.89649  13606316.19245  23400401.649    23400411.222
  21027836.177    -3843728.30949  -2981697.32947  21027835.492    21027840.587
  21877966.728   -10276998.82149  -7988224.29547  21877966.369    21877973.429
 04  7 22 18 31  0.0000000  0  6G22G11G19G15G14G25
  22963273.671    12633618.37049   9836005.35546  22963273.266    22963278.575
  21799074.892   -13948290.55349 -10857800.18747  21799074.175    21799079.611
  23504218.818     2018272.91749   1582793.54546  23504217.568    23504224.322
  23421860.752    17571538.52349  13694184.58445  23421860.123    23421869.776
  21038689.382    -3786694.14949  -2937255.15447  21038688.769    21038693.881
  21863724.247   -10351843.29249  -8046544.64347  21863723.979    21863731.004
 04  7 22 18 31 30.0000000  0  6G22G11G19G15G14G25
  22976601.959    12703658.10349   9890581.66546  22976601.659    22976606.897
  21788807.898   -14002243.88049 -10899841.74147  21788807.223    21788812.579
  23519051.451     2096219.06049   1643530.67046  23519050.330    23519057.102
  23443354.026    17684486.59349  13782195.90245  23443353.484    23443363.312
  21049600.312    -3729357.07549  -2892576.95247  21049599.675    21049604.757
  21849553.637   -10426310.85449  -8104571.28747  21849553.289    21849560.268
 04  7 22 18 32  0.0000000  0  7G22G11G19G15G14G25G 1
  22989958.353    12773844.99149   9945272.65646  22989957.963    22989963.127
  21778627.325   -14055742.76349 -10941529.18347  21778626.731    21778632.095
  23533929.844     2174405.04349   1704454.68346  23533928.769    23533935.587
  23464882.308    17797615.02049  13870347.72445  23464881.410    23464891.156
  21060568.377    -3671719.85749  -2847664.86347  21060567.712    21060572.828
  21835454.848   -10500400.01349  -8162303.06147  21835454.569    21835461.581
                   -810891.81049   -608291.09444                  24282466.069
 04  7 22 18 32 30.0000000  0  7G22G11G19G15G14G25G 1
  23003342.370    12844178.31649  10000077.74146  23003341.898    23003347.155
  21768533.539   -14108785.87349 -10982861.48247  21768532.968    21768538.395
  23548853.281     2252827.19149   1765562.71446  23548852.109    23548858.923
  23486443.873    17910921.04049  13958637.96245  23486443.022    23486452.550
  21071593.074    -3613784.83649  -2802520.72147  21071592.370    21071597.520
  21821428.534   -10574109.02049  -8219738.62047  21821428.240    21821435.237
  24264511.117     -905186.92849   -681767.75145  24264512.478    24264524.046
 04  7 22 18 33  0.0000000  0  7G22G11G19G15G14G25G 1
  23016754.052    12914657.75349  10054996.68946  23016753.592    23016758.951
  21758526.830   -14161371.33549 -11023837.16447  21758526.315    21758531.806
  23563821.121     2331482.10258   1826852.10146  23563819.757    23563826.493
  23508038.892    18024402.06249  14047064.54545  23508037.903    23508047.503
  21082673.979    -3555554.21749  -2757146.24547  21082673.339    21082678.511
  21807475.025   -10647435.73849  -8276876.29847  21807474.610    21807481.515
  24246599.869     -999317.17657   -755115.90645  24246600.418    24246608.904
 04  7 22 18 33 30.0000000  0  7G22G11G19G15G14G25G 1
  23030193.915    12985284.31049  10110030.26946  23030193.538    23030198.797
  21748607.708   -14213496.55849 -11064454.22047  21748607.173    21748612.774
  23578832.618     2410366.84549   1888320.37146  23578831.174    23578837.963
  23529666.657    18138057.03649  14135626.70345  23529665.751    23529675.553
  21093811.033    -3497029.08249  -2711542.27447  21093810.339    21093815.514
  21793594.808   -10720376.67949  -8333713.37047  21793594.419    21793601.252
  24228719.142    -1093281.62849   -828334.59544  24228719.147    24228726.762
 04  7 22 18 34  0.0000000  0  7G22G11G19G15G14G25G 1
  23043661.924    13056057.94749  10165178.47246  23043661.505    23043666.796
  21738776.589   -14265159.18749 -11104710.81347  21738776.128    21738781.685
  23593887.485     2489480.38949   1949967.13346  23593886.162    23593892.969
  23551327.488    18251883.90649  14224322.81545  23551326.466    23551336.255
  21105003.640    -3438211.23049  -2665710.21847  21105003.000    21105008.168
  21779788.522   -10792929.27149  -8390247.81847  21779788.137    21779794.948
  24210870.043    -1187078.82849   -901423.31045  24210870.282    24210878.941
 04  7 22 18 34 30.0000000  0  7G22G11G19G15G14G25G 1
  23057157.878    13126980.08849  10220442.38346  23057157.492    23057163.061
  21729034.345   -14316355.88049 -11144604.33747  21729033.783    21729039.251
  23608985.692     2568820.38449   2011790.35846  23608984.260    23608991.086
  23573020.792    18365882.01549  14313152.31845  23573019.788    23573029.584
  21116252.018    -3379100.85549  -2619650.21047  21116251.343    21116256.517
  21766056.937   -10865089.65649  -8446476.65247  21766056.463    21766063.301
  24193053.583    -1280706.02249   -974379.49345  24193053.668    24193062.053
 04  7 22 18 35  0.0000000  0  7G22G11G19G15G14G25G 1
  23070681.953    13198050.94249  10275822.15646  23070681.710    23070687.495
  21719381.001   -14367084.98849 -11184133.51347  21719380.346    21719385.788
  23624126.242     2648383.90949   2073787.76646  23624124.808    23624131.713
  23594746.084    18480049.05149  14402113.45845  23594745.196    23594754.978
  21127555.693    -3319699.77849  -2573363.70047  21127555.048    21127560.246
  21752400.312   -10936855.61849  -8502398.15547  21752399.837    21752406.675
  24175269.694    -1374162.00049  -1047202.27045  24175269.231    24175278.319
 04  7 22 18 35 30.0000000  0  7G22G11G19G15G14G25G 1
  23084234.344    13269269.45249  10331317.00846  23084234.127    23084239.898
  21709816.641   -14417345.52049 -11223297.55647  21709816.077    21709821.553
  23639308.411     2728166.96449   2135956.23446  23639307.048    23639314.016
  23616503.180    18594382.01049  14491203.87545  23616502.165    23616512.086
  21138914.179    -3260010.71649  -2526852.77247  21138913.535    21138918.727
  21738819.131   -11008225.40449  -8558010.93947  21738818.619    21738825.431
  24157518.337    -1467446.41549  -1119891.38145  24157517.700    24157527.036
 04  7 22 18 36  0.0000000  0  7G22G11G19G15G14G25G 1
  23097815.114    13340634.47149  10386925.99546  23097814.695    23097820.351
  21700341.640   -14467136.31549 -11262095.57747  21700341.157    21700346.653
  23654531.758     2808165.57549   2198292.68345  23654530.339    23654537.344
  23638291.337    18708877.76349  14580421.12845  23638290.083    23638299.948
  21150326.832    -3200036.50449  -2480119.65047  21150326.244    21150331.473
  21725313.362   -11079197.65749  -8613313.94247  21725312.939    21725319.841
  24139799.249    -1560559.42249  -1192446.89845  24139798.416    24139808.315
 04  7 22 18 36 30.0000000  0  7G22G11G19G15G14G25G 1
  23111423.466    13412145.35149  10442648.64146  23111423.045    23111428.585
  21690956.391   -14516456.31549 -11300526.75347  21690955.903    21690961.320
  23669795.362     2888376.19049   2260794.28445  23669793.873    23669801.086
  23660109.664    18823533.69549  14669763.22045  23660108.428    23660118.607
  21161793.371    -3139779.65249  -2433166.29547  21161792.766    21161797.993
  21711883.692   -11149770.82349  -8668305.99047  21711883.316    21711890.158
  24122113.095    -1653500.37049  -1264868.37045  24122112.170    24122122.457
 04  7 22 18 37  0.0000000  0  7G22G11G19G15G14G25G 1
  23125059.441    13483803.74249  10498486.25446  23125059.075    23125064.818
  21681661.493   -14565301.94349 -11338588.27747  21681660.918    21681666.304
  23685098.797     2968797.55849   2323460.11645  23685097.727    23685104.675
  23681958.545    18938349.19749  14759229.66345  23681957.392    23681967.388
  21173313.677    -3079240.40349  -2385992.88947  21173313.050    21173318.227
  21698530.840   -11219940.91449  -8722983.94347  21698530.380    21698537.201
  24104460.319    -1746266.52449  -1337153.63045  24104459.319    24104469.520
 04  7 22 18 37 30.0000000  0  7G22G11G19G15G14G25G 1
  23138723.496    13555609.35149  10554438.57846  23138723.255    23138729.232
  21672457.000   -14613671.95249 -11376279.19647  21672456.451    21672461.776
  23700442.056     3049425.93249   2386287.29445  23700441.005    23700447.941
  23703837.069    19053321.71549  14848818.39245  23703835.966    23703846.157
  21184887.293    -3018421.03249  -2338601.20147  21184886.638    21184891.819
  21685254.865   -11289706.04449  -8777346.33647  21685254.471    21685261.280
  24086841.017    -1838857.31049  -1409302.21045  24086840.077    24086850.017
 04  7 22 18 38  0.0000000  0  7G22G11G19G15G14G25G 1
  23152415.752    13627560.12149  10610504.02346  23152415.396    23152421.037
  21663342.902   -14661566.04849 -11413599.27447  21663342.410    21663347.838
  23715823.988     3130256.75449   2449272.22545  23715822.828    23715829.553
  23725745.181    19168447.40049  14938526.50145  23725743.870    23725754.046
  21196513.426    -2957325.02549  -2290993.95347  21196512.790    21196518.077
  21672056.227   -11359065.34349  -8831392.50247  21672055.838    21672062.629
  24069254.639    -1931273.11248  -1481314.46945  24069253.972    24069264.045
 04  7 22 18 38 30.0000000  0  7G22G11G19G15G14G25G 1
  23166135.496    13699656.23449  10666682.71746  23166134.919    23166140.397
  21654319.983   -14708982.43149 -11450547.11047  21654319.407    21654324.822
  23731243.261     3211286.05349   2512411.57545  23731242.243    23731249.167
  23747681.792    19283724.08949  15028352.27245  23747680.472    23747690.650
  21208191.969    -2895954.01649  -2243172.41947  21208191.355    21208196.624
  21658935.186   -11428016.72449  -8885120.80047  21658934.782    21658941.552
  24051701.922    -2023512.38149  -1553188.90845  24051701.494    24051711.137
 04  7 22 18 39  0.0000000  0  7G22G11G19G15G14G25G 1
  23179882.502    13771899.14849  10722975.77146  23179882.112    23179887.851
  21645388.604   -14755917.74549 -11487120.07047  21645387.860    21645393.314
  23746700.619     3292514.62849   2575706.42945  23746699.592    23746706.554
  23769646.885    19399151.17649  15118295.27245  23769645.716    23769655.831
  21219922.789    -2834308.25449  -2195136.79347  21219922.173    21219927.442
  21645892.445   -11496556.40149  -8938528.30247  21645892.081    21645898.837
  24034183.417    -2115574.08749  -1624925.19845  24034182.533    24034192.271
 04  7 22 18 39 30.0000000  0  7G22G11G19G15G14G25G 1
  23193657.804    13844288.37149  10779382.85346  23193657.434    23193663.303
  21636548.911   -14802370.62249 -11523317.12447  21636548.199    21636553.584
  23762195.068     3373937.72049   2639152.85745  23762194.075    23762201.145
  23791640.498    19514726.00149  15208353.32445  23791639.001    23791649.224
  21231705.426    -2772390.35249  -2146889.11547  21231704.787    21231710.032
  21632928.531   -11564682.38149  -8991613.44647  21632928.116    21632934.888
  24016698.540    -2207456.86249  -1696522.05545  24016697.747    24016707.340
 04  7 22 18 40  0.0000000  0  7G22G11G19G15G14G25G 1
  23207460.924    13916822.63249  10835902.94946  23207460.509    23207466.405
  21627800.957   -14848340.51549 -11559137.81547  21627800.355    21627805.811
  23777725.720     3455551.12849   2702747.55045  23777724.744    23777731.882
  23813661.398    19630445.09549  15298523.81345  23813659.806    23813670.075
  21243539.276    -2710203.46549  -2098431.82747  21243538.574    21243543.894
  21620043.345   -11632393.83349  -9044375.56647  21620042.996    21620049.834
  23999247.876    -2299160.71049  -1767979.52945  23999246.938    23999256.979
 04  7 22 18 40 30.0000000  0  7G22G11G19G15G14G25G 1
  23221291.462    13989502.00949  10892536.13646  23221291.095    23221296.856
  21619145.326   -14893825.75549 -11594580.86147  21619144.777    21619150.275
  23793292.052     3537352.00749   2766488.34246  23793291.127    23793298.198
  23835709.124    19746306.20149  15388804.96445  23835707.594    23835718.088
  21255423.919    -2647749.01149  -2049766.05347  21255423.277    21255428.622
  21607237.581   -11699688.19349  -9096812.66747  21607237.211    21607244.077
  23981831.344    -2390684.52949  -1839296.73045  23981830.314    23981840.614
 04  7 22 18 41  0.0000000  0  7G22G11G19G15G14G25G 1
  23235149.583    14062327.60149  10949283.22646  23235149.341    23235154.854
  21610582.651   -14938823.42749 -11629643.98547  21610582.065    21610587.513
  23808893.839     3619338.33449   2830373.63745  23808892.706    23808899.879
  23857783.586    19862308.55449  15479196.17645  23857782.241    23857792.837
  21267359.444    -2585027.76149  -2000892.38047  21267358.764    21267364.065
  21594511.959   -11766562.13749  -9148922.20547  21594511.571    21594518.336
  23964449.268    -2482026.19449  -1910471.98545  23964448.528    23964458.700
 04  7 22 18 41 30.0000000  0  8G22G11G19G15G14G25G20G 1
  23249035.518    14135299.06649  11006144.00146  23249035.317    23249040.848
  21602112.896   -14983332.01049 -11664325.98947  21602112.399    21602117.838
  23824530.220     3701507.29049   2894401.23546  23824529.211    23824536.316
  23879884.848    19978449.93949  15569695.69545  23879883.340    23879894.024
  21279345.346    -2522041.43649  -1951812.16747  21279344.686    21279350.043
  21581866.657   -11833013.42049  -9200702.37747  21581866.265    21581873.025
                   -692209.77049   -524686.19943
  23947102.352    -2573184.66249  -1981504.46145  23947101.558    23947111.642
 04  7 22 18 42  0.0000000  0  8G22G11G19G15G14G25G20G 1
  23262949.346    14208414.62649  11063117.08546  23262948.885    23262954.586
  21593736.211   -15027351.37349 -11698626.80647  21593735.788    21593741.191
  23840200.504     3783853.74149   2958567.17246  23840199.324    23840206.491
  23902011.430    20094726.03449  15660300.23345  23902010.163    23902020.911
  21291381.003    -2458794.11449  -1902528.56447  21291380.294    21291385.570
  21569301.718   -11899042.09249  -9252153.24347  21569301.363    21569308.139
                   -781461.67249   -371383.51143
  23929789.797    -2664160.98249  -2052395.02145  23929789.212    23929799.498
 04  7 22 18 42 30.0000000  0  8G22G11G19G15G14G25G20G 1
  23276890.186    14281673.26949  11120201.62546  23276889.675    23276895.427
  21585452.832   -15070881.01649 -11732546.00747  21585452.422    21585457.739
  23855903.735     3866373.85549   3022868.44246  23855902.502    23855909.812
  23924163.299    20211133.77649  15751007.34845  23924162.176    23924172.734
  21303465.773    -2395288.27949  -1853043.53547  21303465.038    21303470.386
  21556817.619   -11964646.86849  -9303273.80347  21556817.186    21556823.885
                   -870704.28749   -440922.64143                  24291900.255
  23912512.210    -2754954.90749  -2123143.46645  23912511.662    23912521.802
 04  7 22 18 43  0.0000000  0  8G22G11G19G15G14G25G20G 1
  23290858.045    14355076.56949  11177398.89346  23290857.784    23290863.710
  21577263.218   -15113917.36849 -11766080.81547  21577262.822    21577268.178
  23871639.671     3949066.17749   3087303.86546  23871638.439    23871645.847
  23946340.245    20327672.71449  15841816.64345  23946338.985    23946349.499
  21315599.719    -2331524.11949  -1803357.20347  21315598.998    21315604.352
  21544414.753   -12029823.99549  -9354061.12847  21544414.283    21544421.040
  24274910.372     -959935.36249   -510453.27345  24274908.980    24274918.539
  23895270.116    -2845563.78849  -2193747.69745  23895269.240    23895279.123
 04  7 22 18 43 30.0000000  0  8G22G11G19G15G14G25G20G 1
  23304853.789    14428624.30249  11234708.70846  23304853.595    23304859.453
  21569167.782   -15156459.25749 -11799230.32047  21569167.396    21569172.678
  23887407.810     4031927.60449   3151871.07546  23887406.482    23887413.913
  23968541.269    20444340.31049  15932726.21445  23968540.224    23968550.909
  21327782.445    -2267503.80449  -1753471.27947  21327781.684    21327787.065
  21532093.754   -12094571.15249  -9404513.41047  21532093.282    21532100.070
  24257932.486    -1049154.33649   -579974.45745  24257931.523    24257940.842
  23878063.124    -2935986.93749  -2264207.19945  23878062.331    23878072.441
 04  7 22 18 44  0.0000000  0  8G22G11G19G15G14G25G20G 1
  23318877.576    14502317.56149  11292131.94246  23318877.177    23318882.950
  21561166.957   -15198504.07349 -11831992.52247  21561166.515    21561171.858
  23903207.646     4114956.17149   3216568.53745  23903206.474    23903213.960
  23990766.565    20561135.48649  16023735.21945  23990765.788    23990776.526
  21340013.765    -2203228.02249  -1703386.27547  21340013.006    21340018.390
  21519855.156   -12158885.39749  -9454628.35147  21519854.695    21519861.445
  24240957.212    -1138359.19549   -649484.61845  24240956.955    24240965.842
  23860891.861    -3026222.21449  -2334520.32145  23860891.099    23860901.169
 04  7 22 18 44 30.0000000  0  8G22G11G19G15G14G25G20G 1
  23332928.653    14576155.03849  11349667.52846  23332928.091    23332933.941
  21553260.801   -15240050.85149 -11864366.63647  21553260.458    21553265.810
  23919038.678     4198147.87149   3281393.08045  23919037.465    23919044.960
  24013015.628    20678054.97749  16114841.10045  24013014.945    24013025.874
  21352293.136    -2138699.45149  -1653104.30747  21352292.425    21352297.803
  21507699.198   -12222765.45749  -9504404.97947  21507698.690    21507705.401
  24223984.831    -1227550.35549   -718984.15245  24223984.504    24223993.232
  23843756.654    -3116269.22649  -2404686.64845  23843755.702    23843765.919
 04  7 22 18 45  0.0000000  0  8G22G11G19G15G14G25G20G 1
  23347006.739    14650136.85549  11407315.56646  23347006.374    23347012.336
  21545449.958   -15281097.95549 -11896351.38147  21545449.486    21545454.938
  23934900.305     4281499.69649   3346342.39545  23934898.894    23934906.468
  24035288.028    20795097.01449  16206042.47345  24035287.387    24035298.613
  21364620.273    -2073919.85849  -1602626.73047  21364619.562    21364624.976
  21495626.098   -12286209.16449  -9553841.58447  21495625.688    21495632.413
  24207015.132    -1316726.92949   -788472.29345  24207014.433    24207023.357
  23826656.998    -3206128.26949  -2474706.64545  23826656.019    23826666.312
 04  7 22 18 45 30.0000000  0  8G22G11G19G15G14G25G20G 1
  23361112.448    14724262.94849  11465076.04746  23361112.198    23361118.046
  21537734.165   -15321643.79049 -11927945.53447  21537733.807    21537739.383
  23950791.727     4365008.66049   3411414.18245  23950790.194    23950797.787
  24057583.434    20912259.07849  16297337.33545  24057582.702    24057593.973
  21376994.857    -2008891.06049  -1551954.96247  21376994.175    21376999.580
  21483636.500   -12349214.68249  -9602936.74447  21483636.098    21483642.836
  24190048.342    -1405888.08249   -857948.43745  24190047.599    24190056.456
  23809593.417    -3295796.98549  -2544578.29045  23809592.662    23809602.722
 04  7 22 18 46  0.0000000  0  8G22G11G19G15G14G25G20G 1
  23375245.654    14798532.71349  11522948.49646  23375245.444    23375251.254
  21530114.178   -15361687.30249 -11959148.27247  21530113.802    21530119.407
  23966712.280     4448671.24549   3476605.67045  23966710.801    23966718.433
  24079901.469    21029538.42349  16388723.59145  24079900.531    24079911.785
  21389416.290    -1943615.42649  -1501090.87147  21389415.695    21389421.212
  21471730.607   -12411780.46449  -9651689.25547  21471730.161    21471736.937
  24173084.568    -1495033.56249   -927412.39745  24173083.743    24173092.640
  23792566.390    -3385275.57049  -2614301.79045  23792565.369    23792575.385
 04  7 22 18 46 30.0000000  0  8G22G11G19G15G14G25G20G 1
  23389405.944    14872946.24149  11580932.94846  23389405.762    23389411.822
  21522590.103   -15401226.95549 -11989958.40547  21522589.651    21522595.236
  23982661.562     4532484.65249   3541914.64845  23982660.001    23982667.837
  24102240.774    21146933.16649  16480199.80445  24102240.286    24102251.464
  21401884.662    -1878094.39749  -1450035.54947  21401884.004    21401889.474
  21459908.925   -12473903.95449  -9700097.13247  21459908.444    21459915.208
  24156124.089    -1584162.14249   -996863.15845  24156123.094    24156131.951
  23775575.294    -3474562.70249  -2683876.12145  23775574.601    23775584.470
 04  7 22 18 47  0.0000000  0  8G22G11G19G15G14G25G20G 1
  23403593.991    14947503.36049  11639029.29946  23403593.708    23403599.775
  21515162.209   -15440260.97049 -12020374.51347  21515161.714    21515167.313
  23998638.763     4616445.72449   3607338.70845  23998637.399    23998645.276
  24124602.041    21264440.87949  16571763.99144  24124601.276    24124612.549
  21414399.102    -1812329.92049  -1398790.54147  21414398.540    21414404.029
  21448171.745   -12535583.25549  -9748158.87447  21448171.270    21448178.001
  24139166.734    -1673273.44249  -1066300.43045  24139165.673    24139174.518
  23758621.239    -3563657.67349  -2753300.70645  23758620.429    23758630.229
 04  7 22 18 47 30.0000000  0  8G22G11G19G15G14G25G20G 1
  23417809.210    15022203.20849  11697236.85746  23417808.768    23417814.645
  21507830.605   -15478788.90649 -12050396.29047  21507830.089    21507835.635
  24014643.607     4700550.67249   3672874.87445  24014642.158    24014650.109
  24146984.492    21382058.58049  16663413.86744  24146983.860    24146994.644
  21426959.637    -1746324.61949  -1347357.86947  21426958.995    21426964.454
  21436519.361   -12596817.15549  -9795873.56047  21436518.847    21436525.559
  24122212.698    -1762367.36749  -1135724.17545  24122211.681    24122220.536
  23741703.518    -3652560.27749  -2822575.42045  23741702.662    23741712.468
 04  7 22 18 48  0.0000000  0  8G22G11G19G15G14G25G20G 1
  23432051.424    15097045.97049  11755555.77546  23432050.848    23432056.680
  21500595.645   -15516808.75949 -12080022.14347  21500595.108    21500600.725
  24030675.011     4784796.68449   3738520.96945  24030673.741    24030681.748
  24169387.485    21499784.24949  16755147.90444  24169386.341    24169397.569
  21439565.548    -1680080.10349  -1295738.79947  21439564.908    21439570.432
  21424952.023   -12657603.41549  -9843239.44347  21424951.535    21424958.250
  24105262.013    -1851442.94249  -1205133.63045  24105260.985    24105269.974
  23724822.661    -3741269.29449  -2891699.28045  23724821.847    23724831.349
 04  7 22 18 48 30.0000000  0  8G22G11G19G15G14G25G20G 1
  23446320.664    15172032.07749  11813986.37546  23446320.220    23446326.155
  21493457.770   -15554318.49549 -12109250.52647  21493457.259    21493462.848
  24046732.758     4869181.34549   3804275.09545  24046731.643    24046739.644
  24191810.474    21617616.39748  16846964.90344                  24191809.347
  21452216.842    -1613597.29149  -1243934.04647  21452216.230    21452221.761
  21413470.443   -12717939.57349  -9890254.59847  21413469.933    21413476.633
  24088315.149    -1940498.42549  -1274527.43745  24088314.187    24088323.168
  23707979.003    -3829783.11649  -2960671.01045  23707978.149    23707987.535
 04  7 22 18 49  0.0000000  0  8G22G11G19G15G14G25G20G 1
  23460617.523    15247161.01549  11872528.30346  23460617.012    23460622.913
  21486416.998   -15591317.45549 -12138080.90447  21486416.543    21486422.165
  24062816.474     4953701.20249   3870134.54445  24062815.309    24062823.271
  24214252.517    21735552.14948  16938862.58844                  24214251.902
  21464913.055    -1546878.72549  -1191945.59047  21464912.370    21464917.902
  21402074.718   -12777823.94649  -9936917.72547  21402074.302    21402081.008
  24071372.391    -2029533.72449  -1343905.53845  24071371.376    24071380.356
  23691172.223    -3918101.50549  -3029490.45945  23691171.503    23691180.964
 04  7 22 18 49 30.0000000  0  8G22G11G19G15G14G25G20G 1
  23474941.607    15322433.40949  11931181.98246  23474940.987    23474947.019
  21479474.049   -15627803.15449 -12166511.33747  21479473.580    21479479.196
  24078925.630     5038353.97149   3936097.60745  24078924.377    24078932.445
                  21853590.01448  17030839.93844
  21477653.860    -1479925.31749  -1139774.14247  21477653.190    21477658.722
  21390765.683   -12837253.67849  -9983226.57947  21390765.201    21390771.858
  24054433.532    -2118547.17649  -1413266.60645  24054432.523    24054441.579
  23674402.863    -4006222.79349  -3098156.27845  23674402.142    23674411.866
 04  7 22 18 50  0.0000000  0  8G22G11G19G15G14G25G20G 1
  23489292.283    15397847.23749  11989945.87246  23489291.811    23489297.786
  21472628.695   -15663776.25449 -12194542.32947  21472628.149    21472633.765
  24095059.262     5123134.52449   4002160.21745  24095057.848    24095065.903
  24259195.690    21971726.04648  17122893.75144                  24259194.987
  21490438.674    -1412741.00049  -1087422.76947  21490437.969    21490443.476
  21379543.036   -12896229.12449 -10029181.44247  21379542.531    21379549.179
  24037498.637    -2207540.22149  -1482611.78745  24037497.697    24037506.482
  23657671.253    -4094148.02949  -3166669.36645  23657670.496    23657680.214
 04  7 22 18 50 30.0000000  0  8G22G11G19G15G14G25G20G 1
  23503670.163    15473402.75649  12048820.19046  23503669.628    23503675.579
  21465881.172   -15699234.59149 -12222172.20947  21465880.640    21465886.286
  24111216.238     5208040.38549   4068320.51245  24111214.913    24111223.146
                  22089958.50648   1017571.81743
  21503267.174    -1345326.90149  -1034892.33947  21503266.458    21503271.932
  21368407.215   -12954747.99149 -10074780.51847  21368406.730    21368413.407
  24020567.842    -2296511.06649  -1551939.61945  24020566.988    24020575.901
  23640976.997    -4181875.65149  -3235028.46345  23640976.413    23640986.242
 04  7 22 18 51  0.0000000  0  8G22G11G19G15G14G25G20G 1
  23518075.246    15549101.11949  12107805.82246  23518074.735    23518080.704
  21459232.023   -15734175.56649 -12249398.96147  21459231.593    21459237.235
  24127396.789     5293069.88349   4134577.09245  24127395.402    24127403.681
                  22208286.29648   1109767.22943
  21516139.226    -1277683.45949   -982183.20447  21516138.607    21516144.131
  21357358.938   -13012806.80149 -10120021.11747  21357358.479    21357365.163
  24003641.579    -2385457.69949  -1621248.58945  24003640.726    24003649.955
  23624320.938    -4269403.74749  -3303232.10545  23624320.522    23624330.218
 04  7 22 18 51 30.0000000  0  8G22G11G19G15G14G25G20G 1
  23532507.079    15624940.82249  12166901.55346  23532506.495    23532512.793
  21452681.482   -15768599.36449 -12276222.71547  21452681.018    21452686.618
  24143600.326     5378218.67149   4200926.64345  24143598.904    24143607.215
                  22326706.08558   1202033.03243
  21529054.558    -1209813.99249   -929297.94647  21529053.816    21529059.407
  21346398.144   -13070405.15949 -10164902.93847  21346397.806    21346404.463
  23986720.017    -2474380.95449  -1690539.35345  23986719.110    23986728.370
  23607703.183    -4356732.88349  -3371280.71845  23607702.338    23607711.977
 04  7 22 18 52  0.0000000  0  8G22G11G19G15G14G25G20G 1
  23546965.892    15700922.53149  12226107.92445  23546965.275    23546971.598
  21446229.672   -15802504.05349 -12302641.97547  21446229.155    21446234.826
  24159826.003     5463484.37649   4267367.31645  24159824.631    24159832.785
                  22445215.94158   1020198.86143
  21542012.470    -1141719.35449   -876237.22647  21542011.796    21542017.383
  21335525.791   -13127540.26249 -10209423.77247  21335525.353    21335532.003
  23969803.241    -2563279.08549  -1759810.57045  23969802.191    23969811.647
  23591122.887    -4443861.42749  -3439173.05845  23591122.366    23591131.987
 04  7 22 18 52 30.0000000  0  7G22G11G19G14G25G20G 1
  23561451.963    15777047.08249  12285425.64646  23561451.476    23561457.645
  21439877.057   -15835887.15949 -12328654.79347  21439876.582    21439882.249
  24176073.504     5548864.87249   4333897.43145  24176072.133    24176080.289
  21555013.270    -1073400.46049   -823001.77147  21555012.495    21555018.019
  21324742.000   -13184209.47549 -10253581.58447  21324741.579    21324748.166
  23952891.464    -2652150.18249  -1829060.67645  23952890.669    23952899.887
  23574581.496    -4530787.65649  -3506907.67945  23574580.918    23574590.556
 04  7 22 18 53  0.0000000  0  7G22G11G19G14G25G20G 1
  23575964.832    15853312.54249  12344853.14445  23575964.359    23575970.612
  21433623.523   -15868749.21849 -12354261.59947  21433623.131    21433628.868
  24192342.042     5634355.37249   4400513.28945  24192340.621    24192348.447
  21568055.958    -1004860.96749   -769594.42247  21568055.136    21568060.693
  21314046.800   -13240412.74949 -10297376.32147  21314046.393    21314052.967
  23935984.817    -2740995.27249  -1898290.52645  23935983.944    23935993.242
  23558078.285    -4617512.48849  -3574485.38345  23558077.502    23558087.277
 04  7 22 18 53 30.0000000  0  7G22G11G19G14G25G20G 1
  23590504.435    15929719.11249  12404390.58245  23590504.033    23590510.658
  21427469.657   -15901088.50649 -12379461.06447  21427469.202    21427474.942
  24208630.850     5719953.15049   4467212.69045  24208629.454    24208637.209
  21581140.302     -936102.38849   -716016.36147  21581139.498    21581145.069
  21303440.714   -13296148.27849 -10340806.59047  21303440.325    21303446.838
  23919083.128    -2829813.26549  -1967499.32845  23919082.424    23919091.632
  23541613.456    -4704034.89949  -3641905.38345  23541612.771    23541622.630
 04  7 22 18 54  0.0000000  0  7G22G11G19G14G25G20G 1
  23605071.243    16006265.91749  12464037.29446  23605070.699    23605077.120
  21421415.272   -15932904.67249 -12404252.89847  21421414.793    21421420.518
  24224939.354     5805654.41249   4533992.77545  24224937.994    24224945.784
  21594265.900     -867126.86749   -662269.25247  21594265.121    21594270.720
  21292923.769   -13351415.02849 -10383871.57547  21292923.406    21292929.943
  23902187.036    -2918604.02849  -2036686.84745  23902186.022    23902195.113
  23525187.400    -4790354.73349  -3709167.52845  23525186.652    23525196.447
 04  7 22 18 54 30.0000000  0  7G22G11G19G14G25G20G 1
  23619664.373    16082952.85849  12523793.20346  23619663.887    23619670.153
  21415460.754   -15964196.48249 -12428636.13947  21415460.175    21415465.895
  24241266.874     5891456.29849   4600851.25545  24241265.610    24241273.547
  21607432.396     -797936.37849   -608354.64047  21607431.686    21607437.342
  21282496.456   -13406210.96549 -10426569.68247  21282496.045    21282502.644
  23885295.943    -3007366.34749  -2105852.21245  23885295.134    23885303.971
  23508800.088    -4876471.12949  -3776271.18245  23508799.366    23508808.994
 04  7 22 18 55  0.0000000  0  7G22G11G19G14G25G20G 1
  23634284.089    16159780.31549  12583658.62445  23634283.626    23634290.009
  21409606.263   -15994961.90349 -12452609.20947  21409605.728    21409611.471
  24257613.020     5977356.30349   4667786.16245  24257611.844    24257620.171
  21620639.749     -728531.85449   -554273.24647  21620638.983    21620644.585
  21272159.146   -13460533.67049 -10468899.05747  21272158.771    21272165.379
  23868410.639    -3096098.93149  -2174994.40345  23868409.903    23868418.722
  23492451.716    -4962382.58949  -3843215.12445  23492450.885    23492460.524
 04  7 22 18 55 30.0000000  0  7G22G11G19G14G25G20G 1
  23648930.788    16236748.04749  12643633.33445  23648930.206    23648936.851
  21403852.211   -16025199.89749 -12476171.28647  21403851.692    21403857.352
  24273977.458     6063351.18849   4734795.04545  24273976.176    24273984.482
  21633887.282     -658915.33949   -500026.66947  21633886.622    21633892.215
  21261912.116   -13514381.96649 -10510858.75247  21261911.735    21261918.331
  23851531.259    -3184801.14149  -2244112.93345  23851530.499    23851539.202
  23476142.443    -5048088.66949  -3909999.03145  23476141.606    23476151.114
 04  7 22 18 56  0.0000000  0  7G22G11G19G14G25G20G 1
  23663604.263    16313857.70349  12703718.61445  23663603.828    23663610.487
  21398199.072   -16054907.36749 -12499319.98047  21398198.555    21398204.192
                   -248457.28849   -204978.30643
  21647175.302     -589086.63849   -445614.75247  21647174.633    21647180.222
  21251756.083   -13567751.84549 -10552445.65347  21251755.766    21251762.401
  23834658.067    -3273470.33749  -2313205.71545  23834657.310    23834666.125
  23459872.665    -5133586.67249  -3976620.80245  23459871.929    23459881.297
 04  7 22 18 56 30.0000000  0  7G22G11G19G14G25G20G 1
  23678304.311    16391107.68649  12763913.28745  23678304.050    23678310.666
  21392646.976   -16084084.21149 -12522055.19347  21392646.409    21392652.049
                   -162279.24549   -137826.60244                  24306766.949
  21660502.987     -519048.88849   -391039.93447  21660502.366    21660508.052
  21241691.336   -13620642.95749 -10593659.48947  21241690.923    21241697.526
  23817791.143    -3362106.56849  -2382272.85445  23817790.257    23817799.078
  23443642.284    -5218876.92749  -4043080.69245  23443641.525    23443651.164
 04  7 22 18 57  0.0000000  0  7G22G11G19G14G25G20G 1
  23693031.302    16468496.85749  12824216.37946  23693030.985    23693037.620
  21387195.613   -16112731.15549 -12544377.49647  21387195.093    21387200.699
  24323173.410      -76016.05749    -70608.70145  24323172.988    24323182.824
  21673869.969     -448805.04249   -336304.51947  21673869.372    21673875.081
  21231717.677   -13673054.87249 -10634499.92647  21231717.278    21231723.834
  23800930.263    -3450710.28049  -2451314.67645  23800929.370    23800938.130
  23427451.248    -5303960.14349  -4109379.24945  23427450.724    23427460.459
 04  7 22 18 57 30.0000000  0  7G22G11G19G14G25G20G 1
  23707784.307    16546023.91549  12884626.92046  23707783.912    23707790.881
  21381845.226   -16140847.55449 -12566286.39347  21381844.727    21381850.350
  24339608.397       10328.44549     -3327.46845  24339604.602    24339613.518
  21687275.759     -378357.73349   -281410.58347  21687275.072    21687280.860
  21221835.331   -13724986.63249 -10674966.22147  21221834.969    21221841.556
  23784075.722    -3539281.47049  -2520331.13245  23784074.858    23784083.616
  23411299.736    -5388836.18349  -4175516.38145  23411299.214    23411308.920
 04  7 22 18 58  0.0000000  0  7G22G11G19G14G25G20G 1
  23722563.395    16623687.72849  12945144.00845  23722562.852    23722569.910
  21376595.780   -16168433.24149 -12587781.74447  21376595.341    21376601.019
  24356053.422       96750.34549     64014.10045  24356050.347    24356058.978
  21700719.747     -307709.60349   -226360.14647  21700719.095    21700724.777
  21212044.468   -13776437.89449 -10715058.09647  21212044.108    21212050.701
  23767227.110    -3627820.19349  -2589322.28345  23767226.391    23767235.306
  23395187.807    -5473505.40049  -4241492.39545  23395187.190    23395196.761
 04  7 22 18 58 30.0000000  0  7G22G11G19G14G25G20G 1
  23737368.870    16701490.06049  13005769.04345  23737368.351    23737375.261
  21371447.932   -16195485.53349 -12608861.46047  21371447.455    21371453.120
  24372512.757      183248.19949    131414.84945  24372510.322    24372519.130
  21714201.856     -236860.65849   -171153.24347  21714201.151    21714206.906
  21202345.609   -13827405.38249 -10754772.99747  21202345.282    21202351.902
  23750385.385    -3716323.90249  -2658286.14245  23750384.561    23750393.601
  23379115.638    -5557965.47749  -4307305.43545  23379115.036    23379124.224
 04  7 22 18 59  0.0000000  0  7G22G11G19G14G25G20G 1
  23752200.989    16779431.04349  13066502.13845  23752200.314    23752207.152
  21366401.825   -16222002.93549 -12629524.39247  21366401.358    21366407.018
  24388986.419      269819.72149    198873.03245  24388984.566    24388993.290
  21727721.957     -165812.11849   -115790.79647  21727721.292    21727727.049
  21192739.235   -13877886.91849 -10794109.24047  21192738.932    21192745.591
  23733550.660    -3804790.95949  -2727221.47645  23733549.845    23733558.807
  23363083.486    -5642215.10849  -4372954.44645  23363082.785    23363092.078
 04  7 22 18 59 30.0000000  0  7G22G11G19G14G25G20G 1
  23767059.097    16857511.19749  13127343.66245  23767058.428    23767065.548
  21361457.869   -16247983.60249 -12649769.08247  21361457.391    21361463.011
  24405473.980      356462.22049    266386.53145  24405472.124    24405480.831
  21741279.748      -94565.14749    -60273.74447  21741279.155    21741284.960
  21183225.871   -13927880.54749 -10833065.29547  21183225.498    21183232.117
  23716722.978    -3893220.24249  -2796127.36245  23716722.335    23716731.246
  23347091.587    -5726253.10649  -4438438.57046  23347090.945    23347100.203
 04  7 22 19  0  0.0000000  0  7G22G11G19G14G25G20G 1
  23781943.799    16935731.24649  13188294.16945  23781943.324    23781950.469
  21356616.420   -16273425.79549 -12669594.17947  21356615.952    21356621.588
  24421974.321      443172.81349    333952.80945  24421972.450    24421981.305
  21754875.364      -23120.42249     -4602.58947  21754874.723    21754880.535
  21173805.690   -13977383.51049 -10871639.01847  21173805.380    21173812.031
  23699903.181    -3981609.51349  -2865002.05845  23699902.439    23699911.307
  23331140.146    -5810078.10349  -4503756.84446  23331139.469    23331148.842
 04  7 22 19  0 30.0000000  0  7G22G11G19G14G25G20G 1
  23796855.066    17014089.35749  13249352.29745  23796854.581    23796861.660
  21351877.304   -16298330.04749 -12689000.09847  21351876.883    21351882.513
  24438487.066      529948.88449    401570.36845  24438485.569    24438494.432
  21768508.018       48518.74349     51220.06447  21768507.296    21768513.191
  21164478.966   -14026395.72449 -10909830.32947  21164478.616    21164485.288
  23683090.832    -4069959.40649  -2933846.09645  23683090.068    23683098.816
  23315229.378    -5893689.49749  -4568908.44146  23315228.693    23315238.125
 04  7 22 19  1  0.0000000  0  7G22G11G19G14G25G20G 1
  23811792.201    17092585.62649  13310518.05045  23811791.709    23811799.097
  21347241.009   -16322694.93049 -12707985.73947  21347240.453    21347246.068
  24455011.629      616786.64449    469236.01245  24455010.369    24455019.046
  21782177.158      120350.89049    107193.09847  21782176.513    21782182.368
  21155245.929   -14074915.69449 -10947638.06947  21155245.558    21155252.212
  23666285.913    -4158268.92449  -3002658.65945  23666285.172    23666293.961
  23299359.208    -5977088.07349  -4633894.27645  23299358.460    23299367.833
 04  7 22 19  1 30.0000000  0  7G22G11G19G14G25G20G 1
  23826756.111    17171220.14849  13371791.52445  23826755.829    23826762.888
  21342707.289   -16346519.30649 -12726550.19747  21342706.801    21342712.436
  24471547.877      703683.45649    536947.61745  24471546.601    24471555.067
  21795882.756      192374.64649    163315.46047  21795882.205    21795888.005
  21146106.832   -14122941.61349 -10985060.83547  21146106.495    21146113.167
  23649488.851    -4246536.78749  -3071438.76245  23649488.320    23649497.013
  23283529.782    -6060272.12949  -4698712.96545  23283528.979    23283538.465
 04  7 22 19  2  0.0000000  0  7G22G11G19G14G25G20G 1
  23841745.902    17249991.20149  13433171.44245  23841745.633    23841752.659
  21338276.477   -16369803.45249 -12744693.71047  21338275.969    21338281.594
  24488094.476      790634.67449    604701.68845  24488092.896    24488101.544
  21809624.217      264586.69849    219584.51747  21809623.672    21809629.626
  21137061.852   -14170473.53249 -11022098.67247  21137061.507    21137068.145
  23632699.963    -4334763.30649  -3140186.64845  23632699.373    23632707.974
  23267740.936    -6143242.49949  -4763365.17045  23267740.169    23267749.676
 04  7 22 19  2 30.0000000  0  7G22G11G19G14G25G20G 1
  23856761.664    17328899.31149  13494658.11745  23856761.537    23856768.474
  21333948.701   -16392546.25149 -12762415.38347  21333948.225    21333953.845
  24504650.615      877638.20149    672496.49345  24504649.164    24504658.198
  21823401.610      336986.06649    275999.55447  21823400.963    21823406.858
  21128111.268   -14217509.49649 -11058750.04647  21128110.853    21128117.459
  23615919.386    -4422947.04849  -3208901.24045  23615918.610    23615927.210
  23251993.087    -6225998.09649  -4827850.03845  23251992.331    23252001.740
 04  7 22 19  3  0.0000000  0  7G22G11G19G14G25G20G 1
  23871803.410    17407944.23349  13556251.39545  23871803.363    23871810.470
  21329724.017   -16414746.38049 -12779714.20347  21329723.620    21329729.304
  24521216.344      964691.27449    740329.85345  24521214.896    24521223.830
  21837214.322      409571.43449    332559.51747  21837213.602    21837219.498
  21119255.346   -14264047.39849 -11095013.31147  21119254.954    21119261.600
  23599147.018    -4511086.62249  -3277581.39445  23599146.242    23599154.792
  23236286.053    -6308537.77649  -4892166.60045  23236285.375    23236294.946
 04  7 22 19  3 30.0000000  0  7G22G11G19G14G25G20G 1
  23886871.869    17487125.68049  13617951.03745  23886871.343    23886878.373
  21325602.991   -16436403.24649 -12796589.70247  21325602.523    21325608.101
  24537790.649     1051790.39349    808199.13245  24537789.411    24537798.414
  21851061.722      482340.71049    389262.78047  21851061.105    21851067.132
  21110494.459   -14310086.09849 -11130887.60147  21110494.039    21110500.699
  23582383.267    -4599181.62449  -3346226.79245  23582382.277    23582390.826
  23220620.280    -6390861.04049  -4956314.56545  23220619.780    23220629.300
 04  7 22 19  4  0.0000000  0  7G22G11G19G14G25G20G 1
  23901965.365    17566443.45649  13679756.95545  23901964.923    23901971.983
  21321585.443   -16457515.90349 -12813041.13847  21321584.924    21321590.508
  24554373.502     1138932.72749    876102.08845  24554372.131    24554381.243
  21864944.011      555292.37049    446108.17947  21864943.355    21864949.403
  21101828.883   -14355624.33449 -11166371.90447  21101828.398    21101835.049
  23565628.086    -4687230.82349  -3414836.52045  23565627.067    23565635.507
  23204995.995    -6472967.44549  -5020293.55045  23204995.406    23205004.914
 04  7 22 19  4 30.0000000  0  7G22G11G19G14G25G20G 1
  23917085.121    17645897.91949  13741669.37845  23917084.696    23917092.022
  21317671.666   -16478082.96449 -12829067.43847  21317671.193    21317676.769
  24570964.162     1226115.89149    944036.90345  24570962.785    24570971.776
  21878860.600      628425.33349    503094.83447  21878860.070    21878866.245
  21093258.692   -14400660.45749 -11201464.96247  21093258.271    21093264.881
  23548881.886    -4775232.63549  -3483409.31845  23548880.760    23548889.269
  23189413.232    -6554855.66349  -5084102.52445  23189412.713    23189422.071
 04  7 22 19  5  0.0000000  0  8G22G11G19G14G23G25G20G 1
  23932230.921    17725487.90049  13803687.37245  23932230.461    23932237.786
  21313861.662   -16498104.58949 -12844668.72047  21313861.211    21313866.813
  24587561.703     1313335.99649   1012000.42645  24587560.317    24587569.311
  21892811.561      701736.93049    560220.70047  21892810.942    21892816.931
                   -445606.65549   -328026.98743
  21084784.373   -14445193.81049 -11236166.24547  21084783.898    21084790.487
  23532144.587    -4863187.00149  -3551945.13745  23532143.566    23532151.973
  23173871.837    -6636526.19549  -5147741.89045  23173871.303    23173880.681
 04  7 22 19  5 30.0000000  0  8G22G11G19G14G23G25G20G 1
  23947402.130    17805213.09549  13865810.78345  23947401.758    23947408.693
  21310155.564   -16517579.97649 -12859844.36047  21310155.147    21310160.777
  24604165.767     1400589.92349   1079990.36545  24604164.421    24604173.414
  21906796.160      775225.55849    617484.51447  21906795.481    21906801.398
  24599574.924     -539694.84349   -401342.37845  24599571.801    24599578.789
  21076405.799   -14489223.24649 -11270474.86147  21076405.318    21076411.918
  23515416.647    -4951093.06549  -3620443.36345  23515415.576    23515423.882
  23158371.902    -6717978.38749  -5211211.08746  23158371.403    23158380.840
 04  7 22 19  6  0.0000000  0  8G22G11G19G14G23G25G20G 1
  23962599.362    17885073.68949  13928039.68245  23962598.987    23962605.973
  21306553.729   -16536507.98649 -12874593.46847  21306553.300    21306558.966
  24620776.001     1487875.21549   1148004.68245  24620774.343    24620783.652
  21920814.105      848890.05549    674885.35447  21920813.426    21920819.459
  24581689.892     -633658.07849   -474560.49445  24581691.579    24581698.627
  21068123.540   -14532746.61049 -11304389.14247  21068123.092    21068129.663
  23498698.101    -5038949.12149  -3688902.60645  23498697.091    23498705.352
  23142914.097    -6799210.98249  -5274509.17646  23142913.364    23142922.700
 04  7 22 19  6 30.0000000  0  8G22G11G19G14G23G25G20G 1
  23977822.229    17965069.05049  13990373.52645  23977821.720    23977829.076
  21303056.178   -16554888.13249 -12888915.67747  21303055.722    21303061.271
  24637391.066     1575188.41749   1216040.78345  24637389.630    24637398.868
  21934864.915      922728.12249    732421.45147  21934864.279    21934870.483
  24563832.972     -727496.24449   -547681.05045  24563830.754    24563839.715
  21059937.695   -14575763.37449 -11337908.66947  21059937.289    21059943.842
  23481988.856    -5126754.73049  -3757322.52145  23481988.187    23481996.510
  23127497.825    -6880223.87149  -5337636.10446  23127497.176    23127506.452
 04  7 22 19  7  0.0000000  0  7G22G11G14G23G25G20G 1
  23993071.018    18045202.02049  14052814.62245  23993070.473    23993078.040
  21299663.489   -16572716.46649 -12902807.90247  21299663.100    21299668.661
  21948949.171      996741.45849    790094.12747  21948948.569    21948954.771
  24546000.689     -821203.97949   -620699.75745  24546000.197    24546008.191
  21051849.098   -14618268.84949 -11371029.78347  21051848.698    21051855.294
  23465290.543    -5214505.62549  -3825699.77845  23465289.648    23465298.099
  23112124.127    -6961013.17849  -5400588.76946  23112123.410    23112132.681
 04  7 22 19  7 30.0000000  0  7G22G11G14G23G25G20G 1
  24008345.890    18125469.61049  14115360.65345  24008345.258    24008352.260
  21296375.482   -16589995.46849 -12916272.07847  21296375.076    21296380.609
  21963066.121     1070925.68549    847899.95847  21963065.496    21963071.619
  24528192.706     -914787.15849   -693621.84544  24528191.986    24528200.071
  21043857.560   -14660264.64949 -11403753.75847  21043857.171    21043863.745
  23448602.112    -5302203.45949  -3894035.75145  23448601.341    23448609.561
  23096792.536    -7041581.06449  -5463368.90846  23096791.824    23096801.123
 04  7 22 19  8  0.0000000  0  7G22G11G14G23G25G20G 1
  24023645.441    18205870.41649  14178010.50645  24023644.907    24023652.046
  21293191.937   -16606725.31549 -12929308.33147  21293191.500    21293197.017
  21977215.084     1145277.85649    905836.64647  21977214.361    21977220.366
  24510409.060    -1008241.52149   -766443.51844  24510407.899    24510416.365
  21035963.075   -14701750.74249 -11436080.55847  21035962.626    21035969.144
  23431923.696    -5389848.66449  -3962330.67345  23431922.858    23431931.217
  23081502.864    -7121928.19649  -5525977.05046  23081502.239    23081511.450
 04  7 22 19  8 30.0000000  0  7G22G11G14G23G25G20G 1
  24038970.684    18286405.90649  14240765.22645  24038970.397    24038977.869
  21290113.349   -16622903.73849 -12941914.90447  21290112.862    21290118.358
  21991395.942     1219798.11749    963904.31547  21991395.193    21991401.104
  24492649.694    -1101567.80649   -839165.14644  24492648.701    24492656.502
  21028165.867   -14742724.81249 -11468008.37247  21028165.464    21028171.988
  23415255.861    -5477438.84049  -4030582.72845  23415254.986    23415263.268
  23066255.631    -7202052.83649  -5588411.81846  23066255.034    23066264.249
 04  7 22 19  9  0.0000000  0  7G22G11G14G23G25G20G 1
  24054321.806    18367074.07449  14303623.37045  24054321.300    24054328.785
  21287139.507   -16638531.45749 -12954092.35947  21287139.010    21287144.522
  22005608.012     1294483.23149   1022100.45047  22005607.255    22005613.277
  24474914.694    -1194765.73248   -911786.78044  24474913.922    24474921.823
  21020466.175   -14783186.80249 -11499537.17347  21020465.764    21020472.251
  23398598.510    -5564973.89849  -4098791.86745  23398597.668    23398605.866
  23051050.654    -7281955.71549  -5650673.79546  23051049.931    23051059.251
 04  7 22 19  9 30.0000000  0  7G22G11G14G23G25G20G 1
  24069698.085    18447875.69749  14366585.52945  24069697.356    24069704.650
  21284270.643   -16653607.59649 -12965840.00847  21284270.116    21284275.679
  22019851.180     1369332.33949   1080424.36447  22019850.534    22019856.749
  24457204.227    -1287833.59148   -984307.16344  24457203.571    24457211.405
  21012864.291   -14823135.02649 -11530665.63047  21012863.877    21012870.352
  23381951.940    -5652452.35049  -4166956.83346  23381951.042    23381959.375
  23035888.296    -7361635.42649  -5712761.86946  23035887.427    23035896.675
 04  7 22 19 10  0.0000000  0  7G22G11G14G23G25G20G 1
  24085099.625    18528810.12049  14429651.13445  24085098.853    24085106.313
  21281506.858   -16668131.50749 -12977157.35647  21281506.350    21281511.893
  22034125.435     1444343.72449   1138874.74447  22034124.842    22034131.018
  24439518.333    -1380770.95148  -1056725.86344  24439518.515    24439526.514
  21005360.372   -14862568.08949 -11561392.67147  21005359.972    21005366.450
  23365316.403    -5739873.14749  -4235076.89146  23365315.429    23365323.768
  23020768.349    -7441091.62849  -5774675.78046  23020767.324    23020776.698
 04  7 22 19 10 30.0000000  0  7G22G11G14G23G25G20G 1
  24100526.236    18609877.92349  14492820.71045  24100525.673    24100533.095
  21278848.479   -16682101.78549 -12988043.30647  21278847.900    21278853.450
  22048430.567     1519516.67949   1197450.99446  22048429.879    22048436.062
  24421858.669    -1473576.14659  -1129041.59444  24421858.189    24421866.173
  20997954.913   -14901484.26849 -11591716.94147  20997954.509    20997960.964
  23348692.044    -5827234.19149  -4303150.39446  23348691.227    23348699.513
  23005691.016    -7520322.81749  -5836414.33546  23005690.212    23005699.586
 04  7 22 19 11  0.0000000  0  7G22G11G14G23G25G20G 1
  24115978.050    18691077.67149  14556093.00845  24115977.545    24115985.037
  21276295.328   -16695518.80349 -12998498.13747  21276294.758    21276300.283
  22062765.938     1594848.42349   1256150.99746  22062765.145    22062771.202
  24404224.082    -1566249.78448  -1201254.68844  24404223.119    24404230.803
  20990647.807   -14939883.34849 -11621638.27847  20990647.367    20990653.808
  23332079.078    -5914535.62249  -4371177.43446  23332078.308    23332086.616
  22990656.430    -7599329.68549  -5897978.10046  22990655.590    22990665.144
 04  7 22 19 11 30.0000000  0  7G22G11G14G23G25G20G 1
  24131455.389    18772409.96449  14619468.69345  24131454.881    24131462.179
  21273847.656   -16708381.18349 -13008520.78347  21273847.092    21273852.702
  22077131.175     1670338.41149   1314974.30946  22077130.471    22077136.427
  24386613.512    -1658789.89449  -1273363.86945  24386612.820    24386621.047
  20983439.366   -14977763.64249 -11651155.37047  20983438.968    20983445.371
  23315477.844    -6001775.23149  -4439156.31445  23315477.071    23315485.388
  22975664.677    -7678110.51249  -5959365.73646  22975664.108    22975673.655
 04  7 22 19 12  0.0000000  0  7G22G11G14G23G25G20G 1
  24146957.545    18853874.01149  14682946.95345  24146956.879    24146964.504
  21271505.494   -16720688.83149 -13018111.17747  21271505.004    21271510.685
  22091526.023     1745984.60149   1373919.32746  22091525.355    22091531.423
  24369029.439    -1751197.01359  -1345369.41245  24369028.682    24369036.301
  20976329.947   -15015124.28349 -11680267.54447  20976329.489    20976335.851
  23298888.791    -6088952.72849  -4507086.77945  23298887.686    23298896.145
  22960716.086    -7756665.49849  -6020577.38846  22960715.588    22960725.135
 04  7 22 19 12 30.0000000  0  7G22G11G14G23G25G20G 1
  24162484.727    18935470.45349  14746528.42645  24162484.209    24162491.929
  21269269.114   -16732440.59749 -13027268.41147  21269268.682    21269274.353
  22105950.445     1821786.07349   1432985.36246  22105949.909    22105956.018
  24351470.103    -1843468.83249  -1417269.79445  24351469.579    24351477.467
  20969319.573   -15051963.76149 -11708973.60247  20969319.113    20969325.513
  23282311.577    -6176066.15549  -4574967.33446  23282310.591    23282319.015
  22945810.498    -7834993.33849  -6081612.04346  22945810.186    22945819.701
 04  7 22 19 13  0.0000000  0  7G22G11G14G23G25G20G 1
  24178037.338    19017198.45849  14810212.45845  24178036.744    24178044.261
  21267138.690   -16743636.82949 -13035992.75547  21267138.167    21267143.849
  22120404.295     1897740.68349   1492170.70446  22120403.683    22120409.910
  24333937.524    -1935604.92049  -1489064.11945  24333936.586    24333944.091
  20962408.467   -15088281.60549 -11737273.20247  20962408.047    20962414.482
  23265746.695    -6263115.00449  -4642797.55146  23265745.740    23265754.251
  22930948.497    -7913094.23649  -6142469.83346  22930948.165    22930957.666
 04  7 22 19 13 30.0000000  0  7G22G11G14G23G25G20G 1
  24193614.269    19099056.96949  14873998.09145  24193613.889    24193621.778
  21265113.897   -16754277.40949 -13044284.13247  21265113.299    21265119.010
  22134887.024     1973846.30749   1551473.72646  22134886.287    22134892.498
  24316430.675    -2027605.60449  -1560752.90945  24316429.606    24316437.124
  20955596.762   -15124077.33649 -11765165.96047  20955596.322    20955602.710
  23249193.871    -6350098.79349  -4710577.07045  23249193.148    23249201.745
  22916129.858    -7990968.17049  -6203150.77646  22916129.304    22916138.777
 04  7 22 19 14  0.0000000  0  7G22G11G14G23G25G20G 1
  24209216.747    19181045.71949  14937885.30245  24209216.358    24209223.859
  21263194.790   -16764362.00149 -13052142.26647  21263194.247    21263199.966
  22149398.106     2050101.59249   1610893.36346  22149397.252    22149403.487
  24298949.140    -2119469.72649  -1632335.31645  24298948.468    24298955.920
  20948884.623   -15159349.46749 -11792650.72247  20948884.239    20948890.670
  23232653.965    -6437015.93049  -4778304.66546  23232653.279    23232661.874
  22901354.257    -8068614.26949  -6263654.19046  22901353.713    22901363.204
 04  7 22 19 14 30.0000000  0  7G22G11G14G23G25G20G 1
  24224843.440    19263164.75649  15001873.96245  24224842.980    24224850.784
  21261381.768   -16773889.69849 -13059566.46147  21261381.232    21261386.945
  22163937.121     2126504.90149   1670428.35346  22163936.267    22163942.571
  24281494.021    -2211196.89849  -1703810.98045  24281493.321    24281500.659
  20942272.302   -15194097.36949 -11819726.98947  20942271.937    20942278.348
  23216127.381    -6523865.63149  -4845979.69245  23216126.481    23216134.869
  22886622.070    -8146032.17249  -6323979.79346  22886621.611    22886630.963
 04  7 22 19 15  0.0000000  0  7G22G11G14G23G25G20G 1
  24240495.001    19345414.46649  15065964.50045  24240494.754    24240502.637
  21259674.883   -16782859.45949 -13066555.90247  21259674.294    21259680.092
  22178504.122     2203055.84249   1730078.37846  22178503.392    22178509.736
  24264065.339    -2302785.35349  -1775178.55545  24264064.678    24264071.955
  20935760.167   -15228319.35149 -11846393.45647  20935759.765    20935766.067
  23199613.674    -6610645.76949  -4913600.52245  23199612.633    23199621.246
  22871933.587    -8223220.64349  -6384126.61146  22871933.060    22871942.354
 04  7 22 19 15 30.0000000  0  7G22G11G14G23G25G20G 1
  24256171.753    19427794.03849  15130156.18545  24256171.251    24256179.197
  21258074.112   -16791271.52249 -13073110.77247  21258073.562    21258079.367
  22193098.976     2279752.36649   1789841.84346  22193098.317    22193104.562
  24246663.294    -2394234.16949  -1846437.03945  24246662.694    24246669.773
  20929348.071   -15262014.68349 -11872649.54547  20929347.714    20929354.024
  23183113.284    -6697355.61349  -4981166.58746  23183112.275    23183120.826
  22857288.772    -8300179.80149  -6444094.74646  22857288.229    22857297.483
 04  7 22 19 16  0.0000000  0  7G22G11G14G23G25G20G 1
  24271872.518    19510302.70349  15194448.44345  24271871.982    24271880.079
  21256579.387   -16799126.25949 -13079231.36247  21256578.877    21256584.641
  22207721.318     2356592.37749   1849717.11846  22207720.575    22207726.760
  24229287.163    -2485544.99849  -1917588.30045  24229286.735    24229293.896
  20923036.343   -15295183.12849 -11898495.07347  20923035.914    20923042.251
  23166626.391    -6783994.59549  -5048677.43546  23166625.469    23166633.861
  22842687.605    -8376909.50249  -6503884.09146  22842687.027    22842696.133
 04  7 22 19 16 30.0000000  0  7G22G11G14G23G25G20G 1
  24287598.311    19592941.05449  15258841.82745  24287597.856    24287605.931
  21255191.121   -16806422.06749 -13084916.41747  21255190.628    21255196.319
  22222370.857     2433575.16949   1909703.64946  22222370.073    22222376.296
  24211937.944    -2576715.21449  -1988629.94045  24211937.385    24211944.530
  20916825.176   -15327822.93849 -11923928.67647  20916824.734    20916831.102
  23150153.153    -6870560.54749  -5116131.34646  23150152.373    23150160.850
  22828130.282    -8453408.45449  -6563493.61446  22828129.714    22828138.816
 04  7 22 19 17  0.0000000  0  7G22G11G14G23G25G20G 1
  24303348.632    19675708.13449  15323335.47045  24303348.052    24303356.160
  21253909.013   -16813159.34749 -13090166.25947  21253908.526    21253914.281
  22237047.038     2510698.82149   1969799.93746  22237046.263    22237052.565
  24194615.035    -2667748.06349  -2059564.39545  24194614.177    24194621.568
  20910714.590   -15359934.11549 -11948950.35747  20910714.124    20910720.513
  23133694.409    -6957052.87649  -5183527.89846  23133693.397    23133701.891
  22813616.935    -8529676.70749  -6622923.41446  22813616.392    22813625.446
 04  7 22 19 17 30.0000000  0  7G22G11G14G23G25G20G 1
  24319123.166    19758604.18349  15387929.59245  24319122.921    24319130.981
  21252733.364   -16819337.34749 -13094980.30447  21252732.929    21252738.685
  22251749.657     2587962.25649   2030005.15446  22251748.865    22251755.408
  24177319.769    -2758635.60149  -2130385.84745  24177319.020    24177326.775
  20904704.934   -15391515.06249 -11973558.87647  20904704.524    20904710.898
  23117249.884    -7043469.79249  -5250865.74346  23117248.942    23117257.078
  22799147.539    -8605713.29449  -6682172.68246  22799146.940    22799156.066
 04  7 22 19 18  0.0000000  0  7G22G11G14G23G25G20G 1
  24334922.513    19841628.17749  15452623.48745  24334922.013    24334929.999
  21251664.165   -16824956.39549 -13099358.79847  21251663.699    21251669.377
  22266478.406     2665363.28249   2090317.58946  22266477.788    22266484.375
  24160051.658    -2849380.61849  -2201096.25745  24160050.915    24160058.657
  20898796.364   -15422565.40549 -11997753.93747  20898795.865    20898802.237
  23100819.602    -7129810.89749  -5318144.45546  23100818.626    23100826.840
  22784722.264    -8681518.29249  -6741241.48246  22784721.736    22784730.847
 04  7 22 19 18 30.0000000  0  7G22G11G14G23G25G20G 1
  24350745.698    19924779.71749  15517416.68045  24350745.361    24350753.444
  21250701.402   -16830016.37649 -13103301.64847  21250700.826    21250706.557
  22281233.385     2742900.58349   2150736.23146  22281232.743    22281239.237
  24142810.836    -2939982.91449  -2271695.35645  24142809.850    24142817.572
  20892988.664   -15453084.51249 -12021535.04947  20892988.245    20892994.635
  23084404.167    -7216074.77649  -5385362.99846  23084403.120    23084411.359
  22770341.096    -8757091.26949  -6800129.43546  22770340.561    22770349.952
 04  7 22 19 19  0.0000000  0  7G22G11G14G23G25G20G 1
  24366593.343    20008058.71749  15582309.21245  24366592.998    24366601.173
  21249844.928   -16834517.04649 -13106808.67847  21249844.389    21249850.135
  22296014.040     2820572.90749   2211260.05946  22296013.381    22296019.762
  24125596.383    -3030441.75549  -2342182.71245  24125595.868    24125603.690
  20887282.380   -15483071.36149 -12044901.42047  20887281.956    20887288.298
  23068003.403    -7302260.40349  -5452520.56446  23068002.404    23068010.710
  22756004.339    -8832431.69549  -6858836.23546  22756003.856    22756013.145
 04  7 22 19 19 30.0000000  0  7G22G11G14G23G25G20G 1
  24382465.383    20091464.90249  15647300.86445  24382464.910    24382472.917
  21249094.950   -16838457.89249 -13109879.47247  21249094.398    21249100.198
  22310820.150     2898378.70049   2271887.90946  22310819.431    22310825.669
  24108409.892    -3120756.39849  -2412557.61845  24108409.276    24108417.307
  20881677.444   -15512525.30549 -12067852.53147  20881676.986    20881683.379
  23051617.889    -7388366.37049  -5519616.08646  23051616.988    23051625.233
  22741711.873    -8907539.10049  -6917361.46646  22741711.292    22741720.601
 04  7 22 19 20  0.0000000  0  7G22G11G14G23G25G20G 1
  24398361.108    20174997.18549  15712390.78045  24398360.527    24398368.687
  21248451.372   -16841839.46649 -13112514.48447  21248450.913    21248456.725
  22325651.121     2976315.91149   2332618.14046  22325650.444    22325656.740
  24091251.287    -3210926.27549  -2482819.75745  24091250.644    24091258.698
  20876173.957   -15541445.85449 -12090388.01047  20876173.536    20876179.975
  23035247.781    -7474391.69349  -5586648.73046  23035246.791    23035255.072
  22727463.592    -8982413.40249  -6975704.99146  22727463.075    22727472.306
 04  7 22 19 20 30.0000000  0  7G22G11G14G23G25G20G 1
  24414280.947    20258655.85949  15777579.15745  24414280.535    24414288.495
  21247914.497   -16844661.06749 -13114713.14847  21247914.015    21247919.806
  22340506.835     3054383.80549   2393450.22246  22340506.279    22340512.603
  24074120.457    -3300950.45649  -2552968.34545  24074119.534    24074127.643
  20870772.221   -15569832.30849 -12112507.32547  20870771.805    20870778.187
  23018893.214    -7560334.82049  -5653617.37946  23018892.233    23018900.575
  22713259.878    -9057054.01049  -7033866.42446  22713259.438    22713268.681
 04  7 22 19 21  0.0000000  0  7G22G11G14G23G25G20G 1
  24430224.614    20342440.38149  15842865.59745  24430224.128    24430232.351
  21247484.073   -16846923.00349 -13116475.69947  21247483.573    21247489.353
  22355387.208     3132580.24149   2454382.47246  22355386.608    22355393.034
  24057017.697    -3390828.95849  -2623003.39645  24057016.524    24057024.280
  20865472.163   -15597684.32049 -12134210.18547  20865471.734    20865478.089
  23002554.283    -7646195.05049  -5720521.37646  23002553.453    23002561.853
  22699100.882    -9131460.98349  -7091845.82546  22699100.300    22699109.418
 04  7 22 19 21 30.0000000  0  7G22G11G14G23G25G20G 1
  24446192.388    20426350.24949  15908249.70445  24446191.853    24446199.954
  21247160.164   -16848625.10849 -13117802.03547  21247159.647    21247165.424
  22370291.777     3210904.13749   2515414.02046  22370291.179    22370297.813
  24039942.176    -3480561.00449  -2692924.40345  24039941.075    24039948.750
  20860273.916   -15625001.14049 -12155496.00347  20860273.523    20860279.898
  22986231.688    -7731971.12149  -5787359.83446  22986230.814    22986239.132
  22684986.282    -9205633.74749  -7149642.74846  22684985.682    22684994.652
 04  7 22 19 22  0.0000000  0  7G22G11G14G23G25G20G 1
  24462184.065    20510386.11249  15973732.01245  24462183.254    24462191.429
  21246942.980   -16849766.58049 -13118691.51747  21246942.418    21246948.234
  22385220.346     3289354.79149   2576544.34646  22385219.825    22385226.578
  24022894.548    -3570145.02049  -2762730.02045  24022893.857    24022901.314
  20855177.856   -15651781.41849 -12176363.75647  20855177.471    20855183.802
  22969925.391    -7817660.77249  -5854130.94446  22969924.622    22969932.968
  22670916.451    -9279571.15349  -7207256.22846  22670915.832    22670924.695
 04  7 22 19 22 30.0000000  0  7G22G11G14G23G25G20G 1
  24478199.548    20594546.65849  16039311.46245  24478198.725    24478207.117
  21246832.272   -16850347.94649 -13119144.54047  21246831.794    21246837.618
  22400172.952     3367930.29349   2637771.96946  22400172.373    22400178.924
  24005875.482    -3659580.94449  -2832420.24145  24005874.689    24005882.272
  20850183.790   -15678024.85949 -12196813.18647  20850183.448    20850189.781
  22953635.808    -7903263.25849  -5920834.13046  22953635.019    22953643.234
  22656891.224    -9353273.29949  -7264686.39246  22656890.721    22656899.670
 04  7 22 19 23  0.0000000  0  7G22G11G14G23G25G20G 1
  24494238.458    20678831.28949  16104987.63045  24494237.672    24494246.121
  21246828.191   -16850369.41649 -13119161.28747  21246827.707    21246833.534
  22415148.994     3446628.82249   2699095.44246  22415148.256    22415154.741
  23988884.498    -3748868.41549  -2901994.77145  23988883.711    23988891.423
  20845292.008   -15703731.20549 -12216844.09847  20845291.665    20845298.051
  22937363.021    -7988777.86849  -5987468.84746  22937362.114    22937370.282
  22642910.767    -9426740.21249  -7321933.27346  22642910.339    22642919.373
 04  7 22 19 23 30.0000000  0  7G22G11G14G23G25G20G 1
  24510300.983    20763240.05149  16170760.40645  24510300.223    24510308.655
  21246930.633   -16849830.99149 -13118741.75647  21246930.206    21246936.057
  22430147.913     3525449.15549   2760513.82646  22430147.193    22430153.707
  23971922.184    -3838006.63649  -2971453.01745  23971921.234    23971929.004
  20840502.633   -15728899.78449 -12236455.97147  20840502.261    20840508.655
  22921107.325    -8074202.94349  -6054033.78346  22921106.289    22921114.415
  22628975.396    -9499971.34549  -7378996.42946  22628974.877    22628983.937
 04  7 22 19 24  0.0000000  0  7G22G11G14G23G25G20G 1
  24526387.333    20847772.85649  16236630.00345  24526386.406    24526395.228
  21247139.826   -16848732.04449 -13117885.45147  21247139.371    21247145.168
  22445169.804     3604390.29149   2822026.36246  22445169.173    22445175.708
  23954988.149    -3926994.42949  -3040794.05645  23954987.348    23954994.969
  20835815.666   -15753529.59749 -12255648.03147  20835815.295    20835821.742
  22904868.832    -8159536.79749  -6120527.63946  22904867.800    22904875.970
  22615084.927    -9572965.82449  -7435875.15446  22615084.343    22615093.544
 04  7 22 19 24 30.0000000  0  7G22G11G14G23G25G20G 1
  24542497.080    20932429.19049  16302595.73645  24542495.973    24542504.883
  21247455.525   -16847072.92649 -13116592.65147  21247455.053    21247460.908
  22460214.553     3683450.71249   2883631.84046  22460213.907    22460220.438
  23938082.892    -4015831.32249  -3110017.49846  23938082.151    23938089.577
  20831231.416   -15777620.21249 -12274419.93647  20831231.049    20831237.428
  22888647.869    -8244778.31149  -6186949.55646  22888646.960    22888654.999
  22601239.616    -9645723.53049  -7492569.40346  22601239.008    22601248.123
 04  7 22 19 25  0.0000000  0  7G22G11G14G23G25G20G 1
  24558629.747    21017207.67649  16368656.68545  24558628.785    24558637.978
  21247877.699   -16844854.57449 -13114864.08447  21247877.260    21247883.124
  22475281.542     3762628.05149   2945328.42146  22475280.887    22475287.623
  23921206.446    -4104517.83249  -3179123.77446  23921205.704    23921213.054
  20826749.702   -15801172.12049 -12292772.07448  20826749.331    20826755.640
  22872444.445    -8329927.16949  -6253299.25646  22872443.517    22872451.612
  22587439.232    -9718244.97849  -7549079.56846  22587438.622    22587447.695
 04  7 22 19 25 30.0000000  0  7G22G11G14G23G25G20G 1
  24574786.364    21102109.85649  16434814.03445  24574785.389    24574794.623
  21248406.753   -16842075.04649 -13112698.23547  21248406.234    21248412.068
  22490370.838     3841923.05549   3007116.69146  22490370.250    22490377.110
  23904359.147    -4193051.22649  -3248110.65946  23904358.307    23904365.592
  20822370.969   -15824182.72649 -12310702.41748  20822370.563    20822376.872
  22856259.343    -8414979.86049  -6319574.02346  22856258.522    22856266.600
  22573684.125    -9790527.94349  -7605403.89246  22573683.534    22573692.594
 04  7 22 19 26  0.0000000  0  7G22G11G14G23G25G20G 1
  24590966.039    21187133.90349  16501066.34945  24590965.297    24590974.286
  21249042.149   -16838736.01649 -13110096.41147  21249041.635    21249047.471
  22505482.167     3921332.67949   3068994.26746  22505481.489    22505488.350
  23887540.409    -4281432.27549  -3316978.89346  23887539.751    23887547.037
  20818094.959   -15846653.29249 -12328211.95348  20818094.543    20818100.815
  22840092.444    -8499936.98849  -6385774.34346  22840091.674    22840099.763
  22559974.329    -9862573.37549  -7661543.11946  22559973.715    22559982.705
 04  7 22 19 26 30.0000000  0  7G22G11G14G23G25G20G 1
  24607168.717    21272279.43349  16567413.29945  24607167.921    24607177.092
  21249783.940   -16834837.60949 -13107058.71647  21249783.481    21249789.378
  22520614.990     4000855.68149   3130960.20046  22520614.343    22520621.071
  23870751.228    -4369660.35849  -3385727.93645  23870750.484    23870757.814
  20813921.851   -15868583.04249 -12345300.06948  20813921.492    20813927.769
  22823944.154    -8584796.68649  -6451898.73746  22823943.313    22823951.428
  22546309.786    -9934380.74949  -7717496.85046  22546309.195    22546318.120
 04  7 22 19 27  0.0000000  0  7G22G11G14G23G25G20G 1
  24623394.690    21357546.25349  16633854.79645  24623393.908    24623402.941
  21250632.258   -16830380.01249 -13103585.28947  21250631.764    21250637.622
  22535769.205     4080490.77049   3193013.47046  22535768.452    22535775.164
  23853991.044    -4457734.90649  -3454357.32845  23853990.366    23853997.599
  20809851.700   -15889971.68249 -12361966.53748  20809851.310    20809857.700
  22807814.885    -8669557.82249  -6517946.31246  22807813.789    22807821.895
  22532690.445   -10005950.08149  -7773265.09346  22532689.874    22532698.927
 04  7 22 19 27 30.0000000  0  7G22G11G14G23G25G20G 1
  24639643.580    21442934.56849  16700390.91545  24639642.889    24639652.129
  21251587.054   -16825362.62049 -13099675.65447  21251586.583    21251592.410
  22550944.375     4160237.58449   3255153.79146  22550943.746    22550950.329
  23837260.221    -4545654.89049  -3522866.29845  23837259.639    23837266.900
  20805884.677   -15910818.34049 -12378210.68748  20805884.316    20805890.676
  22791704.317    -8754218.45949  -6583915.58546  22791703.302    22791711.427
  22519116.529   -10077280.42749  -7828847.09946  22519115.991    22519125.188
 04  7 22 19 28  0.0000000  0  7G22G11G14G23G25G20G 1
  24655915.284    21528443.68249  16767021.18745  24655914.846    24655924.226
  21252648.287   -16819785.85449 -13095330.14547  21252647.798    21252653.625
  22566140.589     4240094.38349   3317379.82746  22566139.987    22566146.500
  23820558.730    -4633419.60349  -3591254.29345  23820558.401    23820565.579
  20802020.982   -15931122.48449 -12394032.09748  20802020.601    20802026.907
  22775613.221    -8838777.38849  -6649805.60146  22775612.252    22775620.297
  22505588.215   -10148371.54349  -7884242.68646  22505587.756    22505596.863
 04  7 22 19 28 30.0000000  0  7G22G11G14G23G25G20G 1
  24672210.184    21614072.98849  16833745.14045  24672209.765    24672218.905
  21253815.829   -16813650.13149 -13090549.08747  21253815.360    21253821.231
  22581357.560     4320059.44449   3379690.19446  22581356.902    22581363.401
  23803887.001    -4721028.68949  -3659521.02645  23803886.823    23803893.990
  20798260.368   -15950884.35349 -12409430.95048  20798260.014    20798266.363
  22759541.740    -8923233.43649  -6715615.44646  22759540.709    22759548.818
  22492105.731   -10219223.26449  -7939451.75646  22492105.170    22492114.124
 04  7 22 19 29  0.0000000  0  7G22G11G14G23G25G20G 1
  24688527.656    21699820.67749  16900561.32944  24688526.891    24688536.744
  21255089.467   -16806957.23449 -13085333.86447  21255089.008    21255094.937
  22596594.644     4400130.24349   3442082.97546  22596593.963    22596600.457
  23787245.152    -4808482.83649  -3727667.02245  23787244.952    23787251.920
  20794602.844   -15970104.69049 -12424407.83848  20794602.526    20794608.821
  22743489.724    -9007586.44849  -6781345.00646  22743488.800    22743496.824
  22478668.516   -10289836.48549  -7994474.92846  22478667.782    22478676.757
 04  7 22 19 29 30.0000000  0  7G22G11G14G23G25G20G 1
  24704867.667    21785687.67848  16967470.48444  24704867.166    24704876.915
  21256469.421   -16799705.82749 -13079683.43347  21256468.962    21256474.817
  22611851.912     4480306.82949   3504558.17546  22611851.211    22611857.678
  23770633.057    -4895780.31549  -3795690.92945  23770632.814    23770639.685
  20791048.744   -15988782.04749 -12438961.62048  20791048.367    20791054.627
  22727457.920    -9091833.90349  -6846992.30646  22727457.049    22727464.948
  22465276.834   -10360209.68249  -8049311.11646  22465276.183    22465285.204
 04  7 22 19 30  0.0000000  0  6G11G14G23G25G20G 1
  21257955.839   -16791895.15749 -13073597.21847  21257955.384    21257961.217
  22627129.131     4560589.34549   3567115.90746  22627128.485    22627135.080
  23754051.064    -4982918.97149  -3863591.11345  23754050.783    23754057.496
  20787598.205   -16006914.30749 -12453090.65548  20787597.866    20787604.158
  22711446.682    -9175972.70149  -6912554.94746  22711445.963    22711453.769
  22451931.350   -10430340.94049  -8103958.78746  22451930.662    22451939.581
 04  7 22 19 30 30.0000000  0  6G11G14G23G25G20G 1
  21259549.849   -16783518.39649 -13067069.90047  21259549.370    21259555.300
  22642427.504     4640982.96349   3629760.23246  22642426.864    22642433.634
  23737500.785    -5069891.74349  -3931362.03645  23737500.362    23737507.127
  20784252.769   -16024494.91349 -12466789.83048  20784252.402    20784258.704
  22695457.813    -9259994.90049  -6978026.73646  22695456.972    22695464.771
  22438632.923   -10500223.70049  -8158412.79446  22438632.368    22438641.287
 04  7 22 19 31  0.0000000  0  6G11G14G23G25G20G 1
  21261249.325   -16774587.57549 -13060110.83547  21261248.854    21261254.770
  22657744.562     4721475.21549   3692481.41146  22657743.981    22657750.765
  23720979.679    -5156709.51349  -3999012.16945  23720979.447    23720986.219
  20781010.099   -16041535.11249 -12480067.89948  20781009.746    20781016.090
  22679489.318    -9343910.86249  -7043415.73146  22679488.327    22679495.922
  22425379.754   -10569869.05749  -8212681.83546  22425379.243    22425388.096
 04  7 22 19 31 30.0000000  0  6G11G14G23G25G20G 1
  21263054.298   -16765102.27149 -13052719.71247  21263053.874    21263059.736
  22673080.370     4802065.63549   3755279.05846  22673079.824    22673086.691
  23704488.787    -5243370.65549  -4066540.22845  23704488.364    23704495.066
  20777870.526   -16058033.59449 -12492923.85648  20777870.150    20777876.485
  22663541.369    -9427718.04949  -7108719.96146  22663540.287    22663547.987
  22412172.185   -10639275.80649  -8266764.94146  22412171.526    22412180.380
 04  7 22 19 32  0.0000000  0  6G11G14G23G25G20G 1
  21264964.776   -16755062.91549 -13044896.86147  21264964.341    21264970.200
  22688434.870     4882752.73149   3818152.03746  22688434.203    22688440.967
  23688027.535    -5329874.63749  -4133945.82145  23688027.061    23688033.864
  20774834.100   -16073990.34449 -12505357.68248  20774833.732    20774840.011
  22647614.111    -9511415.11949  -7173938.37846  22647613.174    22647621.006
  22399009.884   -10708443.86749  -8320662.06146  22399009.279    22399018.155
 04  7 22 19 32 30.0000000  0  6G11G14G23G25G20G 1
  21266980.930   -16744467.73749 -13036640.89647  21266980.536    21266986.412
  22703807.960     4963537.39749   3881101.06146  22703807.261    22703813.744
  23671596.430    -5416218.87149  -4201226.98145  23671596.015    23671602.995
  20771901.120   -16089403.30149 -12517367.77148  20771900.742    20771907.034
  22631708.771    -9594998.58149  -7239068.30446  22631707.725    22631715.415
  22385893.508   -10777370.89249  -8374371.36146  22385892.899    22385901.678
 04  7 22 19 33  0.0000000  0  6G11G14G23G25G20G 1
  21269102.631   -16733317.88049 -13027952.72447  21269102.277    21269108.181
  22719199.224     5044418.02149   3944124.85146  22719198.446    22719204.773
  23655196.008    -5502403.27849  -4268383.56545  23655195.459    23655202.520
  20769071.550   -16104272.61049 -12528954.23048  20769071.161    20769077.523
  22615825.091    -9678467.53149  -7304108.95646  22615824.010    22615831.771
  22372822.914   -10846057.12249  -8427893.03646  22372822.267    22372830.976
 04  7 22 19 33 30.0000000  0  6G11G14G23G25G20G 1
  21271330.000   -16721613.13049 -13018832.16247  21271329.605    21271335.550
  22734608.414     5125393.66849   4007222.66946  22734607.589    22734613.796
  23638826.167    -5588426.83849  -4335414.80845  23638825.662    23638832.885
  20766345.644   -16118597.54249 -12540116.51348  20766345.248    20766351.513
  22599963.486    -9761820.15449  -7369058.99346  22599962.502    22599970.267
  22359798.273   -10914501.83149  -8481226.51146  22359797.624    22359806.298
 04  7 22 19 34  0.0000000  0  6G11G14G23G25G20G 1
  21273662.912   -16709353.69549 -13009279.38547  21273662.520    21273668.466
  22750035.467     5206463.44449   4070393.83946  22750034.708    22750041.068
  23622487.232    -5674288.63349  -4402319.98345  23622486.583    23622493.787
  20763723.294   -16132377.90049 -12550854.45048  20763722.914    20763729.205
  22584124.356    -9845054.62449  -7433916.94046  22584123.356    22584131.190
  22346819.648   -10982704.39149  -8534371.31346  22346819.009    22346827.704
 04  7 22 19 34 30.0000000  0  6G11G14G23G25G20G 1
  21276101.466   -16696539.74849 -12999294.51847  21276101.002    21276106.922
  22765480.108     5287626.78149   4133637.89946  22765479.477    22765486.074
  23606179.258    -5759987.71249  -4469098.45046  23606178.533    23606185.654
  20761204.672   -16145613.07049 -12561167.55048  20761204.287    20761210.642
  22568308.283    -9928168.94249  -7498681.27746  22568307.226    22568315.028
  22333887.336   -11050664.13049  -8587326.89446  22333886.602    22333895.304
 04  7 22 19 35  0.0000000  0  7G30G11G14G23G25G20G 1
  24351074.953    -3554870.86449  -2759433.63645  24351075.551    24351085.229
  21278644.712   -16683175.36349 -12988880.73847  21278644.201    21278650.117
  22780941.737     5368878.44649   4196950.81346  22780941.172    22780947.930
  23589901.410    -5845527.43149  -4535752.67346  23589900.732    23589907.861
  20758789.186   -16158306.67549 -12571058.66648  20758788.779    20758795.104
  22552514.252   -10011165.52949  -7563353.88246  22552513.349    22552521.256
  22321000.479   -11118384.65249  -8640096.07846  22320999.724    22321008.466
 04  7 22 19 35 30.0000000  0  7G30G11G14G23G25G20G 1
  24347230.042    -3575075.17549  -2775177.19644  24347230.652    24347240.416
  21281293.144   -16669257.41649 -12978035.60347  21281292.688    21281298.571
  22796420.612     5450221.04649   4260334.56946  22796420.147    22796427.080
  23573654.743    -5930903.22149  -4602279.19845  23573654.119    23573661.295
  20756477.461   -16170454.97449 -12580524.86148  20756477.050    20756483.317
  22536744.075   -10094038.94149  -7627930.50546  22536743.117    22536750.930
  22308160.060   -11185861.81549  -8692675.62646  22308159.293    22308167.875
 04  7 22 19 36  0.0000000  0  7G30G11G14G23G25G20G 1
  24343481.310    -3594776.07449  -2790528.46744  24343481.128    24343491.341
  21284047.022   -16654786.04149 -12966759.23147  21284046.551    21284052.401
  22811916.762     5531653.78049   4323788.55846  22811916.398    22811923.384
  23557439.663    -6016114.28949  -4668677.37545  23557438.935    23557446.124
  20754269.554   -16182057.51749 -12589565.79948  20754269.139    20754275.399
  22520997.527   -10176787.41849  -7692409.78546  22520996.588    22521004.337
  22295365.906   -11253095.15749  -8745065.18746  22295365.200    22295373.838
 04  7 22 19 36 30.0000000  0  7G30G11G14G23G25G20G 1
  24339828.833    -3613972.43449  -2805486.61544  24339828.208    24339838.831
  21286905.946   -16639762.60549 -12955052.68247  21286905.482    21286911.309
  22827429.926     5613175.02349   4387311.51446  22827429.459    22827436.452
  23541256.084    -6101160.72649  -4734947.22246  23541255.169    23541262.286
  20752165.413   -16193114.76549 -12598181.82548  20752165.045    20752171.286
  22505274.909   -10259410.17749  -7756791.07046  22505273.923    22505281.784
  22282618.125   -11320084.79049  -8797264.84846  22282617.455    22282626.128
 04  7 22 19 37  0.0000000  0  7G30G11G14G23G25G20G 1
  24336273.077    -3632664.83949  -2820052.10044  24336271.887    24336281.773
  21289869.481   -16624189.36949 -12942917.72347  21289868.961    21289874.861
  22842959.329     5694781.59449   4450900.93646  22842958.839    22842965.840
  23525103.276    -6186043.88949  -4801089.85546  23525102.351    23525109.438
  20750164.668   -16203628.73749 -12606374.52148  20750164.320    20750170.545
  22489576.068   -10341907.45149  -7821074.61046  22489575.201    22489582.934
  22269916.409   -11386832.36849  -8849275.88146  22269915.778    22269924.518
 04  7 22 19 37 30.0000000  0  7G30G11G14G23G25G20G 1
  24332812.989    -3650851.48749  -2834223.42944  24332811.774    24332820.875
  21292937.489   -16608066.28849 -12930354.30147  21292937.126    21292943.046
  22858504.952     5776473.00049   4514556.48046  22858504.316    22858511.150
  23508981.902    -6270762.58349  -4867104.36746  23508981.050    23508987.969
  20748267.243   -16213599.07549 -12614143.60448  20748267.004    20748273.247
  22473901.660   -10424277.36049  -7885258.91346  22473900.762    22473908.354
  22257260.902   -11453337.50649  -8901098.03046  22257260.289    22257268.944
 04  7 22 19 38  0.0000000  0  7G30G11G14G23G25G20G 1
  24329448.763    -3668528.29549  -2847997.55844  24329447.893    24329457.527
  21296110.632   -16591391.99649 -12917361.37247  21296110.120    21296116.064
  22874066.981     5858250.19449   4578278.86846  22874066.163    22874072.743
  23492892.312    -6355314.10949  -4932988.59746  23492891.420    23492898.217
  20746473.903   -16223023.45549 -12621487.26448  20746473.625    20746479.893
  22458252.186   -10506515.78949  -7949340.74246  22458251.236    22458258.832
  22244652.108   -11519597.40849  -8952729.05446  22244651.408    22244660.077
 04  7 22 19 38 30.0000000  0  7G30G11G14G23G25G20G 1
  24326182.242    -3685695.27449  -2861374.33244  24326181.196    24326190.318
  21299388.153   -16574168.55549 -12903940.53747  21299387.661    21299393.609
  22889644.507     5940110.85549   4642066.29846  22889643.679    22889650.347
  23476834.309    -6439699.00049  -4998742.97446  23476833.466    23476840.315
  20744784.270   -16231902.76949 -12628406.19848  20744783.945    20744790.242
  22442627.691   -10588622.75649  -8013320.14346  22442626.763    22442634.384
  22232089.782   -11585613.13249  -9004169.82746  22232088.975    22232097.701
 04  7 22 19 39  0.0000000  0  7G30G11G14G23G25G20G 1
  24323012.482    -3702349.51549  -2874351.63044  24323011.929    24323020.765
  21302770.433   -16556395.01949 -12890091.05347  21302769.879    21302775.831
  22905237.764     6022055.19249   4705918.94946  22905237.135    22905243.799
  23460808.367    -6523915.36349  -5064366.04746  23460807.680    23460814.350
  20743198.459   -16240236.14349 -12634899.72748  20743198.083    20743204.428
  22427028.943   -10670594.95449  -8077194.53946  22427027.981    22427035.544
  22219573.987   -11651383.26149  -9055419.22346  22219573.289    22219582.062
 04  7 22 19 39 30.0000000  0  7G30G11G14G23G25G20G 1
  24319939.943    -3718489.96849  -2886928.43444  24319940.098    24319949.432
  21306257.070   -16538072.24249 -12875813.59947  21306256.625    21306262.608
  22920846.940     6104082.02249   4769835.85546  22920846.268    22920853.056
  23444814.477    -6607963.14149  -5129857.77346  23444813.903    23444820.585
  20741716.472   -16248024.05649 -12640968.22348  20741716.129    20741722.391
  22411455.852   -10752431.24549  -8140963.04046  22411455.003    22411462.596
  22207105.118   -11716907.74349  -9106477.22546  22207104.372    22207113.042
 04  7 22 19 40  0.0000000  0  7G30G11G14G23G25G20G 1
  24316965.600    -3734115.89749  -2899104.41444  24316966.115    24316976.113
  21309848.049   -16519202.10649 -12861109.62447  21309847.539    21309853.430
  22936471.293     6186189.18749   4833815.38746  22936470.742    22936477.718
  23428852.730    -6691842.47249  -5195218.25346  23428852.174    23428858.708
  20740338.287   -16255267.02949 -12646612.08748  20740337.833    20740344.112
  22395908.908   -10834130.91349  -8204625.07746  22395908.026    22395915.555
  22194682.808   -11782187.09449  -9157344.20946  22194682.032    22194690.722
 04  7 22 19 40 30.0000000  0  7G30G11G14G23G25G20G 1
  24314089.653    -3749226.82649  -2910879.16444  24314090.126    24314100.347
  21313542.884   -16499785.59149 -12845979.90647  21313542.362    21313548.290
  22952110.625     6268375.00049   4897856.19346  22952110.154    22952117.295
  23412923.164    -6775553.28849  -5260447.37146  23412922.471    23412929.072
  20739063.371   -16261965.94349 -12651832.00148  20739063.035    20739069.354
  22380388.094   -10915693.20249  -8268180.04946  22380387.190    22380394.801
  22182306.993   -11847221.80749  -9208020.55946  22182306.259    22182315.021
 04  7 22 19 41  0.0000000  0  7G30G11G14G23G25G20G 1
  24311312.174    -3763821.43049  -2922251.52845  24311312.709    24311322.638
  21317341.447   -16479823.94349 -12830425.40947  21317340.972    21317346.970
  22967764.905     6350638.31149   4961957.38546  22967764.477    22967771.822
  23397025.347    -6859095.39349  -5325545.08546  23397024.827    23397031.610
  20737892.084   -16268121.41649 -12656628.47148  20737891.726    20737897.994
  22364893.932   -10997116.35049  -8331626.62346  22364892.926    22364900.492
  22169977.607   -11912011.91649  -9258506.29746  22169976.964    22169985.802
 04  7 22 19 41 30.0000000  0  7G30G11G14G23G25G20G 1
  24308633.258    -3777899.78449  -2933221.55745  24308633.463    24308643.506
  21321243.398   -16459318.86249 -12814447.45247  21321242.941    21321248.926
  22983433.599     6432976.70849   5026117.10246  22983433.100    22983440.521
  23381159.994    -6942469.51949  -5390511.85546  23381159.141    23381165.967
  20736823.940   -16273734.74649 -12661002.48348  20736823.546    20736829.746
  22349425.953   -11078400.16549  -8394964.60846  22349425.005    22349432.678
  22157694.869   -11976558.39449  -9308802.21546  22157694.188    22157702.992
 04  7 22 19 42  0.0000000  0  7G30G11G14G23G25G20G 1
  24306053.309    -3791459.96349  -2943787.88245  24306053.100    24306063.016
  21325248.741   -16438270.60749 -12798046.24647  21325248.328    21325254.294
  22999116.524     6515389.67549   5090334.88846  22999115.982    22999123.455
  23365326.315    -7025674.56549  -5455346.89745  23365325.622    23365332.479
  20735858.878   -16278805.54149 -12664953.74748  20735858.544    20735864.818
  22333985.123   -11159542.55449  -8458192.40546  22333984.125    22333991.799
  22145458.586   -12040860.52049  -9358907.71746  22145457.879    22145466.685
 04  7 22 19 42 30.0000000  0  7G30G11G14G23G25G20G 1
  24303571.818    -3804500.71249  -2953949.45444  24303571.607    24303581.206
  21329357.338   -16416680.01549 -12781222.43347  21329356.883    21329362.914
  23014813.679     6597876.35349   5154610.13246  23014812.896    23014820.186
  23349525.162    -7108709.99049  -5520049.82645  23349524.450    23349531.161
  20734997.191   -16283333.72349 -12668482.19148  20734996.870    20735003.177
  22318571.393   -11240541.77649  -8521308.65046  22318570.455    22318578.155
  22133268.900   -12104918.06649  -9408822.66646  22133268.187    22133276.826
 04  7 22 19 43  0.0000000  0  7G30G11G14G23G25G20G 1
  24301190.041    -3817020.54249  -2963705.04845  24301189.525    24301198.498
  21333568.884   -16394547.99949 -12763976.74147  21333568.488    21333574.531
  23030524.409     6680435.54549   5218941.89246  23030523.619    23030530.640
  23333756.362    -7191575.12049  -5584620.01345  23333755.697    23333762.421
  20734238.791   -16287319.64849 -12671588.10348  20734238.396    20734244.689
  22303185.369   -11321396.01849  -8584311.92846  22303184.337    22303191.982
  22121125.559   -12168730.76049  -9458546.80746  22121124.974    22121133.504
 04  7 22 19 43 30.0000000  0  7G30G11G14G23G25G20G 1
  24298907.688    -3829018.49149  -2973054.05945  24298907.026    24298915.707
  21337883.359   -16371875.69249 -12746310.03747  21337882.941    21337888.956
  23046248.568     6763066.20549   5283329.32946  23046247.765    23046254.802
  23318020.238    -7274269.44249  -5649057.07646  23318019.451    23318026.182
  20733583.289   -16290763.65349 -12674271.73248  20733582.959    20733589.269
  22287827.045   -11402103.91849  -8647201.14546  22287826.069    22287833.853
  22109028.948   -12232298.68249  -9508080.22946  22109028.319    22109036.824
 04  7 22 19 44  0.0000000  0  7G30G11G14G23G25G20G 1
  24296724.299    -3840492.90649  -2981995.08044  24296723.966    24296732.232
  21342300.642   -16348663.21249 -12728222.42547  21342300.113    21342306.136
  23061986.089     6845767.71049   5347771.95246  23061985.339    23061992.458
  23302316.720    -7356792.17549  -5713360.44946  23302315.973    23302322.495
  20733031.023   -16293665.70449 -12676533.07148  20733030.701    20733037.023
  22272497.033   -11482663.42249  -8709974.75746  22272496.102    22272503.830
  22096979.051   -12295621.01949  -9557422.27946  22096978.500    22096986.959
 04  7 22 19 44 30.0000000  0  7G30G11G14G23G25G20G 1
  24294640.918    -3851442.34449  -2990527.01744  24294640.571    24294648.888
  21346820.534   -16324911.27249 -12709714.45647  21346819.984    21346826.022
  23077737.013     6928539.37249   5412269.26746  23077736.365    23077743.301
  23286646.069    -7439142.66849  -5777529.62045  23286645.121    23286651.654
  20732582.000   -16296025.78049 -12678372.09348  20732581.662    20732587.933
  22257195.649   -11563072.48149  -8772631.13246  22257194.755    22257202.409
  22084976.135   -12358697.34749  -9606572.61246  22084975.480    22084983.906
 04  7 22 19 45  0.0000000  0  7G30G11G14G23G25G20G 1
  24292657.395    -3861865.37649  -2998648.78944  24292656.834    24292665.182
  21351442.939   -16300620.55849 -12690786.64847  21351442.434    21351448.457
  23093501.156     7011380.44149   5476820.69646  23093500.532    23093507.325
  23271007.935    -7521319.97749  -5841563.82245  23271007.197    23271013.772
  20732236.036   -16297843.84449 -12679788.75948  20732235.672    20732241.947
  22241923.168   -11643329.30249  -8835168.86846  22241922.328    22241929.989
  22073020.030   -12421527.23049  -9655530.92647  22073019.387    22073027.815
 04  7 22 19 45 30.0000000  0  7G30G11G14G23G25G20G 1
  24290774.256    -3871760.08649  -3006358.86444  24290774.286    24290782.616
  21356167.727   -16275791.14349 -12671439.09247  21356167.303    21356173.369
  23109278.286     7094290.73949   5541426.05546  23109277.760    23109284.671
  23255403.063    -7603322.63349  -5905461.92546  23255402.490    23255409.129
  20731993.321   -16299119.20149 -12680782.54548  20731993.000    20731999.203
  22226680.315   -11723431.25549  -8897585.93446  22226679.420    22226686.987
  22061110.868   -12484109.72249  -9704296.46847  22061110.261    22061118.664
 04  7 22 19 46  0.0000000  0  7G30G11G14G23G25G20G 1
  24288991.181    -3881126.19748  -3013657.02044  24288990.098    24289000.561
  21360994.769   -16250425.19049 -12651673.45147  21360994.371    21361000.410
  23125068.263     7177268.12449   5606083.68446  23125067.809    23125074.849
  23239831.588    -7685151.22949  -5969224.40946  23239830.960    23239837.611
  20731853.636   -16299853.65849 -12681354.84448  20731853.257    20731859.441
  22211466.977   -11803377.67149  -8959881.78446  22211466.092    22211473.718
  22049248.700   -12546445.58149  -9752869.82246  22049248.143    22049256.449
 04  7 22 19 46 30.0000000  0  7G30G11G14G23G25G20G 1
  24287309.660    -3889962.57249  -3020542.47044  24287308.825    24287319.249
  21365923.673   -16224523.40849 -12631490.28647  21365923.279    21365929.340
  23140870.791     7260311.75849   5670792.93946  23140870.459    23140877.617
  23224293.175    -7766805.19049  -6032850.80446  23224292.608    23224299.448
  20731816.727   -16300047.46349 -12681505.85848  20731816.342    20731822.599
  22196283.675   -11883166.84349  -9022055.12246  22196282.734    22196290.274
  22037433.591   -12608534.59549  -9801250.84946  22037433.042    22037441.179
 04  7 22 19 47  0.0000000  0  7G30G11G14G23G25G20G 1
  24285728.118    -3898269.02657  -3027014.87744  24285727.653
  21370954.362   -16198087.73849 -12610891.09547  21370953.876    21370959.953
  23156685.637     7343419.82349   5735552.42646  23156685.270    23156692.591
  23208787.901    -7848284.92949  -6096341.43646  23208787.500    23208794.228
  20731882.513   -16299701.74449 -12681236.46148  20731882.107    20731888.371
  22181130.299   -11962797.85949  -9084105.22546  22181129.404    22181136.943
  22025665.141   -12670377.61849  -9849440.15446  22025664.650    22025672.867
 04  7 22 19 47 30.0000000  0  6G11G14G23G25G20G 1
  21376086.926   -16171115.93649 -12589874.14347  21376086.453    21376092.509
  23172513.169     7426594.59049   5800363.84445  23172512.763    23172520.322
  23193317.152    -7929586.66749  -6159693.38246  23193316.451    23193322.966
  20732051.618   -16298813.60749 -12680544.41148  20732051.180    20732057.395
  22166007.789   -12042265.96849  -9146028.36446  22166007.023    22166014.684
  22013944.331   -12731971.16449  -9897435.09446  22013943.794    22013951.829
 04  7 22 19 48  0.0000000  0  6G11G14G23G25G20G 1
  21381320.409   -16143614.21849 -12568444.26847  21381319.870    21381325.979
  23188352.487     7509829.94849   5865222.51645  23188352.147    23188359.565
  23177878.847    -8010715.02749  -6222910.24446  23177878.129    23177884.801
  20732322.796   -16297388.60749 -12679434.02348  20732322.342    20732328.581
  22150916.056   -12121574.23449  -9207826.95646  22150915.230    22150922.795
  22002269.961   -12793320.21649  -9945239.51046  22002269.406    22002277.413
 04  7 22 19 48 30.0000000  0  6G11G14G23G25G20G 1
  21386654.549   -16115582.98749 -12546601.78447  21386654.077    21386660.190
  23204203.434     7593125.73249   5930128.23545  23204202.954    23204210.379
  23162473.755    -8091668.75249  -6285991.01446  23162473.164    23162479.819
  20732696.146   -16295426.55949 -12677905.15248  20732695.713    20732701.967
  22135855.167   -12200720.53649  -9269499.33646  22135854.178    22135861.670
  21990642.217   -12854423.94549  -9992852.74747  21990641.675    21990649.838
 04  7 22 19 49  0.0000000  0  6G11G14G23G25G20G 1
  21392089.145   -16087024.53049 -12524348.47847  21392088.605    21392094.695
  23220065.694     7676479.79549   5995079.41045  23220065.013    23220072.121
  23147101.981    -8172448.44149  -6348936.18546  23147101.335    23147107.819
  20733171.357   -16292929.15749 -12675959.13048  20733170.964    20733177.192
  22120824.723   -12279704.47449  -9331045.19646  22120823.912    22120831.440
  21979060.964   -12915283.44249 -10040275.69146  21979060.364    21979068.698
 04  7 22 19 49 30.0000000  0  6G11G14G23G25G20G 1
  21397623.918   -16057939.17149 -12501684.59847  21397623.394    21397629.503
  23235938.727     7759891.71749   6060075.63945  23235937.945    23235945.052
  23131763.474    -8253053.21349  -6411745.01946  23131762.694    23131769.017
  20733748.548   -16289896.20749 -12673595.79448  20733748.095    20733754.299
  22105825.925   -12358523.34049  -9392462.42946  22105825.126    22105832.655
  21967526.217   -12975897.88949 -10087507.68046  21967525.719    21967534.156
 04  7 22 19 50  0.0000000  0  6G11G14G23G25G20G 1
  21403259.049   -16028325.89649 -12478609.34947  21403258.582    21403264.753
  23251822.936     7843362.82449   6125117.99445  23251822.148    23251829.201
  23116458.570    -8333480.38649  -6474415.45446  23116457.830    23116464.200
  20734427.843   -16286325.69249 -12670813.57448  20734427.505    20734433.765
  22090859.437   -12437173.32149  -9453748.05046  22090858.538    22090866.036
  21956038.589   -13036265.08049 -10134546.99946  21956038.111    21956046.593
 04  7 22 19 50 30.0000000  0  6G11G14G23G25G20G 1
  21408994.370   -15998186.72049 -12455124.31947  21408993.952    21409000.090
  23267718.305     7926891.54549   6190205.26045  23267717.344    23267724.383
  23101187.522    -8413730.22149  -6536947.74246  23101186.831    23101193.164
  20735209.244   -16282219.44249 -12667613.89748  20735208.923    20735215.146
  22075925.075   -12515653.54949  -9514901.39446  22075924.166    22075931.679
  21944598.074   -13096385.57949 -10181394.11647  21944597.601    21944605.987
 04  7 22 19 51  0.0000000  0  6G11G14G23G25G20G 1
  21414829.592   -15967522.57549 -12431230.22347  21414829.162    21414835.273
  23283624.188     8010476.76249   6255336.52245  23283623.213    23283630.383
  23085950.378    -8493802.09749  -6599341.31946  23085949.579    23085955.921
  20736092.520   -16277578.09849 -12663997.27048  20736092.152    20736098.378
  22061023.510   -12593962.18249  -9575921.02646  22061022.482    22061029.982
  21933204.504   -13156259.26049 -10228048.88047  21933204.039    21933212.390
 04  7 22 19 51 30.0000000  0  6G11G14G23G25G20G 1
  21420764.486   -15936334.40049 -12406927.77947  21420764.113    21420770.238
  23299540.516     8094117.93549   6320511.41245  23299539.634    23299546.868
  23070747.069    -8573695.23849  -6661595.61346  23070746.315    23070752.665
  20737077.521   -16272401.51249 -12659963.56348  20737077.190    20737083.420
  22046154.776   -12672096.97749  -9636805.20846  22046153.906    22046161.323
  21921858.065   -13215885.63249 -10274510.94847  21921857.544    21921865.852
 04  7 22 19 52  0.0000000  0  6G11G14G23G25G20G 1
  21426798.892   -15904624.08749 -12382218.48147  21426798.446    21426804.631
  23315467.424     8177814.00049   6385729.05345  23315466.448    23315473.690
  23055577.897    -8653409.65449  -6723710.69746  23055577.216    23055583.433
  20738164.126   -16266691.02149 -12655513.82948  20738163.848    20738170.107
  22031319.289   -12750056.80449  -9697553.04746  22031318.555    22031325.949
  21910558.432   -13275265.12049 -10320780.62647  21910557.957    21910566.332
 04  7 22 19 52 30.0000000  0  6G11G14G23G25G20G 1
  21432932.447   -15872392.33149 -12357102.87947  21432931.980    21432938.169
  23331404.470     8261564.10249   6450988.83145  23331403.507    23331410.861
  23040442.956    -8732944.59649  -6785685.88146  23040442.144    23040448.420
  20739352.444   -16260446.88149 -12650648.27548  20739352.105    20739358.365
  22016517.780   -12827839.64949  -9758162.96846  22016516.913    22016524.317
  21899305.869   -13334397.27149 -10366857.56747  21899305.377    21899313.836
 04  7 22 19 53  0.0000000  0  6G11G14G23G25G20G 1
  21439164.951   -15839640.04949 -12331581.65247  21439164.565    21439170.721
  23347351.594     8345367.87249   6516290.40645  23347350.676    23347358.168
  23025342.147    -8812299.07149  -6847520.43846  23025341.388    23025347.786
  20740642.208   -16253668.97049 -12645366.77648  20740641.902    20740648.190
  22001750.331   -12905443.01849  -9818633.03846  22001749.386    22001756.857
  21888100.724   -13393281.43449 -10412741.28547  21888100.133    21888108.445
 04  7 22 19 53 30.0000000  0  6G11G14G23G25G20G 1
  21445496.273   -15806368.96549 -12305656.17947  21445495.852    21445502.044
  23363308.598     8429223.77949   6581632.62245  23363307.789    23363315.420
  23010275.553    -8891473.23449  -6909214.51346  23010274.968    23010281.433
  20742033.284   -16246358.73049 -12639670.49148  20742032.999    20742039.223
  21987017.302   -12982865.85049  -9878962.45646  21987016.296    21987023.669
  21876942.503   -13451918.31149 -10458432.32347  21876941.908    21876950.081
 04  7 22 19 54  0.0000000  0  6G11G14G23G25G20G 1
  21451926.240   -15772579.77849 -12279326.98847  21451925.791    21451932.010
  23379275.376     8513131.78749   6647015.43745  23379274.874    23379282.567
  22995243.647    -8970465.88649  -6970767.14246  22995243.145    22995249.554
  20743525.850   -16238516.00949 -12633559.27848  20743525.486    20743531.647
  21972318.882   -13060105.68449  -9939149.23046  21972317.911    21972325.394
  21865831.569   -13510306.84449 -10503929.83647  21865830.911    21865839.069
 04  7 22 19 54 30.0000000  0  6G11G14G23G25G20G 1
  21458454.123   -15738275.13849 -12252596.13747  21458453.732    21458459.927
  23395251.945     8597089.82349   6712437.21145  23395251.515    23395259.323
  22980246.076    -9049277.85049  -7032178.96546  22980245.497    22980252.120
  20745119.137   -16230143.00749 -12627034.85148  20745118.773    20745124.979
  21957655.560   -13137162.08649  -9999193.10047  21957654.562    21957662.017
  21854767.432   -13568448.47049 -10549234.95247  21854766.850    21854775.064
 04  7 22 19 55  0.0000000  0  7G30G11G14G23G25G20G 1
                  -1184942.29949   -922465.82843
  21465079.949   -15703456.73749 -12225464.95247  21465079.505    21465085.649
  23411237.811     8681095.84749   6777896.40745  23411237.458    23411245.129
  22965282.923    -9127909.72249  -7093450.46646  22965282.306    22965288.908
  20746813.074   -16221241.27249 -12620098.43448  20746812.690    20746818.964
  21943027.237   -13214034.19649 -10059093.36647  21943026.209    21943033.553
  21843750.258   -13626344.00149 -10594348.30947  21843749.687    21843757.880
 04  7 22 19 55 30.0000000  0  7G30G11G14G23G25G20G 1
                  -1184106.58949   -921814.12243
  21471803.079   -15668126.55749 -12197934.98647  21471802.640    21471808.848
  23427232.531     8765149.51049   6843392.69945  23427232.254    23427239.874
  22950354.055    -9206360.76949  -7154581.05946  22950353.481    22950360.030
  20748607.561   -16211811.36349 -12612750.44748  20748607.158    20748613.375
  21928434.369   -13290719.63049 -10118848.14747  21928433.392    21928440.769
  21832780.004   -13683993.13949 -10639269.66847  21832779.371    21832787.561
 04  7 22 19 56  0.0000000  0  6G11G14G23G25G20G 1
  21478623.571   -15632284.72349 -12170006.31947  21478623.129    21478629.383
  23443236.351     8849250.88949   6908926.17645  23443236.145    23443243.876
  22935459.843    -9284629.44549  -7215569.55246  22935459.262    22935465.833
  20750502.618   -16201852.71849 -12604990.46048  20750502.206    20750508.423
  21913877.549   -13367215.66549 -10178455.38447  21913876.669    21913883.898
  21821856.845   -13741394.69549 -10683998.10247  21821856.154    21821864.434
 04  7 22 19 56 30.0000000  0  6G11G14G23G25G20G 1
  21485541.146   -15595932.79049 -12141680.18547  21485540.709    21485546.975
  23459249.031     8933398.38549   6974495.57645  23459248.839    23459256.679
  22920600.549    -9362715.87449  -7276416.00346  22920599.839    22920606.276
  20752497.864   -16191367.08649 -12596819.83148  20752497.535    20752503.795
  21899356.937   -13443521.32649 -10237914.24147  21899356.131    21899363.409
  21810980.587   -13798549.40949 -10728534.21847  21810979.963    21810988.223
 04  7 22 19 57  0.0000000  0  6G11G14G23G25G20G 1
  21492555.408   -15559072.86349 -12112958.19947  21492554.964    21492561.259
  23475270.242     9017590.98849   7040100.13445  23475270.128    23475277.920
  22905775.790    -9440620.10849  -7337120.50946  22905775.102    22905781.548
  20754593.385   -16180355.41949 -12588239.30648  20754592.994    20754599.250
  21884873.066   -13519634.97949 -10297223.48947  21884872.128    21884879.400
  21800151.318   -13855457.42849 -10772878.08747  21800150.730    21800158.987
 04  7 22 19 57 30.0000000  0  6G11G14G23G25G20G 1
  21499666.021   -15521706.43749 -12083841.55647  21499665.581    21499671.854
  23491300.232     9101828.04749   7105739.32645  23491299.992    23491307.749
  22890985.923    -9518341.38749  -7397682.43246  22890985.280    22890991.707
  20756788.858   -16168818.28949 -12579249.33048  20756788.474    20756794.648
  21870425.794   -13595554.56949 -10356381.54247  21870424.970    21870432.229
  21789368.914   -13912118.55649 -10817029.57847  21789368.374    21789376.658
